GFSSGP_sfc_dewp_000.txt.gz
Dewpoint
42 26 30 19 14 16 14 13 17 15 16 34 43 42 45 48 46 43 62 65 67 66 65 64 69 68 69 70 70 71 71 71 71 70 70 71 70 70 68 69 70 70 69 69 70 70 70 70 71
29 20 18 16 14 12 12 16 15 15 10 18 37 46 43 48 53 57 59 65 66 66 64 63 69 69 69 70 70 70 70 70 70 70 70 69 69 65 63 69 69 69 69 70 69 69 69 69 70
29 4 9 14 16 12 17 15 10 6 10 18 40 46 48 51 57 59 64 65 66 65 64 65 69 69 69 69 69 69 70 69 69 68 69 69 70 68 66 69 69 70 70 69 68 68 69 69 69
18 7 7 9 8 9 10 10 10 5 22 33 41 47 55 56 61 62 63 64 65 65 64 67 68 69 69 68 68 69 69 69 69 69 68 68 68 67 68 68 69 68 68 67 67 67 68 68 67
12 8 6 7 8 7 8 11 14 18 32 37 41 46 53 55 63 63 63 63 63 64 64 66 68 68 67 66 66 68 69 68 68 68 68 68 68 68 68 68 68 69 68 67 67 68 67 66 67
9 12 5 4 6 5 8 12 20 29 33 38 44 46 51 58 60 64 64 63 62 62 64 65 68 68 68 67 66 67 67 67 67 67 68 68 68 68 67 68 68 69 69 68 68 68 67 66 66
9 8 7 7 7 7 9 13 22 22 30 36 39 42 52 54 55 59 63 62 61 61 61 63 64 65 66 66 66 66 66 66 67 67 68 68 68 68 68 67 67 68 68 67 67 66 66 65 64
11 8 6 5 5 6 11 17 25 26 28 33 36 39 46 51 54 56 55 58 59 58 59 62 63 63 64 63 63 63 64 65 66 67 66 66 66 67 67 66 66 67 67 67 66 66 65 64 64
10 5 5 7 5 7 11 10 28 33 31 36 37 42 47 52 52 56 56 54 54 53 55 61 62 63 63 60 58 63 64 64 64 65 64 64 64 64 64 61 61 64 65 65 66 65 65 64 63
10 7 11 17 15 9 10 14 21 25 29 36 41 42 46 49 51 50 47 46 45 47 47 53 60 61 61 55 59 64 63 63 63 63 63 63 64 63 62 60 61 59 59 59 64 64 63 62 58
19 14 16 21 23 22 13 15 24 21 20 29 35 40 41 43 42 42 38 38 41 43 45 47 53 57 59 60 60 61 63 62 60 62 61 63 61 61 63 61 60 59 58 60 58 63 62 62 61
20 25 26 26 24 20 19 22 20 22 26 32 38 39 38 37 36 34 34 35 38 42 41 42 50 55 57 55 55 56 54 55 55 59 62 63 62 62 61 61 60 58 59 59 59 61 61 62 62
23 27 30 28 26 25 25 23 24 24 29 32 32 33 32 31 31 32 33 34 35 38 39 38 44 49 52 54 52 52 51 50 51 52 56 57 59 60 61 58 58 58 60 60 59 58 59 61 61
31 31 31 30 29 28 28 25 25 26 30 30 30 29 29 30 29 31 31 33 32 33 35 35 38 45 46 49 50 48 46 44 44 47 52 55 56 59 60 59 58 60 61 61 60 60 59 60 60
30 26 29 28 28 28 27 24 23 25 29 29 29 29 29 28 29 29 30 32 31 30 32 32 34 39 41 43 42 39 37 38 40 45 52 53 53 56 56 54 53 54 58 59 61 61 61 61 61
27 25 17 22 24 27 25 10 21 25 27 26 28 29 29 29 29 28 30 31 30 27 28 30 25 35 37 39 35 33 35 36 39 44 46 48 48 49 49 50 51 52 53 54 54 54 55 58 59
19 13 16 16 23 22 21 16 14 24 25 23 23 27 28 28 29 29 30 30 30 28 27 30 32 32 33 35 34 38 40 35 36 40 39 43 42 43 41 42 45 45 43 46 46 47 51 50 52
18 17 18 19 16 20 18 16 14 15 17 22 23 24 26 29 28 30 30 30 30 31 28 30 30 33 33 32 34 34 35 36 35 35 35 38 38 39 37 38 41 39 36 36 37 38 38 42 48
22 20 16 15 18 22 19 18 17 18 18 20 24 25 26 28 30 30 32 32 31 32 29 29 30 32 30 30 30 30 31 33 35 33 34 36 35 35 38 34 34 37 36 38 37 35 35 34 40
21 21 19 18 20 22 21 19 18 16 18 22 24 24 26 27 29 30 31 33 34 31 30 28 28 30 30 27 29 31 31 30 31 33 36 36 36 36 33 34 33 36 33 36 37 37 33 31 35
22 22 20 20 22 20 20 13 15 17 20 23 24 26 27 27 28 29 30 33 35 34 33 30 28 28 30 30 28 29 30 31 29 30 30 34 38 38 39 37 37 36 36 34 36 36 35 30 31
21 22 22 22 22 15 21 11 16 17 18 20 24 25 26 26 27 27 29 31 34 36 36 32 29 27 28 32 28 32 26 24 25 30 30 32 36 38 39 39 40 41 38 37 35 31 35 35 31
22 25 24 24 22 21 19 17 17 20 16 18 22 24 26 27 28 28 28 30 32 35 37 36 31 29 29 32 34 31 32 29 30 31 34 35 36 36 37 38 40 41 40 39 40 39 37 34 33
25 25 25 24 23 22 20 18 16 17 19 21 21 25 27 27 28 29 28 29 30 36 37 37 32 29 31 33 34 35 34 32 30 31 30 29 30 30 33 33 36 37 38 38 38 39 39 38 36
27 26 27 26 25 21 21 20 21 22 22 23 25 27 28 29 30 30 29 28 29 31 34 33 31 29 30 33 34 35 35 34 32 29 28 29 27 27 29 30 31 30 31 32 33 34 35 36 34
23 25 27 28 21 21 21 19 18 21 23 25 26 26 28 30 31 31 29 30 30 31 32 32 28 29 29 32 33 34 32 28 27 27 27 26 26 26 28 29 29 29 30 30 31 30 30 32 36
27 29 26 25 24 23 21 21 23 22 24 25 25 28 29 31 32 31 30 31 31 32 33 34 30 27 28 31 32 30 30 28 24 26 28 26 28 23 26 28 29 30 30 31 32 30 31 33 36
28 26 28 29 30 25 19 21 20 23 24 25 27 29 31 32 33 33 32 33 32 33 31 34 32 28 28 29 29 27 27 26 25 27 27 28 28 27 27 27 28 28 29 29 30 30 31 31 34
30 30 25 25 27 28 26 22 26 26 27 28 28 29 32 33 34 34 33 33 34 33 30 31 29 27 27 27 28 28 25 24 25 26 26 26 27 26 26 26 27 27 27 28 28 29 30 30 30
30 30 28 30 27 29 29 27 29 30 29 29 30 31 32 33 33 33 35 34 32 29 27 27 28 26 26 26 27 26 25 25 26 25 26 27 26 27 27 26 25 25 24 25 26 27 27 28 29

GFSSGP_sfc_dewp_003.txt.gz
Dewpoint
46 28 19 19 13 10 10 11 13 12 19 36 35 36 43 44 46 48 58 64 66 65 62 62 68 67 68 70 70 71 71 71 71 70 71 70 69 66 68 68 67 68 69 67 69 69 69 69 70
26 10 15 14 11 8 7 14 11 12 12 26 38 35 39 47 49 54 56 63 66 65 63 61 68 67 67 68 69 70 70 70 71 71 70 70 69 66 64 64 63 67 68 69 67 68 68 69 70
30 10 8 9 8 10 15 14 13 8 15 22 35 43 45 50 53 55 60 62 63 63 62 64 69 68 68 67 68 68 69 69 69 70 70 69 69 65 63 63 65 67 69 69 68 67 69 69 69
13 5 7 8 8 12 14 13 13 10 22 25 33 44 52 57 56 57 60 61 63 64 64 66 68 68 66 64 65 67 67 67 68 69 70 69 68 66 64 63 67 68 68 68 68 68 68 68 67
9 5 5 7 6 6 10 13 16 16 29 32 34 41 50 58 62 61 61 62 61 64 65 66 68 68 67 65 64 66 67 67 67 68 69 68 68 68 67 67 67 68 67 67 66 67 67 66 67
6 6 4 3 5 6 10 15 21 25 30 36 37 44 49 59 61 63 60 58 58 60 63 65 67 68 67 66 66 66 66 66 67 66 67 67 67 67 66 67 68 67 66 67 68 67 66 65 65
8 7 4 4 7 6 8 11 14 16 25 32 37 36 50 53 60 62 59 59 58 58 60 61 62 65 66 65 64 64 65 65 66 67 67 67 67 67 66 64 64 65 65 65 65 66 65 63 64
7 8 2 3 3 5 7 12 15 14 13 29 28 32 43 52 60 59 59 59 60 59 58 59 60 60 62 62 62 63 64 64 65 66 65 65 66 65 63 62 61 61 61 60 63 64 64 64 64
7 3 2 2 3 4 6 7 17 21 17 21 26 30 46 54 57 57 56 55 55 54 56 61 61 62 61 57 56 63 65 63 64 64 63 62 63 63 62 61 61 60 60 59 60 57 62 63 63
8 7 8 9 6 6 4 6 12 16 19 24 30 41 48 51 50 50 50 49 46 48 48 52 60 62 61 55 56 61 62 61 61 61 62 60 62 62 61 62 61 61 60 59 58 57 57 62 61
15 10 9 12 16 13 11 9 15 14 14 17 25 35 44 47 47 48 44 42 40 45 46 50 56 60 62 59 59 62 61 61 60 61 60 62 60 61 61 62 61 62 59 60 57 57 57 57 58
15 16 17 20 20 17 17 19 17 17 18 25 27 32 39 42 42 41 38 35 38 42 44 46 54 59 58 56 56 57 56 56 55 59 60 60 58 60 61 60 59 61 61 59 58 58 58 57 57
21 21 23 23 24 24 25 22 22 21 23 27 31 35 36 37 36 34 33 35 37 39 43 43 49 54 57 55 53 53 51 50 51 51 54 54 54 57 58 57 56 56 57 59 59 58 57 59 59
24 25 26 26 25 24 24 19 21 21 26 27 29 30 31 30 30 31 32 34 35 36 40 41 45 48 50 51 52 49 48 45 45 48 51 55 54 57 56 55 55 54 58 60 61 61 60 60 60
26 25 24 24 21 22 23 15 21 18 25 23 27 29 29 28 29 30 32 33 34 35 37 39 41 44 46 46 43 40 38 41 43 47 51 51 50 52 50 48 48 50 54 56 56 55 58 60 60
22 23 10 15 19 20 17 8 12 17 21 22 23 25 27 29 29 29 31 32 34 34 34 35 25 37 39 40 38 35 36 39 42 45 46 47 47 46 47 46 46 46 47 48 49 51 53 55 57
14 10 13 14 14 16 14 13 11 14 17 20 20 19 23 27 27 29 30 32 34 34 33 33 33 34 36 37 34 39 41 36 38 41 40 43 41 41 40 41 42 42 39 39 37 37 43 44 47
14 16 17 17 14 16 17 17 17 16 15 15 16 20 20 22 26 28 31 33 33 35 34 33 33 34 35 33 36 35 36 36 37 36 36 39 37 37 37 37 40 39 36 37 38 38 36 36 39
20 20 19 18 19 21 21 20 17 15 15 16 18 21 22 23 25 29 33 35 34 36 34 32 33 34 32 31 31 32 34 35 35 34 35 37 34 36 38 34 35 37 36 38 40 38 38 35 35
20 21 20 20 20 23 21 18 16 16 18 18 20 22 24 25 26 29 32 35 37 35 35 32 32 33 33 30 31 32 33 31 33 34 37 38 38 37 36 36 35 36 35 39 39 39 36 36 37
21 23 22 21 23 22 21 16 15 18 19 20 23 25 24 25 25 28 31 34 37 38 37 34 31 32 33 34 29 31 33 33 30 31 33 37 40 39 39 38 37 38 38 36 39 38 37 33 37
21 24 24 24 23 18 21 11 15 16 16 19 22 25 26 27 27 27 29 32 36 38 39 37 35 32 32 34 32 35 29 27 29 31 29 29 34 37 38 38 37 38 38 39 40 35 40 40 35
24 26 26 26 25 23 19 16 15 17 15 17 21 24 27 28 28 29 30 31 32 37 39 40 37 35 33 33 37 36 36 35 31 32 34 35 36 36 35 36 37 38 37 39 42 43 43 39 39
26 28 27 26 25 24 23 18 13 16 17 19 21 24 27 28 30 30 31 31 32 37 40 41 38 35 34 34 34 39 39 37 34 36 35 37 36 36 35 31 35 36 36 36 39 42 41 41 40
28 27 28 27 26 23 21 20 20 19 20 20 22 25 27 30 31 32 31 31 32 33 36 38 38 36 35 35 36 39 39 38 37 34 33 31 30 29 31 33 36 32 31 31 33 36 37 37 36
28 27 30 27 23 23 22 19 18 19 20 21 24 26 29 30 33 33 33 34 33 34 34 35 35 34 34 34 35 36 36 35 34 31 30 29 28 28 29 30 29 29 29 29 32 32 34 35 35
29 30 29 28 28 27 23 21 22 22 21 24 25 27 30 32 33 34 35 35 35 35 36 38 36 35 34 34 35 35 35 34 31 30 30 29 28 25 27 28 29 28 29 28 30 32 33 35 36
31 30 30 32 32 25 22 23 22 23 24 24 26 28 31 33 34 34 34 36 37 37 37 40 37 35 34 32 33 33 32 30 29 30 29 28 28 28 27 27 26 26 27 28 29 31 31 34 34
31 31 29 27 29 29 26 24 27 28 30 29 29 30 32 32 34 34 34 35 37 38 37 36 35 34 34 30 32 32 30 28 27 26 26 27 28 26 26 25 25 26 26 27 28 29 30 30 31
29 31 31 31 28 31 32 29 30 31 30 29 30 31 32 33 34 34 35 37 37 37 34 32 33 32 29 29 30 29 28 26 26 26 26 28 27 27 26 26 25 24 24 24 24 25 25 26 27

GFSSGP_sfc_dewp_006.txt.gz
Dewpoint
45 27 31 19 16 12 10 9 12 12 18 34 34 42 45 48 47 49 61 64 65 63 62 60 68 67 68 70 71 71 72 71 71 71 71 71 69 69 69 68 67 67 62 62 66 68 69 69 70
30 22 11 16 14 10 11 12 11 10 13 26 32 42 50 48 53 55 60 63 64 63 62 63 69 68 66 67 68 70 71 71 71 71 70 69 68 67 68 64 63 64 65 64 66 68 68 68 68
36 22 9 11 11 12 16 13 12 9 15 22 31 49 54 51 52 55 61 63 63 63 63 65 68 68 67 67 68 69 69 70 70 70 69 69 69 67 66 66 65 66 68 69 66 66 68 67 67
13 11 8 9 8 12 14 14 13 10 18 20 30 46 54 55 53 57 59 62 63 63 63 67 68 68 67 65 67 68 68 69 70 70 70 70 67 65 63 63 64 67 67 66 64 63 67 67 67
12 11 7 6 5 5 10 13 15 12 26 28 30 49 52 58 59 58 59 59 61 63 64 65 68 68 68 67 68 68 68 68 68 69 69 69 69 68 67 67 68 68 65 61 62 62 65 66 67
10 8 6 4 4 6 12 16 18 22 28 31 46 50 52 58 58 59 58 56 59 62 64 65 67 68 67 67 66 66 67 67 67 67 68 68 68 68 67 67 68 67 66 65 64 65 66 66 66
9 10 5 4 5 6 7 11 14 15 26 27 41 49 51 54 59 59 56 56 56 57 59 62 65 66 66 65 65 65 65 66 66 66 66 67 68 66 65 66 65 63 64 65 65 65 66 65 65
8 5 1 3 3 4 5 10 13 13 12 13 15 33 49 52 59 59 58 57 59 59 58 60 61 64 65 62 63 64 65 65 65 66 66 67 66 65 64 63 63 62 63 61 60 59 63 65 65
7 5 1 1 4 3 4 4 14 16 14 18 20 31 50 55 57 55 55 54 55 53 58 63 61 64 63 62 61 64 65 65 65 65 65 64 65 63 62 62 62 61 60 60 58 57 58 60 62
11 9 7 6 5 8 5 4 10 10 13 18 25 32 44 50 52 50 48 49 49 50 50 55 61 63 63 58 58 65 63 63 63 63 63 63 63 63 62 62 62 61 59 59 58 57 56 56 56
14 9 9 11 15 10 10 9 13 11 12 21 21 30 36 41 43 46 45 43 43 48 50 53 59 63 64 63 63 62 62 63 62 62 62 62 60 61 61 61 61 61 59 59 57 57 57 56 57
15 16 17 19 19 18 19 20 18 17 17 23 24 28 34 37 40 43 44 42 42 45 47 51 59 61 61 60 59 60 58 59 59 60 60 61 60 60 59 59 58 58 59 58 58 57 56 56 57
19 20 22 22 23 21 21 19 20 19 19 24 24 31 33 36 38 40 43 43 46 45 46 49 54 58 60 58 59 58 56 55 54 56 56 58 57 58 58 57 57 57 57 57 58 57 56 56 57
23 22 22 22 20 19 21 18 16 16 20 23 25 30 32 34 35 36 36 37 39 41 45 49 51 55 55 57 57 56 54 52 52 53 55 56 57 57 57 55 55 54 55 56 58 58 58 58 59
23 23 24 23 17 14 19 13 12 19 23 22 22 27 28 29 30 32 35 36 37 41 43 46 48 52 52 53 53 52 49 48 50 52 52 52 54 52 51 51 50 51 52 53 54 54 55 56 58
22 22 12 13 16 17 15 10 12 16 17 20 21 24 27 28 28 30 34 35 39 43 41 43 36 46 48 49 46 45 46 48 49 52 52 50 49 49 49 48 49 48 49 47 46 46 47 51 53
17 13 15 17 15 14 14 14 14 16 14 17 21 21 23 27 28 30 32 36 39 41 40 41 41 40 44 45 44 45 46 46 47 50 48 48 46 45 45 46 48 46 43 43 41 42 41 40 41
18 18 19 19 18 19 20 20 19 19 17 18 19 21 22 23 24 30 33 37 38 43 41 41 41 42 44 43 44 45 45 45 45 45 45 45 44 43 42 44 44 43 42 42 43 42 42 41 41
18 19 18 19 19 20 21 21 19 16 16 20 21 24 26 27 27 34 38 41 40 43 41 40 39 42 40 41 41 41 43 43 44 43 43 44 43 43 43 43 41 43 42 42 41 42 41 41 42
16 18 21 21 22 23 22 21 19 17 19 20 21 25 27 28 28 32 37 41 42 41 41 40 39 40 40 39 40 41 42 41 41 42 44 43 45 43 41 43 40 41 41 41 43 42 40 41 41
18 23 23 22 24 23 21 16 18 17 19 20 24 26 26 28 29 31 37 41 44 43 44 41 39 39 40 40 38 40 41 41 39 39 40 43 44 45 44 43 43 42 42 42 42 41 40 39 40
20 24 25 26 25 21 24 15 15 17 18 20 24 30 31 31 31 32 37 38 42 43 46 44 42 39 39 43 37 40 36 33 34 37 37 37 44 44 43 43 43 43 42 41 42 40 43 41 38
23 27 28 27 27 25 21 16 16 17 15 18 25 27 32 33 34 34 34 36 41 42 46 45 44 42 41 42 42 39 39 38 39 40 40 40 40 40 39 40 42 42 42 42 41 41 41 41 40
27 28 27 27 26 29 23 21 18 16 18 18 21 26 31 33 35 34 36 37 37 43 44 46 45 41 42 42 43 43 40 41 40 40 39 39 39 40 41 38 39 39 39 38 38 38 37 38 38
28 28 31 32 32 29 22 21 23 23 21 21 24 28 33 37 36 37 36 36 39 41 43 45 43 41 42 44 44 42 43 42 41 41 40 38 36 35 36 36 36 36 35 36 35 35 35 35 34
28 28 35 27 25 26 25 20 18 20 21 22 25 31 31 37 38 36 38 40 40 42 42 42 39 39 40 41 42 43 43 41 41 40 38 36 34 34 34 33 34 34 34 35 35 34 33 34 34
28 30 30 31 31 30 27 25 26 24 23 25 27 28 34 35 37 37 38 41 41 42 42 43 42 40 40 42 44 43 42 41 39 38 37 35 35 30 34 34 34 34 35 34 34 33 32 32 33
30 31 30 36 31 24 22 25 24 27 29 31 31 32 35 37 37 37 38 39 40 41 42 44 45 40 38 39 41 38 38 38 36 36 34 33 33 32 33 33 33 32 32 32 32 31 31 32 32
29 30 32 29 32 30 28 26 31 30 32 33 32 33 34 36 37 37 38 39 40 41 40 40 38 37 37 37 38 38 36 36 34 32 32 31 33 32 32 31 30 29 28 29 29 29 29 29 28
28 30 30 34 31 32 32 30 32 33 33 33 33 33 34 36 35 35 36 37 39 40 41 41 38 36 36 36 36 35 34 33 32 32 32 33 32 32 32 30 28 27 27 27 27 27 26 26 26

GFSSGP_sfc_dewp_009.txt.gz
Dewpoint
46 30 34 24 17 15 11 11 12 15 23 46 49 50 51 51 51 51 63 64 63 61 61 65 68 68 69 70 71 71 71 71 72 71 70 71 71 70 69 69 69 69 65 65 65 67 66 68 68
45 31 17 16 15 12 12 12 9 14 22 42 45 41 50 53 59 60 62 64 63 62 64 65 67 68 69 69 70 70 70 70 71 71 71 69 69 69 68 67 64 63 63 65 67 68 65 67 68
43 34 10 13 13 10 13 13 10 15 17 22 48 45 51 52 56 61 63 64 63 62 65 66 67 66 67 69 69 69 70 70 70 70 70 70 67 66 66 68 65 65 65 67 65 65 67 67 68
28 17 11 7 15 10 13 14 14 17 18 42 52 51 56 59 57 61 63 63 62 64 65 67 67 67 67 69 69 69 69 69 69 69 70 69 67 65 64 63 63 65 67 68 67 62 65 67 66
24 13 8 6 6 10 13 14 16 26 41 47 49 51 54 59 59 59 61 62 63 64 65 66 67 67 68 67 67 68 68 67 69 69 69 69 68 67 66 66 67 68 65 65 65 65 62 62 65
11 11 6 6 7 8 8 11 14 21 31 43 48 51 54 59 59 59 59 61 62 63 64 65 67 67 67 66 66 66 66 67 67 67 69 68 68 68 68 68 67 68 65 62 61 62 62 61 62
9 9 8 4 6 6 9 10 11 14 17 30 46 47 51 51 59 60 57 55 59 62 64 65 66 66 65 65 64 64 65 66 66 66 66 67 66 66 66 65 65 66 65 66 65 65 65 66 65
7 8 5 4 4 5 7 11 14 14 11 24 42 46 45 47 59 60 57 57 56 58 59 63 64 64 63 62 63 64 64 64 65 66 66 65 65 64 64 63 64 64 63 63 62 63 64 64 64
8 8 6 4 3 5 4 7 16 17 16 19 29 49 51 56 59 58 56 56 53 54 58 57 59 63 62 60 62 63 64 64 65 65 64 64 63 63 61 62 62 61 61 60 58 59 61 59 59
13 7 5 12 12 9 10 8 11 10 11 21 32 51 54 56 57 55 54 52 47 47 52 56 57 59 60 60 61 62 63 63 63 63 62 62 63 62 60 62 62 61 60 59 58 57 56 55 56
15 12 17 18 20 16 16 20 17 13 15 24 26 39 50 53 53 51 43 43 44 45 49 53 58 60 60 59 62 62 60 61 60 60 61 58 59 60 60 60 60 59 58 57 57 56 56 54 55
17 19 21 20 20 20 22 21 21 18 20 24 24 35 36 39 41 42 40 38 39 45 48 53 56 57 57 57 58 58 59 58 58 58 59 58 59 58 58 57 57 57 57 56 56 55 54 53 55
21 21 23 22 22 22 24 20 21 19 19 24 26 32 35 37 39 39 35 35 37 39 44 50 54 55 56 54 54 53 52 52 52 54 53 55 56 57 56 56 54 56 56 56 55 55 54 54 55
27 24 24 23 22 20 22 22 20 16 20 23 26 31 37 34 36 36 32 33 34 35 44 47 50 52 53 54 52 51 49 47 49 51 53 54 54 54 54 54 54 53 54 54 54 53 55 55 57
25 22 25 23 20 15 17 14 14 17 23 22 24 28 29 31 34 32 33 32 34 36 42 44 45 49 49 52 50 48 47 48 48 50 49 49 52 48 48 48 49 48 51 52 51 51 51 52 54
26 26 19 22 19 19 15 12 14 16 23 22 21 24 27 28 29 30 32 33 33 36 40 40 41 47 46 48 47 46 42 44 47 49 49 47 47 48 47 47 46 43 45 45 39 41 39 42 41
21 18 19 20 18 18 18 17 21 22 18 19 21 21 25 26 28 28 32 31 34 36 37 38 33 40 41 40 41 42 42 43 45 49 47 46 45 44 41 45 44 41 43 41 40 39 40 38 38
18 18 19 20 19 20 20 21 22 22 21 18 19 21 22 24 26 28 31 33 35 36 35 37 35 34 39 39 38 40 40 39 43 46 46 45 44 42 39 43 43 41 40 41 40 38 40 40 39
19 18 19 22 23 24 22 22 22 21 18 19 21 24 25 26 30 33 34 34 36 37 34 34 35 36 36 35 36 36 39 40 40 39 43 43 42 40 38 39 41 42 40 40 39 40 38 37 39
20 22 24 24 26 26 24 22 22 19 19 21 25 24 25 26 28 32 35 35 33 35 36 35 34 36 36 36 36 36 37 38 39 40 41 42 42 41 40 40 38 38 38 37 38 41 39 40 38
21 25 25 25 27 27 24 22 18 21 20 24 25 25 25 25 26 28 30 34 36 36 36 37 36 35 37 36 35 36 38 37 35 37 39 40 41 42 41 40 41 39 39 38 40 38 37 36 39
20 27 27 27 27 24 26 20 18 19 19 23 24 26 27 28 29 30 29 29 35 37 39 38 38 37 37 38 35 34 33 33 34 35 36 38 42 42 42 42 41 41 41 39 40 41 40 39 37
24 29 28 29 28 26 24 19 16 20 20 22 26 28 29 30 30 30 31 33 33 37 40 41 40 40 39 38 38 36 35 38 37 38 37 38 41 42 41 40 40 40 41 39 37 36 37 39 39
29 31 30 32 28 25 26 23 21 20 19 22 27 29 30 30 31 33 34 34 34 37 38 41 40 40 41 40 40 40 37 36 37 37 38 38 40 38 37 36 36 36 35 34 34 33 33 32 34
29 30 27 25 25 25 25 24 23 25 24 25 27 27 28 29 33 32 32 34 36 40 36 39 40 40 41 41 41 41 40 38 36 38 38 35 36 35 33 33 34 33 34 34 34 33 33 33 33
29 29 27 22 24 25 27 24 23 26 24 26 27 26 31 31 33 34 36 36 37 37 37 38 39 40 40 41 42 42 42 41 38 39 39 36 34 35 34 34 35 34 34 35 36 34 32 33 33
30 31 31 28 28 26 28 27 24 28 30 31 31 31 31 32 35 35 36 38 38 39 39 41 41 41 41 40 39 40 42 40 38 35 34 35 34 32 34 35 34 36 37 37 34 35 33 33 33
30 33 29 30 24 24 25 26 25 30 30 31 33 32 34 35 36 36 36 38 38 39 40 41 40 39 38 36 37 36 37 34 35 35 33 33 33 34 35 37 38 37 35 33 32 31 32 32 32
30 30 32 33 31 29 27 28 31 31 31 33 32 33 35 35 35 35 36 37 39 40 41 41 41 41 35 35 36 35 34 32 32 32 32 32 33 34 36 36 35 33 31 30 30 30 30 30 30
28 32 32 31 32 30 30 30 32 33 34 32 33 34 35 34 36 36 37 38 39 40 41 41 41 41 34 34 34 34 32 30 30 30 31 32 32 33 32 33 31 30 31 30 30 29 28 27 26

GFSSGP_sfc_dewp_012.txt.gz
Dewpoint
45 35 31 21 14 13 11 10 13 20 43 51 53 50 50 53 51 48 63 62 61 61 64 65 68 69 70 71 71 71 71 72 72 71 70 70 71 70 70 69 69 66 65 65 67 67 68 67 67
42 31 16 16 13 11 11 11 12 28 48 47 46 53 54 56 60 61 61 61 61 62 64 65 68 69 70 70 70 70 70 70 71 71 71 70 70 70 68 66 65 63 63 67 68 67 66 67 67
34 32 9 12 12 11 12 13 11 36 45 43 51 54 56 54 60 61 63 62 62 63 65 65 66 68 69 69 69 69 69 69 70 70 70 69 69 68 67 66 65 65 65 66 66 67 67 67 65
27 14 10 6 8 12 14 14 17 23 46 51 52 53 57 58 59 63 63 63 63 63 63 65 65 66 69 69 69 69 69 69 69 70 70 68 67 66 64 64 64 66 66 68 66 67 67 66 64
20 12 7 4 7 12 9 14 30 41 46 48 48 49 54 58 62 63 62 63 63 63 64 65 66 66 67 68 68 68 68 68 68 69 69 69 68 67 67 67 66 67 66 65 65 66 66 66 63
10 10 7 6 7 8 8 13 19 34 46 47 47 50 52 59 59 61 62 63 64 63 65 65 66 66 66 66 66 66 67 67 67 68 68 68 68 67 68 67 68 67 64 62 61 62 63 63 64
8 7 7 5 6 7 10 12 13 12 15 38 47 44 51 52 59 59 61 62 64 63 64 64 65 66 65 65 64 64 65 66 66 67 67 66 66 66 66 66 66 66 66 66 66 63 63 65 64
10 7 4 4 4 5 4 12 15 13 11 44 47 43 42 50 57 58 57 60 61 63 64 63 64 64 62 62 64 64 64 64 65 66 66 65 65 65 65 65 65 64 64 63 64 65 65 64 63
9 7 7 9 7 9 8 12 15 16 16 24 44 45 47 50 59 57 56 56 56 60 61 63 63 63 61 59 61 64 64 64 64 65 65 63 62 62 61 63 63 62 61 60 59 59 60 59 59
10 8 15 13 10 11 14 15 12 10 19 33 48 53 56 58 57 57 55 52 49 54 54 56 59 61 61 59 60 61 63 63 63 63 63 63 62 60 61 61 62 60 60 59 58 58 57 55 54
29 17 17 19 19 18 21 21 20 15 20 32 47 53 55 56 55 56 54 48 46 48 53 56 58 59 58 59 61 62 61 62 61 61 61 61 60 60 59 59 59 57 58 56 56 55 54 53 54
17 21 20 20 21 21 21 22 21 33 18 25 50 53 54 54 54 52 45 44 44 46 50 55 57 57 56 58 61 60 59 60 59 59 59 58 58 57 57 57 57 56 56 54 54 54 54 52 52
21 22 22 22 22 21 23 20 20 20 21 25 37 41 48 49 48 43 40 40 44 45 49 54 56 56 55 54 53 52 53 54 54 54 54 56 57 56 56 56 53 54 55 55 54 57 57 55 54
27 25 23 23 23 24 22 22 21 20 21 23 33 33 35 37 39 36 35 37 39 42 47 52 53 54 54 52 52 50 49 48 50 52 53 54 55 55 56 54 54 53 54 53 52 51 51 51 53
26 23 23 24 22 17 17 14 14 16 22 23 29 31 32 33 36 36 33 34 34 40 44 49 50 51 50 52 50 49 47 47 49 50 50 50 52 49 52 50 51 51 52 52 49 48 46 46 47
26 23 20 22 23 18 14 12 14 18 22 22 23 27 31 32 33 34 34 33 34 38 43 45 47 49 49 50 49 48 47 46 47 49 49 47 49 48 47 47 46 45 47 47 39 39 37 38 39
21 17 19 21 20 21 17 16 20 23 22 22 22 23 27 27 28 30 32 33 33 38 41 40 42 46 45 46 46 43 43 41 45 49 48 47 47 46 44 47 45 42 43 41 39 38 38 37 37
18 17 17 21 21 25 22 21 23 23 21 20 20 21 22 24 25 28 31 34 36 37 38 38 33 40 40 39 39 40 41 40 43 48 47 47 46 44 41 44 43 41 41 41 40 37 39 39 37
21 20 21 23 24 26 24 24 25 21 20 22 24 25 27 30 33 34 34 36 35 35 35 36 34 34 38 36 36 36 38 39 40 42 46 46 44 43 40 41 43 42 40 40 39 39 38 37 38
21 24 24 25 26 28 26 25 21 19 19 24 25 25 26 28 32 33 33 33 34 34 33 33 33 35 36 35 35 35 35 37 38 40 41 45 44 42 40 40 41 41 41 39 40 40 39 39 39
21 25 25 25 28 28 26 23 18 20 24 24 25 25 25 27 29 32 33 32 33 34 34 35 34 34 36 36 35 36 37 37 37 37 39 41 43 43 41 40 41 39 40 39 37 38 37 36 39
21 25 27 27 27 23 27 23 21 19 21 24 25 25 25 27 29 28 29 31 35 35 36 37 37 36 36 37 35 34 33 33 34 35 36 39 41 41 42 41 41 40 41 39 40 39 39 38 36
23 27 29 29 28 26 25 21 18 19 19 22 26 28 29 29 30 30 31 33 32 35 37 39 39 39 39 39 38 37 34 35 36 37 35 36 39 41 42 42 42 42 41 38 34 33 31 35 34
30 30 31 31 28 25 25 23 20 22 23 27 29 28 30 30 31 32 33 34 36 36 37 39 39 39 40 41 40 39 38 37 37 37 38 38 39 39 40 38 37 36 36 35 34 33 32 32 33
30 30 26 23 24 23 27 25 22 25 26 26 27 29 30 30 32 32 32 33 35 36 37 38 39 39 41 41 41 41 41 40 39 37 37 39 38 36 34 34 35 35 36 37 37 38 37 36 34
29 30 26 22 24 25 28 24 24 29 31 31 27 29 30 30 32 34 36 36 37 38 39 39 40 41 40 41 41 41 42 43 42 41 39 38 36 36 35 36 38 38 39 39 40 39 38 37 34
30 29 31 27 28 26 27 28 27 27 31 33 33 33 33 34 36 35 37 38 38 39 40 40 40 40 40 41 41 39 39 41 41 37 36 36 35 35 37 38 40 41 41 40 39 37 35 35 34
31 32 28 29 20 25 27 26 26 29 32 33 33 34 35 36 36 36 37 38 39 40 40 42 41 40 41 41 37 36 36 36 35 34 33 34 36 38 39 41 41 41 39 37 35 35 34 33 32
30 31 31 32 30 26 25 28 31 31 33 34 33 34 34 35 36 37 38 39 39 40 41 41 41 41 41 38 35 35 32 33 32 32 33 33 36 38 39 40 38 37 36 35 34 32 32 31 30
33 32 33 27 29 29 30 28 31 33 32 34 34 34 36 36 38 39 39 40 40 39 40 40 41 41 38 34 34 34 32 31 30 31 32 33 34 35 36 36 34 34 34 32 31 30 29 29 27

GFSSGP_sfc_dewp_015.txt.gz
Dewpoint
50 35 31 22 13 12 14 9 13 29 50 53 52 50 51 54 48 45 63 61 62 62 64 66 69 70 71 71 71 71 72 72 71 70 70 71 71 70 70 69 68 66 66 65 67 68 68 68 68
43 30 16 17 12 9 9 12 26 44 53 54 53 54 54 55 60 61 60 60 60 62 64 65 68 69 70 70 70 70 70 70 71 71 71 70 70 70 68 66 64 64 64 66 66 67 67 68 67
35 24 9 13 12 11 11 14 41 46 49 44 53 55 56 56 60 61 62 61 62 63 63 64 68 68 69 69 69 69 69 70 70 70 70 69 68 68 67 66 66 66 65 65 65 66 65 67 67
25 13 10 9 9 11 14 20 37 44 47 51 54 53 57 59 60 63 62 62 62 62 63 64 66 68 68 68 68 68 68 68 69 70 69 68 67 66 63 63 64 66 66 67 65 66 67 66 65
14 10 7 5 7 11 22 39 40 43 46 47 48 49 55 59 63 63 62 61 61 61 63 63 65 67 68 68 67 67 68 68 68 68 69 68 68 68 67 67 65 67 66 65 66 65 67 66 63
10 9 6 5 6 9 11 27 36 44 45 45 47 48 52 58 62 62 63 62 61 62 64 64 65 65 65 66 66 66 67 67 67 68 68 68 68 68 67 67 68 66 63 61 61 62 65 64 64
8 6 6 5 8 8 12 16 12 24 36 37 46 46 52 55 59 62 63 63 62 63 63 64 64 65 65 64 64 65 66 66 67 67 67 66 66 66 66 66 66 66 66 66 64 62 63 63 64
10 7 4 4 5 4 6 13 14 13 20 46 47 42 51 54 59 61 62 63 63 62 63 62 63 63 62 61 64 64 64 65 65 66 65 65 64 64 65 65 65 64 63 63 64 64 64 63 63
10 9 9 7 7 13 12 13 15 16 34 33 47 43 45 55 58 57 57 57 59 62 62 62 62 62 61 59 61 64 64 64 65 65 64 63 62 61 61 63 63 61 61 60 59 59 58 57 57
10 11 14 13 10 12 15 22 14 20 38 45 46 52 52 58 57 55 55 55 57 59 59 62 62 62 61 59 59 61 62 62 62 62 63 62 60 59 60 61 61 61 60 59 58 58 57 55 54
17 16 15 18 17 16 21 20 20 17 32 44 40 49 55 57 56 55 54 53 54 56 55 56 58 59 60 60 59 60 61 61 61 60 60 60 60 59 58 58 58 57 58 56 55 54 54 52 52
17 21 19 19 21 21 21 33 23 32 18 40 44 51 56 56 54 55 54 49 47 49 53 55 58 57 55 59 60 60 60 60 59 59 59 58 57 57 57 57 57 55 55 54 53 53 54 52 53
20 21 21 22 22 21 23 19 19 19 20 26 49 53 54 54 52 54 51 49 45 46 50 54 56 56 54 56 55 56 56 58 57 56 55 57 57 55 55 55 54 54 54 54 53 53 53 52 53
26 24 23 24 22 23 23 21 21 21 21 26 48 51 52 51 52 47 42 45 44 45 49 53 55 56 53 52 52 51 51 51 52 52 53 55 56 55 55 54 53 53 53 52 51 50 49 48 49
27 23 24 24 23 21 20 13 14 18 21 24 40 48 46 46 45 41 41 40 43 44 48 52 53 54 53 52 51 49 48 48 49 51 51 53 53 52 54 53 52 52 51 50 48 46 41 41 42
22 21 18 20 23 18 15 13 14 18 19 22 28 32 34 37 38 37 37 37 37 42 46 49 50 50 50 52 50 49 48 47 47 49 50 49 52 49 49 48 49 48 50 48 39 39 36 37 38
20 16 17 19 24 25 18 16 18 23 21 21 22 25 30 31 30 32 35 33 35 40 44 45 46 49 48 50 49 47 46 44 45 48 48 48 48 49 47 47 46 44 44 43 39 38 37 36 36
17 17 18 19 22 27 25 22 24 25 22 21 22 22 23 25 26 29 30 34 34 40 43 42 42 47 46 43 42 41 41 42 42 44 48 48 47 47 43 45 46 42 42 41 39 37 39 37 37
20 23 23 23 24 27 26 26 27 25 21 22 23 22 28 30 33 33 33 35 36 39 38 37 33 40 39 38 37 37 38 39 40 41 45 47 47 46 43 43 44 42 41 40 40 38 37 38 38
23 24 22 25 26 28 27 25 19 19 20 24 27 27 28 31 32 34 35 34 34 35 35 36 34 33 36 36 35 35 36 37 39 40 41 45 46 46 43 41 42 43 41 40 40 39 39 38 39
21 24 23 24 27 28 26 23 19 21 24 24 25 26 27 30 31 32 32 33 33 33 33 34 34 34 36 36 35 35 36 36 37 37 38 40 45 46 44 41 40 41 42 40 39 39 38 37 38
21 24 26 26 27 23 26 21 20 19 21 24 25 25 26 27 29 30 32 33 33 33 34 35 36 36 36 37 36 34 33 33 35 36 36 37 41 43 44 42 40 39 41 40 39 39 38 38 36
25 29 28 29 28 27 24 20 22 23 19 25 28 27 28 29 29 30 30 30 32 34 35 37 39 40 40 40 39 38 37 37 37 38 37 37 38 42 42 43 41 41 42 41 38 35 32 34 32
30 30 30 30 28 23 25 23 22 23 24 27 28 28 30 29 29 31 33 33 34 36 37 38 39 39 40 41 41 41 40 40 39 39 39 39 39 39 41 41 41 38 36 35 35 35 34 34 35
30 30 24 21 24 23 27 23 24 26 27 27 26 28 29 30 30 32 33 33 36 37 39 39 40 40 41 41 41 41 41 41 41 41 41 39 38 36 35 36 36 37 38 39 40 40 39 38 37
29 30 25 18 23 25 27 23 24 27 31 30 31 31 33 33 32 36 36 37 38 39 40 40 40 41 41 41 41 42 41 40 41 42 41 40 36 35 37 38 39 40 40 40 41 40 40 41 40
30 29 31 27 28 25 27 28 28 29 32 34 33 34 35 35 35 36 37 38 39 39 39 40 41 41 41 41 42 40 37 37 39 37 37 36 36 37 38 40 41 41 41 42 42 40 38 38 37
30 32 28 29 18 23 27 27 27 29 32 31 33 34 35 36 37 38 38 39 39 39 40 41 41 40 41 41 39 34 35 36 36 34 34 35 36 38 40 40 41 41 41 41 40 37 35 35 34
31 31 31 31 29 26 23 27 32 30 32 32 34 35 35 36 37 39 39 40 40 40 40 40 40 40 41 39 34 35 36 33 32 32 34 35 37 38 39 37 38 39 38 37 35 35 33 32 31
32 32 32 29 28 28 27 27 31 31 33 35 36 37 37 36 39 40 40 41 40 40 40 40 40 41 37 33 33 34 34 31 31 32 32 34 35 36 34 35 36 36 35 34 32 31 30 29 28

GFSSGP_sfc_dewp_018.txt.gz
Dewpoint
49 34 29 22 12 11 9 11 13 39 49 53 53 49 51 54 47 40 62 62 62 63 65 67 69 70 70 71 71 72 72 72 71 71 70 70 70 70 69 68 66 65 66 66 67 66 67 67 67
47 29 16 17 11 9 11 17 34 45 53 54 53 53 54 53 59 59 58 60 61 62 63 66 69 69 70 70 70 70 70 71 71 71 70 70 70 70 68 65 64 63 65 65 65 66 67 67 67
34 16 10 14 13 12 14 21 47 51 52 47 53 56 55 55 61 61 61 60 62 62 63 66 68 68 69 69 69 69 69 70 70 70 70 69 69 68 67 66 65 66 65 65 65 66 66 67 67
23 12 11 16 19 17 18 24 47 48 48 52 55 53 57 59 61 62 61 61 61 61 61 65 67 67 68 68 68 68 68 69 69 70 69 68 67 66 64 63 64 66 66 66 65 66 67 67 65
13 10 8 8 11 18 31 33 41 44 46 47 49 51 54 59 62 61 61 61 60 60 60 62 66 67 68 67 66 67 67 68 68 69 69 68 68 68 67 66 65 67 66 66 67 66 67 67 65
9 10 7 6 8 9 17 31 42 43 44 46 50 50 52 59 61 62 62 60 61 61 62 62 65 65 66 66 66 66 66 67 67 67 68 68 67 67 67 67 67 66 64 63 62 62 65 64 63
6 7 6 5 7 10 13 15 32 37 39 39 48 48 52 57 61 62 62 60 61 62 62 62 62 63 64 64 64 65 65 66 66 66 66 66 66 66 66 66 66 66 66 66 65 63 64 64 64
9 7 4 11 4 4 8 13 13 20 28 46 45 50 51 56 60 62 62 61 60 61 61 61 61 61 61 60 63 63 64 65 65 66 65 64 64 64 65 64 64 63 62 62 62 61 60 59 59
11 9 7 5 7 16 15 25 16 22 38 36 47 46 49 57 59 59 58 59 59 61 61 61 61 61 59 58 60 63 64 64 65 65 64 62 61 60 60 63 62 61 61 60 59 59 58 57 56
12 10 20 12 9 29 23 19 12 26 40 44 45 50 55 57 58 58 58 59 58 60 61 61 61 61 60 59 58 60 61 61 61 62 61 61 59 58 59 61 61 61 60 59 58 58 56 54 52
29 15 16 18 16 16 20 20 19 31 37 39 36 48 56 56 56 57 58 58 58 59 59 60 61 60 60 60 58 59 60 60 60 59 61 60 60 59 58 57 57 56 58 55 55 53 53 51 51
17 19 18 19 21 21 20 32 22 23 17 32 41 52 56 56 55 55 56 55 55 56 57 57 57 58 57 59 59 59 59 59 59 59 59 59 58 57 57 56 56 55 54 53 53 53 53 52 52
20 22 21 23 21 21 23 20 19 19 20 26 46 53 56 57 55 55 55 53 52 53 52 54 56 57 55 58 58 58 58 59 58 58 57 57 57 56 56 55 54 54 53 53 53 53 52 52 51
26 25 24 24 23 24 22 21 24 20 21 24 47 50 54 55 55 53 53 53 47 48 50 52 55 56 54 55 54 56 55 56 55 55 54 54 56 55 54 54 53 53 53 52 51 49 47 47 47
26 23 21 22 23 19 27 15 14 20 20 22 40 49 51 52 51 50 50 48 48 46 48 51 54 55 53 52 52 51 50 50 51 52 52 53 55 54 54 53 52 53 52 50 49 47 42 40 41
20 19 16 20 23 20 16 17 16 17 20 20 24 44 49 49 48 47 45 44 44 44 47 51 52 53 53 52 51 50 48 48 47 49 50 50 52 51 52 52 52 52 51 50 43 39 37 37 38
19 17 18 19 25 26 25 22 21 22 24 23 21 28 39 40 36 32 37 37 39 42 45 49 49 50 50 50 50 50 48 47 46 46 48 49 49 51 48 49 49 49 47 48 41 38 37 36 36
20 15 20 19 23 26 27 24 26 27 25 22 22 22 27 30 29 30 30 35 36 39 44 46 46 48 48 47 45 43 42 42 43 44 46 48 48 48 48 47 47 46 44 44 40 38 39 37 37
19 21 22 23 25 27 27 26 23 20 23 24 22 22 23 27 32 34 33 34 35 39 42 43 41 43 44 41 39 38 39 39 40 41 42 45 47 47 47 45 45 45 42 42 41 39 37 38 39
22 22 19 24 26 28 27 25 21 23 24 25 27 28 29 30 32 34 34 36 37 38 40 40 37 35 41 38 36 36 36 37 39 40 40 42 46 47 46 45 43 44 43 41 40 39 38 38 39
22 21 21 23 26 27 25 21 21 20 24 25 25 26 29 30 31 33 33 34 34 35 36 36 36 35 35 36 36 35 35 36 36 36 37 38 41 43 46 45 44 42 43 42 40 39 38 37 38
23 23 25 25 26 23 26 19 22 23 22 25 25 25 26 28 30 32 32 32 32 33 34 34 36 37 37 37 36 36 34 34 36 37 37 36 39 41 43 45 44 42 42 42 41 40 39 37 37
25 30 30 28 27 27 24 19 20 24 22 25 26 27 28 28 28 28 29 30 33 35 36 38 39 40 41 40 40 40 39 40 41 40 40 40 40 39 40 42 44 43 41 42 41 39 38 36 36
30 31 28 29 27 23 25 22 22 23 24 26 28 28 29 29 30 31 33 34 35 38 39 40 40 40 41 41 41 41 40 41 40 39 41 41 41 40 39 40 41 40 37 36 35 36 36 36 37
30 28 21 21 23 22 27 23 25 27 27 29 32 33 34 34 31 35 36 37 39 39 40 40 40 40 41 42 42 42 41 39 38 38 39 40 40 36 36 37 38 39 39 39 39 39 39 40 40
29 29 23 14 22 25 27 22 25 30 32 33 34 35 35 35 36 37 38 38 39 39 39 40 41 41 41 41 42 41 38 37 37 38 39 39 37 36 38 39 39 39 40 40 41 41 41 42 41
30 28 31 26 27 25 26 28 28 30 33 33 34 34 35 36 37 37 38 39 39 39 40 40 40 41 41 41 41 39 36 36 35 36 36 36 36 38 39 39 39 39 41 41 41 40 39 39 38
30 31 27 28 18 21 25 26 25 30 31 33 34 35 36 36 37 38 39 40 40 40 40 41 40 40 40 41 38 34 35 35 35 35 35 35 36 38 38 38 38 38 39 40 40 39 39 37 37
31 30 31 30 29 22 23 26 31 30 32 33 35 37 37 36 37 39 39 40 41 41 41 41 40 40 41 38 34 34 34 35 33 33 34 35 37 38 38 38 37 37 36 38 38 37 35 33 32
33 31 30 25 25 27 25 25 31 32 34 36 37 38 39 38 38 39 40 41 41 41 41 41 41 41 39 35 34 33 34 33 31 32 33 35 35 36 34 35 35 35 34 34 32 31 30 29 28

GFSSGP_sfc_dewp_021.txt.gz
Dewpoint
46 31 29 24 17 18 13 19 17 45 48 53 52 47 49 55 46 41 63 62 62 64 66 67 70 70 70 71 72 72 72 71 71 71 71 71 71 70 69 67 64 65 66 66 66 66 67 67 67
40 23 22 21 19 24 29 23 26 48 53 54 53 54 53 52 60 60 60 61 60 62 64 67 69 69 70 70 70 71 71 71 71 71 71 70 70 69 68 65 64 65 65 64 65 66 67 67 67
30 14 18 18 17 21 34 34 48 52 50 49 53 56 56 56 60 60 60 59 60 60 63 66 68 68 68 68 69 70 70 70 71 71 70 70 69 68 67 66 65 65 66 65 66 67 67 67 67
20 16 17 24 23 20 27 44 50 49 48 54 54 50 57 59 60 62 59 60 59 60 62 66 67 67 67 68 68 67 68 69 70 70 69 68 67 66 64 64 64 65 66 66 66 67 67 66 65
15 17 21 23 26 30 35 45 50 46 46 50 50 52 55 61 62 60 60 60 58 59 61 64 66 67 68 67 66 67 68 67 68 68 69 68 68 68 67 64 65 67 65 64 65 65 67 65 64
13 16 19 22 19 14 30 40 42 43 45 48 51 51 55 61 61 61 61 60 59 57 60 62 65 66 66 66 66 66 67 67 67 68 67 67 67 66 66 67 66 66 66 65 63 64 64 64 64
12 13 9 9 12 13 17 14 38 41 43 41 49 49 56 61 61 62 62 60 60 59 60 61 62 63 64 64 65 65 65 66 66 66 65 65 66 66 66 66 65 65 65 65 65 64 63 63 62
12 11 7 6 6 7 8 14 17 24 34 45 46 46 53 58 62 62 62 60 60 61 61 62 63 62 62 62 63 64 65 65 65 65 64 64 64 64 64 64 63 63 63 63 62 61 60 59 59
13 11 7 6 8 12 15 13 16 29 41 36 44 48 49 59 62 62 61 60 61 61 62 63 62 63 62 60 61 63 64 65 65 65 64 63 63 62 61 63 62 61 60 60 59 59 58 56 56
15 14 12 11 10 15 18 13 13 26 36 41 44 50 55 60 61 61 60 60 60 61 62 62 64 64 63 59 61 62 62 63 64 64 64 63 64 62 61 61 61 61 60 59 58 57 55 52 53
20 17 17 17 14 19 21 20 19 28 26 33 31 47 57 59 60 60 59 59 60 61 62 63 64 64 64 63 61 61 61 63 63 64 64 64 63 63 62 61 61 62 59 58 57 57 57 56 57
20 19 19 19 21 21 18 20 20 25 18 26 38 52 57 58 59 60 60 59 59 61 62 63 64 63 63 62 62 61 61 62 62 63 63 64 63 64 63 61 61 61 60 59 58 59 59 58 56
23 21 21 22 20 20 22 20 19 20 22 26 42 55 56 57 57 59 59 60 59 59 61 61 60 59 60 60 61 62 62 62 62 62 62 62 62 62 61 61 60 60 59 57 58 58 56 55 53
25 24 24 23 23 21 22 22 21 20 20 29 45 52 56 57 56 57 57 57 56 58 59 57 57 59 59 59 61 61 62 61 61 61 61 61 61 61 59 59 58 58 57 57 58 55 50 48 48
25 20 21 24 23 21 21 19 16 18 19 22 38 47 54 56 57 55 56 56 56 54 56 54 56 58 59 57 58 58 58 57 58 59 60 59 58 59 59 58 58 57 57 58 55 52 49 43 43
20 21 17 20 25 25 23 20 21 22 22 22 25 33 48 53 55 54 53 53 53 53 51 52 52 56 58 56 55 54 53 53 53 53 54 56 57 57 57 56 57 57 57 56 54 51 46 41 40
19 14 17 21 26 27 26 23 25 25 27 27 26 25 36 48 49 44 41 46 47 49 50 51 54 54 55 55 53 54 54 52 52 52 50 53 54 55 55 53 54 57 56 55 54 49 45 41 39
18 17 20 21 23 28 27 26 26 22 24 24 24 24 26 37 43 35 35 38 41 48 49 50 52 53 53 52 52 50 50 49 49 48 48 50 50 52 53 52 53 53 52 52 52 50 45 42 40
20 21 22 23 25 27 27 26 22 25 27 29 29 29 27 29 33 35 37 37 40 44 46 48 48 50 49 48 47 46 44 43 43 43 45 46 46 49 51 50 51 51 50 50 51 49 47 43 43
22 21 19 24 26 28 27 23 22 25 25 27 29 30 32 32 33 35 36 38 40 40 44 45 45 42 41 43 42 42 41 40 40 42 44 44 45 47 47 49 48 49 48 50 49 48 44 43 43
25 21 22 23 26 28 25 22 24 22 25 26 27 29 30 32 33 34 36 39 40 40 41 38 39 40 41 42 40 41 42 42 41 41 41 42 44 45 45 46 47 48 48 47 49 48 46 43 42
24 24 27 27 27 23 27 18 24 24 25 27 29 31 30 31 31 32 34 36 39 41 43 43 43 43 43 44 43 44 41 40 41 42 41 42 45 45 45 45 46 47 46 46 46 46 46 45 42
27 30 30 29 28 27 26 20 23 25 25 28 31 32 34 35 34 33 35 38 41 43 44 44 43 43 43 44 44 43 41 41 41 42 42 42 43 44 44 44 44 45 45 46 46 46 45 43 41
31 30 28 30 28 25 26 23 25 25 28 31 33 35 36 36 35 38 39 41 41 44 44 44 43 42 43 44 45 44 42 41 40 41 39 40 40 42 43 41 43 44 43 43 42 41 41 40 39
32 28 24 26 27 25 27 23 27 30 31 33 34 36 37 38 39 39 39 39 41 42 43 42 43 41 43 44 44 44 41 41 40 40 39 39 39 40 40 41 42 41 41 41 42 42 42 42 41
31 30 28 18 23 25 28 24 27 32 33 35 35 36 37 38 39 39 40 41 41 42 43 43 42 41 42 43 44 43 41 39 39 39 39 39 38 39 41 41 41 42 42 42 43 42 42 40 38
30 31 31 28 28 28 26 28 31 33 33 34 35 37 37 38 39 39 41 42 42 42 43 44 43 41 42 43 44 40 40 40 39 39 39 38 39 39 41 41 41 41 41 41 41 40 39 39 39
31 32 29 31 25 21 24 27 25 30 31 33 36 37 38 38 39 39 40 42 43 43 43 44 44 42 42 42 42 37 39 39 39 38 37 37 39 41 41 41 40 39 39 39 39 39 38 37 37
32 31 32 31 31 28 26 24 32 31 32 33 37 38 39 39 39 39 40 41 43 43 43 43 43 43 42 42 38 40 39 39 36 34 36 37 39 41 39 37 36 36 37 37 37 37 36 35 34
33 31 30 28 25 30 30 25 30 34 34 36 38 39 40 40 40 41 41 42 42 41 39 40 43 43 42 39 40 39 39 36 33 34 35 37 36 37 38 39 38 38 36 34 32 31 30 28 27

GFSSGP_sfc_dewp_024.txt.gz
Dewpoint
41 30 30 24 20 26 27 33 41 43 43 49 49 44 46 50 45 45 60 60 57 60 63 66 70 71 72 72 71 72 71 70 70 70 70 70 71 70 69 67 66 67 66 66 65 66 66 67 67
30 20 22 21 22 23 27 34 37 42 48 49 48 46 43 47 55 58 59 59 57 59 61 64 69 70 70 71 71 72 71 71 70 69 69 69 69 68 66 65 66 66 65 65 66 66 68 68 67
24 18 17 21 20 20 24 32 42 46 48 47 46 49 49 48 54 57 60 56 55 57 60 65 68 68 69 69 69 70 70 70 70 70 70 70 69 68 67 66 66 66 67 66 66 68 67 66 65
19 17 25 16 19 27 29 39 43 44 46 46 44 44 53 57 56 57 59 56 54 54 57 65 67 67 68 67 67 67 69 69 70 70 69 68 67 66 64 63 63 66 67 67 66 67 67 65 64
16 21 19 19 26 32 36 41 42 40 42 44 45 45 50 58 61 59 59 58 53 52 55 59 66 67 67 66 66 67 67 68 68 69 69 68 68 68 67 64 66 66 64 64 63 64 65 63 62
17 24 19 21 28 34 38 42 38 34 39 43 42 42 50 60 59 60 59 56 52 52 56 57 65 67 66 66 66 66 67 66 67 67 67 67 67 66 67 66 66 66 66 64 64 64 64 64 64
17 18 18 21 24 25 29 34 31 31 35 36 41 37 51 56 58 59 57 54 53 53 55 57 59 62 65 65 65 65 66 66 66 66 66 65 66 66 66 66 65 65 65 65 64 63 63 62 62
13 13 13 13 11 13 14 19 29 26 28 43 43 34 43 52 59 58 55 54 55 57 57 59 60 59 61 61 64 65 65 66 66 65 64 64 65 64 65 64 64 63 63 63 62 61 60 59 59
13 7 7 8 8 11 13 12 17 31 33 37 39 41 47 55 58 56 54 54 56 57 61 61 59 62 62 60 61 63 64 65 65 64 64 62 61 61 61 63 62 61 61 60 59 58 57 56 57
12 8 9 10 12 10 11 11 16 23 23 28 37 46 52 57 57 55 52 53 54 57 59 61 63 63 63 58 61 62 61 61 62 62 63 61 63 62 59 61 61 61 60 59 58 57 55 54 51
16 10 14 12 14 13 13 14 14 15 16 18 20 38 52 56 56 56 52 50 52 56 58 61 64 65 64 60 59 57 58 60 62 64 63 63 63 63 62 61 60 61 59 56 55 54 51 52 53
14 16 10 14 17 15 13 15 16 16 16 23 28 37 48 51 52 53 50 48 51 54 57 61 63 64 63 57 56 58 57 59 59 62 64 63 60 61 61 59 58 59 57 58 56 54 56 56 54
20 21 22 21 19 21 22 19 19 18 19 23 33 43 45 47 47 49 49 47 49 51 55 61 63 62 58 60 59 61 61 59 60 61 62 63 59 59 59 58 57 56 55 54 55 54 54 53 51
25 23 23 23 23 22 22 21 21 19 20 23 34 38 43 45 45 48 51 51 52 54 56 61 61 59 57 57 60 60 61 59 60 58 59 63 62 59 57 54 53 52 52 52 53 53 52 48 47
25 22 23 23 23 25 21 18 17 22 21 21 30 36 41 44 46 47 48 50 50 52 56 60 59 57 57 56 57 56 55 58 55 54 58 59 60 57 57 53 51 49 51 56 56 54 53 49 45
20 20 15 23 24 25 24 18 21 26 25 24 23 28 40 44 46 47 50 51 53 55 55 57 55 55 56 55 55 53 52 53 51 52 52 55 56 57 55 51 50 51 52 52 51 51 49 48 45
15 9 12 18 24 24 23 18 24 24 24 26 27 28 29 37 45 49 51 52 52 53 54 55 57 56 54 54 53 54 54 52 49 51 49 51 53 54 54 51 51 53 51 51 51 50 50 47 44
12 12 18 16 21 23 24 23 22 25 25 25 26 27 28 32 41 46 46 46 45 49 52 53 54 54 53 53 53 50 50 48 48 46 45 48 47 50 51 49 51 51 50 49 49 51 49 48 45
18 17 17 18 24 26 26 21 23 25 26 28 28 29 30 33 37 37 39 40 41 45 48 50 50 51 50 50 47 45 44 43 42 41 44 47 46 48 49 47 48 49 50 50 51 49 50 49 47
21 19 19 23 25 28 25 21 23 25 27 28 28 30 30 32 34 37 40 43 44 45 46 45 44 43 42 42 43 44 44 42 44 45 47 46 47 47 45 47 47 48 47 49 50 51 49 48 47
24 23 25 24 26 28 25 23 22 24 26 27 29 30 30 32 33 35 38 42 43 44 44 42 43 44 45 45 43 44 44 43 41 42 41 43 44 44 45 45 46 47 47 46 48 49 49 47 47
23 25 29 28 26 18 27 18 23 23 26 29 32 35 36 35 33 35 38 41 45 46 46 45 44 43 44 46 44 45 42 40 42 43 42 41 42 42 42 44 45 47 46 46 46 45 47 47 45
28 32 30 30 28 25 24 19 25 24 26 29 34 36 37 37 37 37 39 41 43 46 47 46 44 44 44 45 46 44 43 42 42 42 43 42 41 40 39 42 45 45 45 45 47 48 48 46 45
32 31 30 31 30 26 27 25 23 24 28 30 34 36 38 39 39 39 40 41 41 45 46 45 43 42 44 44 45 45 43 43 41 40 38 36 36 36 39 40 44 45 45 44 44 45 44 44 44
30 29 26 27 27 25 27 24 29 30 31 33 34 36 38 39 40 39 39 40 42 43 45 43 43 41 41 42 42 42 41 41 39 39 37 38 36 36 39 42 43 43 44 43 43 43 42 42 41
31 30 30 21 21 23 27 21 27 31 32 34 35 36 38 39 40 39 39 41 42 43 44 44 42 41 40 40 40 41 41 40 39 39 39 38 37 38 42 43 43 42 41 41 42 43 42 40 39
31 32 32 30 31 29 23 27 31 32 33 33 34 35 36 38 38 38 39 41 42 43 44 45 42 40 40 41 42 43 41 42 41 40 39 37 39 38 41 42 41 41 42 41 41 41 41 41 40
32 32 31 33 31 19 16 22 22 32 32 33 34 35 37 38 39 39 39 41 42 42 43 44 41 39 41 41 43 41 42 42 41 39 37 38 39 40 40 41 40 39 40 40 41 40 40 38 38
32 32 32 30 32 28 24 17 31 30 32 33 34 37 37 38 39 39 40 41 41 41 40 38 39 40 41 42 42 43 42 41 38 36 36 38 40 39 37 39 39 39 39 39 38 37 36 34 33
32 31 29 31 26 31 29 22 29 30 34 35 35 37 39 38 37 38 39 40 38 37 36 38 40 39 39 38 39 40 40 39 36 36 37 38 37 40 40 39 39 37 35 36 36 32 30 28 27

GFSSGP_sfc_dewp_027.txt.gz
Dewpoint
51 34 27 24 19 21 28 31 34 37 39 43 41 41 41 47 48 50 56 56 59 61 64 66 71 72 72 72 71 71 71 70 70 71 70 70 70 69 67 66 67 67 66 66 66 66 68 67 67
29 17 20 19 18 19 26 32 31 36 40 41 38 36 36 44 53 55 53 55 57 59 61 66 70 70 71 71 71 72 71 70 70 70 69 69 69 68 67 66 66 66 67 67 67 68 68 68 66
37 18 17 14 20 21 25 29 34 37 39 37 37 40 42 47 52 54 53 53 54 57 62 66 68 69 69 70 70 70 70 70 70 71 70 69 68 67 67 66 66 66 67 66 66 68 66 65 64
19 15 19 16 21 22 26 32 35 36 38 37 34 39 50 51 52 54 53 51 53 56 60 66 67 68 68 67 68 69 69 69 70 70 69 68 67 66 64 64 66 67 66 68 67 67 66 64 64
19 17 16 17 23 26 32 34 34 33 34 34 32 36 48 54 55 55 55 50 50 50 55 60 66 67 67 66 66 66 67 68 69 69 69 68 68 68 67 66 66 65 65 64 64 66 64 63 62
15 20 16 20 25 30 33 34 31 30 30 29 30 37 49 55 55 56 55 50 47 49 52 55 65 67 67 66 66 67 67 67 67 67 67 67 67 67 66 66 66 66 65 64 64 65 65 64 64
16 19 19 21 26 28 31 30 26 25 26 28 28 33 48 51 54 54 51 47 46 49 51 54 57 62 65 66 66 66 66 66 66 65 65 65 66 66 66 65 65 65 64 64 64 63 63 62 62
14 17 17 19 18 19 18 23 24 21 26 30 33 27 43 51 54 52 48 47 48 50 51 54 55 57 60 62 65 65 66 66 65 64 64 64 65 65 64 65 64 64 63 63 62 61 60 59 58
11 10 9 8 8 8 10 9 12 20 21 26 30 38 42 52 53 50 48 47 49 51 54 56 55 58 57 55 61 64 65 66 65 64 64 63 60 60 61 63 62 61 60 59 59 58 58 58 59
11 9 8 7 7 7 7 7 13 20 19 23 30 35 46 50 50 47 46 46 49 52 54 56 59 59 59 52 57 58 56 58 59 59 59 57 60 60 57 61 61 61 61 61 60 59 58 57 51
10 9 9 7 8 6 5 6 9 12 15 19 23 32 44 47 48 47 44 44 46 51 51 53 60 60 59 55 53 53 53 55 57 60 60 59 59 59 58 58 61 62 61 57 58 56 53 51 52
9 7 5 7 10 11 9 10 10 10 15 19 23 33 40 43 45 46 45 44 44 49 50 54 59 60 59 53 50 52 52 55 55 57 60 59 56 58 58 55 55 55 53 55 55 53 53 56 54
11 10 9 12 14 16 17 14 11 13 16 18 25 33 39 43 43 44 44 43 45 46 48 53 59 62 55 55 53 55 56 55 57 57 57 58 56 57 56 55 54 53 52 51 52 51 50 52 52
18 19 20 19 20 20 20 17 19 18 19 19 24 30 35 37 40 42 44 43 44 45 49 52 58 61 54 52 56 55 57 55 56 55 55 57 57 57 55 53 51 50 49 49 50 49 50 50 48
20 19 21 21 22 22 21 15 15 18 19 20 25 27 32 36 37 40 44 45 45 46 48 53 58 59 56 53 53 52 51 52 52 51 53 54 55 55 55 52 51 49 50 54 51 51 50 50 48
18 19 17 21 22 23 23 19 17 22 22 22 21 27 31 35 37 39 42 43 44 45 47 51 54 56 58 52 52 50 49 50 49 49 50 52 53 54 54 51 51 51 53 51 50 49 48 48 47
16 14 11 18 20 21 19 18 23 23 23 22 22 23 26 33 38 40 43 46 46 47 48 51 54 57 56 53 51 52 52 50 47 49 48 49 50 51 52 50 50 53 50 51 51 50 51 49 48
10 8 11 12 19 18 17 18 21 24 24 25 26 26 27 28 34 42 47 45 45 49 51 53 53 55 55 53 52 48 48 47 47 45 44 47 47 49 50 49 50 51 49 50 51 53 50 50 50
12 11 12 15 20 20 21 19 22 24 25 26 26 28 30 35 40 41 43 44 43 47 46 51 52 54 51 50 47 45 44 44 43 42 46 48 48 48 50 47 47 50 48 51 53 53 53 52 52
17 18 18 20 21 23 22 19 22 24 26 28 28 30 32 34 36 39 42 44 45 45 46 46 46 46 44 42 44 46 46 44 45 46 46 46 47 47 45 46 45 45 45 49 51 52 50 51 52
22 21 24 22 23 23 23 20 22 24 26 28 29 30 31 32 34 38 41 45 46 46 45 44 44 45 46 46 43 44 43 44 42 43 44 45 46 45 45 44 44 46 47 45 49 49 49 46 48
22 25 26 25 23 19 24 16 22 23 25 30 33 35 35 34 35 38 41 43 46 46 46 45 44 44 44 47 45 47 44 43 44 45 44 44 45 42 40 40 42 44 45 47 47 43 48 48 45
27 30 28 27 26 22 22 15 23 23 25 30 34 35 37 38 39 39 40 42 44 47 47 46 44 43 44 46 47 46 45 44 42 42 42 41 39 39 37 39 42 44 44 46 47 47 46 44 44
30 30 28 29 27 25 20 21 22 22 26 31 34 36 38 38 39 39 40 41 42 46 47 46 44 42 43 44 44 44 44 42 39 39 38 37 38 37 39 37 41 43 43 44 44 46 45 44 44
29 28 28 27 27 26 26 22 28 30 31 32 34 36 37 38 39 39 39 40 42 43 45 45 43 42 42 43 43 43 42 41 40 40 39 40 38 36 37 39 41 41 43 44 43 43 42 42 41
28 28 31 22 23 22 24 17 27 31 32 33 34 35 36 37 39 38 38 40 41 43 44 45 43 41 40 41 42 42 43 40 41 42 41 39 37 36 39 40 43 44 43 43 44 44 42 41 41
30 31 30 29 33 28 18 26 31 31 32 33 33 34 36 36 37 37 39 40 41 41 42 44 43 40 40 41 43 43 43 42 42 42 41 38 38 36 41 43 41 41 41 41 41 42 42 42 40
29 31 31 33 29 20 13 17 19 31 31 33 33 34 36 37 37 38 38 39 40 40 40 42 39 38 40 41 42 40 40 40 40 40 38 37 38 41 41 40 40 40 39 39 39 40 40 39 40
27 30 29 28 29 27 22 18 27 27 29 30 32 34 35 37 38 37 37 39 39 39 39 38 39 39 37 35 35 36 37 37 38 36 36 37 39 38 39 39 39 38 37 36 37 37 35 34 33
29 28 28 30 25 29 30 24 27 26 30 32 31 34 37 37 36 36 37 38 38 37 35 36 36 31 30 30 31 33 35 35 35 37 37 38 37 38 38 39 38 36 35 32 31 31 29 28 28

GFSSGP_sfc_dewp_030.txt.gz
Dewpoint
48 30 32 30 23 21 19 30 34 35 37 39 39 38 45 50 51 50 57 59 63 64 66 69 71 72 72 72 72 72 71 72 71 71 71 71 70 69 68 68 69 68 67 67 68 68 68 68 67
34 33 30 23 20 18 28 31 34 37 36 32 36 34 45 48 52 52 53 58 60 63 65 67 70 71 71 71 72 72 71 71 71 71 70 70 69 68 67 67 67 67 67 67 68 68 68 67 66
46 34 19 20 18 16 27 34 36 34 34 33 36 44 45 48 53 51 54 57 59 64 64 66 69 69 70 70 71 71 71 71 71 71 70 69 68 68 67 66 67 68 67 66 67 67 66 65 64
31 24 18 18 18 26 28 34 32 32 35 34 37 43 48 50 52 51 52 54 57 61 64 66 67 68 68 69 70 70 70 70 70 70 69 68 68 67 66 68 67 66 66 67 67 66 65 64 64
28 22 16 19 24 28 31 31 30 32 31 31 33 44 49 52 51 50 50 51 53 58 61 62 66 67 67 67 67 68 69 69 69 69 69 68 68 68 67 67 66 66 65 64 64 64 64 64 64
18 20 18 19 26 28 31 32 30 31 30 27 34 44 49 53 52 53 49 48 49 53 57 59 66 67 67 67 67 67 67 68 68 68 67 67 67 67 66 66 66 66 65 65 65 65 64 64 63
20 19 19 24 26 28 31 30 25 25 24 25 27 41 49 51 53 52 47 45 49 51 53 57 61 64 66 66 66 66 66 66 66 66 66 66 66 66 66 66 65 64 64 64 64 63 62 61 61
16 16 19 22 23 24 22 23 24 22 27 24 33 37 45 51 52 49 46 46 48 51 52 56 59 60 62 64 65 65 65 65 65 65 64 65 65 66 66 65 64 63 63 62 61 61 60 60 60
13 17 16 15 17 13 12 12 14 20 19 24 35 36 48 51 51 47 46 46 48 50 57 58 57 61 63 62 63 65 65 65 64 64 64 63 63 63 63 63 63 62 61 60 59 59 59 60 60
11 12 8 7 8 7 7 6 14 21 19 25 33 45 50 49 49 46 45 47 49 54 55 59 61 62 60 51 62 63 62 63 64 63 63 63 61 61 58 62 63 63 62 62 61 61 61 60 55
10 10 9 6 9 4 6 6 13 14 16 24 26 41 46 48 47 46 44 46 49 53 55 57 63 63 61 60 58 59 60 62 63 61 61 62 61 63 63 62 61 62 63 61 61 59 58 56 56
8 5 3 7 9 6 5 5 8 12 17 20 27 33 44 45 45 45 43 44 46 50 53 58 61 62 60 58 58 58 57 61 60 62 62 63 61 61 60 59 58 59 59 58 56 56 56 54 56
7 2 6 8 11 15 13 10 10 12 16 20 28 34 40 41 42 44 45 45 46 50 51 56 61 62 61 57 60 60 60 61 61 60 61 61 60 61 59 58 57 56 55 54 54 53 53 54 54
13 12 13 14 17 16 15 16 17 15 17 17 25 32 38 41 42 45 45 45 46 48 52 58 61 64 58 57 58 59 61 60 61 59 60 58 59 60 58 57 55 54 54 53 53 53 54 53 53
16 17 18 19 20 20 18 16 14 18 19 20 23 26 34 36 38 42 44 45 45 48 52 56 60 63 59 57 57 56 56 54 56 56 57 56 56 57 57 56 55 54 55 55 55 54 53 53 52
14 18 17 18 19 21 21 18 14 19 20 20 21 26 28 35 36 40 45 46 47 48 50 54 54 61 61 59 57 55 54 55 54 54 54 55 54 55 56 56 56 56 56 55 54 54 52 52 51
17 15 17 19 18 20 19 18 20 23 23 22 22 24 28 32 36 40 42 45 48 51 52 53 56 59 60 59 55 56 55 54 54 55 53 55 53 55 54 54 55 56 54 54 54 51 52 51 51
14 9 9 12 18 15 15 15 21 22 22 23 24 27 27 29 38 43 45 49 49 55 55 55 56 59 59 59 56 54 53 53 54 52 52 53 51 53 53 52 53 54 52 52 52 53 53 52 52
11 10 9 12 18 16 15 18 21 23 24 27 28 30 35 40 42 44 47 49 49 53 53 54 54 57 55 55 53 51 51 50 50 49 51 51 51 50 51 50 50 51 50 50 50 50 49 49 52
12 15 16 18 19 19 20 18 22 24 27 28 30 34 35 38 40 43 46 49 48 49 49 49 48 49 48 48 49 50 50 50 49 50 48 50 51 50 48 50 48 48 48 48 48 49 48 48 49
18 19 24 21 21 21 20 20 21 24 26 28 31 32 33 36 39 43 45 48 49 49 49 46 47 48 50 51 48 49 50 50 48 48 48 49 50 49 49 47 46 47 47 47 46 46 46 45 45
20 27 25 22 22 18 22 16 21 23 26 29 33 36 34 35 38 41 44 46 49 50 51 48 48 47 47 50 49 51 49 46 47 47 47 46 46 46 44 44 45 46 47 46 46 44 46 45 43
25 28 26 26 25 23 19 21 20 24 25 31 34 36 38 39 40 40 43 45 46 51 51 50 48 46 48 48 49 48 47 47 46 45 45 45 45 45 43 42 43 45 45 45 46 46 45 45 43
27 29 28 28 27 28 23 19 21 22 26 32 34 36 38 39 40 40 42 43 46 51 51 50 47 45 47 46 47 47 47 46 44 44 44 44 43 43 42 41 42 44 45 44 44 44 43 42 41
28 27 31 32 31 30 26 23 28 29 31 32 35 36 39 40 41 41 40 41 44 46 48 48 47 45 45 47 47 47 46 46 45 45 44 43 41 40 39 42 44 44 43 43 43 43 43 42 41
28 26 36 26 30 30 25 19 28 31 32 34 34 36 37 39 41 41 40 43 43 44 45 46 45 43 43 45 46 47 47 46 45 45 44 42 41 40 43 43 42 42 42 42 42 42 42 42 41
27 31 28 26 36 34 21 28 30 31 32 33 33 34 36 37 40 39 41 43 43 43 45 45 44 41 42 44 46 45 45 44 44 44 43 41 41 40 42 42 41 41 40 41 41 41 40 40 40
27 26 29 36 30 23 16 19 28 30 31 32 32 34 36 37 39 40 40 42 43 43 43 46 42 40 40 39 39 35 39 40 41 42 40 41 40 40 40 40 40 39 39 39 38 38 38 39 38
26 26 27 25 30 29 26 21 26 26 30 31 32 32 35 38 38 39 38 40 42 43 42 40 40 37 34 33 35 38 38 39 40 40 40 39 40 39 39 39 38 38 38 38 37 37 37 37 36
27 27 27 36 27 34 33 27 26 27 31 31 32 34 36 37 37 38 39 40 41 40 39 38 37 32 32 33 35 36 38 38 38 38 39 40 38 38 39 39 39 39 36 35 34 33 32 31 30

GFSSGP_sfc_dewp_033.txt.gz
Dewpoint
45 32 32 30 23 23 19 23 39 37 38 44 49 50 52 53 50 52 63 65 66 68 69 70 71 72 72 72 71 72 72 72 72 72 71 71 70 69 69 68 69 69 68 68 69 69 68 68 67
45 34 34 24 20 19 28 36 34 32 36 45 47 50 50 50 54 56 61 64 66 67 69 70 70 71 71 71 71 71 71 71 71 71 71 70 69 68 68 67 68 69 67 67 68 68 67 66 66
42 34 22 19 19 18 34 34 33 34 35 41 44 48 51 50 52 54 63 64 64 66 67 68 69 69 70 71 71 71 71 71 71 71 70 70 68 67 67 68 68 67 68 68 68 67 65 64 65
35 25 16 14 14 21 34 33 33 34 34 44 45 48 49 52 51 54 63 63 64 64 65 66 67 68 69 70 70 70 70 70 70 70 70 69 68 67 68 67 67 66 66 67 67 66 65 64 64
33 25 15 15 29 32 32 32 33 32 32 46 49 49 49 49 50 53 57 61 62 62 63 64 66 67 68 68 68 69 69 69 69 69 69 68 67 67 67 67 66 65 65 64 64 64 64 64 65
23 21 16 16 28 31 30 30 34 33 29 47 49 50 50 51 50 49 56 58 60 59 62 63 66 67 67 67 67 67 67 67 68 68 68 67 67 67 66 66 66 66 65 65 64 64 64 63 63
22 20 17 16 28 30 29 26 26 25 25 33 48 49 51 52 52 47 50 54 56 57 60 61 63 65 65 65 65 65 65 66 66 66 66 66 66 66 66 66 65 65 64 64 63 62 62 61 61
20 17 14 16 23 21 23 17 23 24 21 29 45 46 49 52 51 45 48 51 52 55 58 59 61 62 63 63 64 64 64 64 64 64 64 64 65 65 65 65 65 64 64 63 62 61 61 61 61
18 13 12 13 16 15 15 11 17 22 26 40 41 48 51 51 48 45 45 47 50 52 56 58 58 60 61 62 63 64 64 64 63 63 63 63 63 64 64 64 64 63 63 62 61 60 60 59 59
14 13 8 9 11 8 9 12 16 20 25 41 49 50 51 50 46 45 45 46 49 52 56 57 58 60 61 59 62 62 63 63 63 62 62 62 62 63 62 62 62 62 62 62 62 61 61 60 56
9 7 7 10 8 6 10 13 17 19 23 37 47 48 48 48 46 45 45 47 51 51 55 59 58 57 57 57 61 62 62 63 63 62 60 61 59 60 60 61 60 60 61 60 61 60 59 57 55
3 6 8 11 11 5 5 6 10 17 22 30 47 48 48 47 46 45 45 46 50 52 55 58 58 56 55 55 56 57 58 59 60 61 59 58 58 58 57 60 60 60 60 60 60 58 57 56 54
5 9 9 11 16 15 12 10 12 16 20 29 44 45 46 47 46 45 45 46 49 52 55 57 57 57 54 53 56 55 56 58 57 59 59 57 56 56 56 55 55 54 53 52 52 51 51 51 51
11 9 10 11 17 18 18 19 16 15 17 28 34 43 42 44 44 44 44 44 48 50 55 57 57 57 54 55 53 55 55 57 56 58 57 57 57 55 55 54 53 53 52 52 51 50 50 50 51
18 16 17 18 18 17 19 19 15 17 16 23 28 36 39 41 42 43 44 43 46 48 54 57 59 55 52 53 53 53 57 51 53 55 54 55 54 54 54 53 53 53 54 52 52 51 52 52 52
16 19 17 19 21 22 20 18 16 19 18 19 22 23 32 39 41 42 43 43 44 47 52 57 59 59 57 54 53 51 52 52 50 51 54 53 53 52 52 53 52 53 53 52 52 52 51 51 51
18 16 18 19 20 22 20 19 19 22 22 23 21 24 26 37 41 43 45 48 51 51 52 57 59 60 63 60 57 52 51 49 50 52 52 52 52 52 51 50 51 51 52 52 52 52 51 51 51
15 16 19 18 17 15 14 20 22 22 23 24 28 34 41 42 44 46 47 48 51 53 53 55 55 57 58 58 55 54 51 50 50 49 49 48 50 50 50 49 49 50 49 49 49 48 48 49 50
16 15 14 18 19 17 16 19 22 25 26 34 36 38 40 42 44 46 47 47 47 50 49 47 46 52 51 50 47 47 46 46 47 48 47 47 48 49 48 48 47 47 47 46 46 47 47 46 48
16 18 23 20 21 18 18 20 24 26 29 32 34 37 39 42 44 46 48 50 50 49 47 47 45 46 46 46 46 46 47 46 46 49 49 49 48 48 46 46 45 45 46 46 46 45 44 45 45
25 25 24 23 23 23 22 21 24 27 30 31 33 36 38 41 43 44 46 47 46 46 44 44 45 45 47 47 48 48 48 47 45 45 46 44 45 44 43 43 44 43 45 45 44 44 45 44 44
26 30 28 25 23 21 23 17 23 26 28 32 34 34 37 40 42 44 45 46 46 46 45 45 44 44 46 46 46 45 45 44 45 44 43 43 44 43 42 41 42 43 44 43 45 45 44 43 41
30 31 29 29 27 26 25 20 21 26 32 34 35 37 38 39 41 43 44 45 46 46 45 45 45 45 45 45 45 45 44 44 43 43 43 43 43 42 41 40 42 44 45 44 43 43 43 43 41
30 30 30 30 29 25 29 25 22 24 31 34 36 37 38 38 39 41 44 45 46 46 46 45 44 43 44 44 45 44 43 43 43 43 43 43 42 41 41 43 44 43 43 43 42 42 42 40 40
30 29 28 27 28 26 34 32 36 34 33 35 36 38 38 39 39 39 39 41 43 43 44 43 43 41 42 43 45 45 44 43 42 42 42 40 39 40 43 42 42 42 41 41 41 41 40 40 39
29 28 29 24 26 27 27 27 30 33 35 37 38 39 38 38 37 38 39 41 40 41 41 41 41 40 42 44 43 42 43 43 43 42 41 40 39 41 41 41 41 40 40 40 39 39 40 38 39
27 30 29 26 32 28 28 29 32 33 36 35 35 36 37 37 37 38 40 39 39 39 41 41 39 40 39 38 36 35 37 38 38 39 40 40 40 39 41 40 39 39 39 39 38 38 37 37 37
30 28 27 32 23 23 24 28 32 32 32 34 34 35 37 38 37 38 38 39 40 40 41 39 39 36 33 32 34 34 36 36 39 39 38 38 38 38 38 39 38 37 37 39 38 37 36 36 37
28 29 29 29 29 24 23 23 29 31 34 33 34 36 36 36 36 36 37 40 39 39 37 38 32 30 30 31 33 35 35 37 38 38 38 39 39 37 37 39 39 39 40 39 37 37 36 36 35
28 29 30 27 26 29 28 24 29 35 36 36 35 35 37 38 37 38 38 39 39 38 36 31 30 29 30 31 33 34 34 37 39 39 39 39 39 39 39 40 39 38 38 37 36 33 31 29 27

GFSSGP_sfc_dewp_036.txt.gz
Dewpoint
44 33 32 30 22 23 20 22 40 40 46 51 52 52 52 53 50 49 65 67 69 69 69 70 70 71 71 72 72 72 72 72 71 71 70 70 69 68 67 67 69 69 68 68 68 68 68 67 66
41 34 32 23 20 18 30 33 43 45 49 50 50 51 53 53 59 63 64 67 68 69 69 70 70 71 71 71 71 71 71 71 71 70 69 68 68 68 68 68 69 68 67 68 68 67 66 65 65
37 33 19 17 18 17 33 31 33 43 48 46 47 51 51 52 60 61 65 66 67 68 68 69 69 70 71 71 71 71 71 71 71 70 69 68 68 68 68 67 68 67 68 68 67 67 65 64 64
33 22 16 14 13 15 34 33 39 43 47 49 49 48 49 53 56 63 65 66 65 65 66 67 68 69 70 70 70 70 70 70 70 70 69 68 68 67 67 67 66 65 65 66 65 64 64 64 65
32 23 16 13 22 32 33 34 35 41 47 49 48 47 48 59 63 63 63 63 63 63 64 65 66 68 69 69 69 69 69 69 69 69 69 68 67 67 66 66 65 65 64 64 65 64 64 64 64
21 20 16 19 32 32 28 32 38 47 49 48 47 47 47 58 60 61 62 61 61 61 63 64 66 66 67 67 67 67 67 67 67 68 68 67 67 66 66 66 65 65 65 64 64 63 62 62 62
21 20 16 23 34 32 25 27 37 47 47 49 50 47 49 48 57 58 59 59 59 61 62 63 64 65 65 65 65 65 65 65 66 66 66 66 66 66 66 66 65 64 64 63 62 61 62 61 61
23 18 17 23 36 27 20 22 23 32 38 50 51 49 47 49 52 54 55 55 57 58 60 61 62 62 62 63 64 64 64 64 64 64 64 64 64 65 65 65 65 64 64 63 62 62 61 60 60
20 16 13 13 18 18 15 19 21 34 43 46 46 50 50 47 49 51 51 52 54 56 57 59 61 61 61 62 63 64 64 64 63 63 64 63 63 63 63 63 64 64 63 63 62 61 60 59 59
19 15 14 13 16 11 9 17 20 38 47 49 50 51 50 45 47 48 48 49 52 55 57 58 59 59 60 59 62 62 62 62 61 61 62 62 61 62 63 63 63 63 62 62 61 62 61 60 57
13 7 12 11 9 11 13 17 19 36 44 49 49 49 47 44 44 45 47 49 50 54 56 57 59 60 59 58 61 60 61 62 61 61 61 61 62 61 62 60 60 59 61 60 60 60 59 58 56
6 11 10 14 10 10 10 11 15 24 37 50 49 49 48 45 44 44 45 48 51 54 56 58 58 59 58 58 60 61 61 61 62 61 60 59 59 58 59 59 59 59 59 58 58 58 58 57 56
8 10 10 17 16 9 8 11 17 19 38 50 49 49 48 45 45 45 45 47 51 54 57 57 56 55 53 55 56 57 58 60 61 60 59 57 57 55 55 54 54 54 52 53 52 52 51 50 50
11 9 9 14 17 17 15 17 15 18 40 48 48 47 47 46 45 45 45 46 50 54 56 56 55 55 52 54 55 54 58 57 56 59 58 56 57 54 54 52 53 52 52 52 51 51 50 51 51
13 11 14 18 18 16 19 17 13 16 41 46 46 47 47 47 46 45 45 45 50 54 55 56 56 54 55 53 53 53 56 54 57 56 56 56 55 54 53 52 52 52 53 52 52 51 52 51 51
18 18 16 18 20 22 18 16 17 16 27 38 43 44 44 44 44 44 44 45 50 53 55 56 57 57 58 57 54 51 52 51 52 54 54 54 54 53 52 51 50 51 52 51 51 51 50 50 50
18 13 18 20 21 22 20 18 20 18 19 22 28 41 43 45 46 48 50 52 53 55 58 60 59 59 60 59 57 53 52 50 51 52 52 52 52 52 50 50 50 50 49 49 48 47 49 48 47
17 13 19 18 18 18 18 21 22 24 33 38 41 42 43 44 45 47 47 49 49 50 52 55 56 59 59 58 56 52 50 47 49 49 48 49 51 50 49 48 47 47 47 46 45 45 45 46 45
16 18 18 18 19 16 18 21 25 34 38 39 40 42 43 44 46 47 48 49 49 52 50 51 52 53 53 52 51 49 48 46 47 48 49 49 48 47 46 45 45 45 45 45 45 45 44 43 45
21 22 21 21 22 17 21 22 26 32 36 39 40 41 43 44 44 45 47 51 49 51 51 47 45 46 46 47 47 48 48 47 45 46 45 44 44 43 41 42 43 43 43 43 43 43 43 44 45
29 25 26 23 24 23 21 22 28 31 34 37 40 42 43 43 44 45 46 48 47 46 45 45 44 45 46 46 46 46 47 45 43 43 42 43 43 42 41 41 42 43 44 43 43 43 42 42 43
28 30 28 25 23 17 22 18 24 29 32 35 38 41 42 43 44 45 45 45 44 44 44 44 44 45 45 46 45 44 44 42 43 42 43 43 42 41 41 42 44 44 44 43 43 43 42 42 41
27 30 29 29 26 25 25 20 22 32 32 34 36 39 41 43 44 44 44 45 45 44 44 44 44 44 44 44 44 45 43 44 44 43 43 42 41 41 43 44 43 43 43 42 41 41 40 41 39
31 31 32 31 29 24 27 27 22 29 33 35 37 38 40 41 43 43 44 45 45 45 44 44 42 42 43 44 44 43 43 42 41 42 42 41 40 42 43 42 42 42 41 41 41 40 39 38 38
29 30 26 26 27 25 32 32 33 35 35 36 37 38 39 40 41 43 44 44 45 44 43 42 40 40 44 44 43 42 42 41 41 42 40 39 39 41 41 41 40 40 40 40 39 39 38 37 36
29 31 27 22 24 24 29 29 30 35 37 38 38 38 38 38 39 40 41 43 41 41 41 41 40 41 43 39 37 37 38 39 40 40 40 40 40 41 41 40 39 39 39 38 38 37 37 37 35
27 29 28 27 29 25 27 30 31 35 36 37 39 41 42 39 38 39 41 40 39 40 41 40 40 36 34 34 34 35 35 36 39 39 39 39 39 40 40 39 39 39 38 38 37 37 36 36 36
28 28 26 29 21 22 24 28 31 33 35 36 35 37 38 39 39 39 39 40 40 40 39 37 33 31 31 32 33 34 35 39 38 38 38 37 38 38 38 38 38 37 39 39 38 37 37 36 36
27 28 28 28 28 24 22 22 32 33 34 34 37 38 39 37 37 39 39 39 38 37 33 30 30 29 29 31 32 33 34 37 38 38 38 38 38 38 38 38 38 38 37 37 36 35 35 34 31
28 29 30 26 22 28 26 23 34 35 35 35 35 37 38 38 38 38 37 36 36 36 31 29 29 29 29 30 32 32 33 37 38 38 38 38 36 38 38 38 37 36 36 35 32 30 29 27 26

GFSSGP_sfc_dewp_039.txt.gz
Dewpoint
53 37 33 29 21 23 20 21 41 43 48 51 53 52 52 55 52 48 64 68 69 68 69 69 70 71 71 72 72 72 72 71 70 69 69 69 68 67 67 68 68 69 68 68 68 67 67 66 66
37 34 28 22 18 17 30 35 44 48 50 52 52 54 53 56 62 64 64 68 68 69 69 69 70 71 71 71 71 71 71 70 70 69 69 68 68 68 68 68 69 68 68 67 67 66 65 65 64
43 32 17 17 19 17 30 36 45 49 50 48 50 50 52 58 62 62 66 68 68 68 69 69 70 70 71 71 71 71 71 71 70 70 68 68 68 68 67 67 67 68 66 66 66 65 64 63 64
33 19 17 14 14 17 34 37 45 47 49 50 51 48 50 56 61 64 67 68 66 66 67 68 68 69 70 70 71 70 70 70 70 70 69 68 68 67 66 66 65 65 65 64 64 64 63 64 64
30 21 15 14 17 24 33 41 45 45 48 48 48 48 50 62 64 65 66 65 65 64 66 67 68 69 70 70 70 70 70 69 70 69 69 67 66 66 66 65 65 64 64 64 64 63 63 63 63
20 19 15 25 34 35 27 38 48 47 47 48 49 48 52 63 63 63 64 63 63 63 63 64 67 68 68 69 69 68 68 68 68 68 68 66 66 66 65 65 65 64 64 63 62 62 62 62 62
19 17 15 36 33 32 26 31 47 46 48 49 49 47 54 59 62 61 61 60 60 62 61 62 63 65 65 65 65 66 66 66 66 66 66 66 66 65 66 65 64 64 63 62 61 61 61 61 61
22 18 17 37 35 32 32 25 36 45 46 51 49 48 52 51 59 59 57 57 59 60 61 60 61 62 61 62 64 64 64 64 64 64 64 64 64 64 65 64 65 64 63 62 61 61 61 60 60
21 16 14 37 32 28 32 22 30 45 49 48 48 48 51 55 55 54 52 54 55 57 59 59 60 60 60 60 62 64 64 64 63 63 64 62 62 62 62 63 64 64 63 62 62 61 61 60 60
21 17 16 32 37 35 17 35 35 46 49 49 50 48 52 52 51 49 48 51 53 55 56 59 59 59 60 60 61 61 61 61 61 61 61 61 60 61 62 63 63 63 62 62 62 62 62 61 57
16 11 11 13 32 25 14 21 32 47 47 49 48 46 48 49 49 48 46 49 50 53 55 57 58 59 59 59 61 60 61 61 60 60 60 60 61 61 61 60 59 59 60 59 59 59 59 58 57
11 10 11 11 13 14 16 17 36 35 47 50 49 45 46 46 48 48 48 49 51 54 55 57 58 59 58 59 59 59 60 61 60 61 61 60 59 59 59 59 58 57 58 57 57 57 57 55 55
11 12 15 15 10 8 12 16 18 26 49 51 49 45 44 45 46 47 47 49 51 53 55 57 58 59 59 58 59 59 59 60 61 61 61 58 57 56 57 57 55 53 52 51 51 51 50 50 50
11 10 13 16 16 16 15 16 20 28 50 49 48 46 44 44 44 44 45 48 52 53 55 57 57 58 55 56 56 57 58 60 60 60 59 57 56 55 54 53 53 52 52 52 51 51 51 51 51
14 11 14 17 16 14 18 16 20 32 49 48 48 48 46 44 44 44 45 47 51 54 56 56 55 53 55 54 53 54 57 56 56 58 58 56 56 54 53 52 52 52 52 51 50 49 48 48 48
17 17 14 17 19 20 17 13 17 37 48 47 47 46 45 46 47 49 46 45 50 55 55 56 56 56 59 58 55 52 52 51 52 55 54 54 54 53 52 50 50 50 49 48 47 47 46 46 46
17 15 17 18 20 22 19 18 20 23 41 32 41 42 45 46 46 48 52 53 54 57 58 59 60 61 61 59 57 55 49 51 50 51 52 51 52 51 50 48 48 47 47 46 46 45 45 44 43
14 15 17 16 19 19 20 20 24 25 35 41 42 44 45 45 46 47 48 49 52 54 55 57 59 60 59 57 55 52 48 48 48 48 48 48 48 48 47 45 45 46 46 45 44 44 43 43 44
20 16 18 18 18 16 19 23 29 38 41 41 42 43 44 45 46 48 48 49 51 53 54 55 55 55 53 52 51 49 48 49 48 43 45 44 44 43 43 43 43 43 42 42 43 43 42 42 44
23 19 19 22 24 19 23 26 30 34 39 41 42 43 43 44 45 46 48 50 51 52 52 50 49 47 49 47 47 48 46 44 44 43 43 43 42 41 40 41 42 43 43 43 43 43 43 43 43
28 24 24 21 23 22 24 24 31 34 38 41 42 43 43 43 44 46 48 49 49 47 44 44 44 45 45 46 46 46 46 44 42 42 41 42 41 41 41 42 43 43 43 43 42 41 40 40 41
27 29 26 25 21 12 23 20 28 31 34 39 41 42 43 44 45 46 46 44 43 44 44 44 45 45 45 45 44 43 42 41 42 42 42 41 41 41 43 43 43 43 42 41 41 42 40 40 39
27 29 27 27 25 25 25 20 24 33 33 36 39 41 43 44 44 43 43 43 43 44 43 44 44 44 44 44 44 43 43 43 43 44 43 41 41 43 43 43 42 41 41 41 40 39 39 39 38
30 30 32 32 29 24 27 26 23 30 33 35 38 41 42 43 44 44 44 44 44 45 43 41 41 42 44 44 43 43 42 42 41 42 41 41 40 42 41 41 40 40 40 39 39 38 37 37 37
29 29 25 25 26 25 30 30 30 33 35 37 38 39 41 42 43 43 44 44 45 44 43 41 41 43 43 42 41 41 41 40 40 41 40 39 38 40 40 40 39 39 39 38 38 37 36 36 35
29 30 25 21 23 21 29 28 30 35 37 38 38 39 39 40 41 43 44 44 43 42 41 40 42 41 37 35 35 36 37 37 38 39 39 39 40 40 40 39 39 38 38 37 37 36 36 36 35
27 27 28 28 28 24 27 30 32 35 37 37 37 38 39 41 40 39 41 40 40 40 40 40 37 34 33 34 34 34 35 36 38 38 38 38 39 40 39 39 38 38 38 38 37 35 35 35 35
25 28 26 27 19 20 24 27 29 33 35 36 37 39 40 39 39 39 40 39 39 39 38 35 31 30 31 31 33 33 34 38 38 38 37 37 37 37 37 37 37 37 37 37 37 35 34 34 34
27 27 28 29 27 23 21 23 28 33 34 35 37 39 37 38 38 37 37 37 37 36 30 30 29 29 28 30 32 33 33 37 38 37 37 38 37 37 37 37 38 37 35 35 34 33 30 28 26
28 28 27 21 21 27 25 21 34 35 35 36 37 37 37 37 37 37 36 35 35 35 31 29 29 29 29 29 31 32 33 34 37 37 38 38 37 36 36 36 37 36 33 31 28 28 27 25 24

GFSSGP_sfc_dewp_042.txt.gz
Dewpoint
52 34 32 29 21 21 20 20 38 43 49 52 54 52 54 57 53 48 66 68 68 67 68 70 71 71 71 71 72 72 71 70 70 69 69 69 68 68 68 68 69 69 67 67 67 67 66 65 65
38 33 27 23 15 14 28 31 44 49 52 55 55 55 55 57 61 63 64 68 68 68 68 69 70 71 71 71 71 71 71 70 70 69 68 68 68 68 68 68 69 69 66 65 66 66 65 64 64
40 31 17 18 19 16 27 40 47 50 50 50 49 51 56 59 62 63 67 68 68 68 68 69 70 70 71 71 71 71 71 70 70 69 68 68 68 68 67 67 69 67 66 66 64 64 63 64 64
32 20 16 14 13 16 32 42 48 48 48 50 49 48 52 61 61 65 68 68 66 67 67 68 68 70 70 71 71 71 70 70 70 69 69 68 67 66 66 66 66 65 64 64 64 64 63 63 63
26 19 14 18 22 25 27 43 48 47 48 48 48 47 52 62 66 66 67 66 65 66 66 67 68 69 70 70 70 70 70 69 69 69 69 67 66 65 65 65 65 64 64 63 63 62 62 62 62
20 19 15 28 34 34 34 43 49 47 48 48 50 50 56 64 64 65 65 64 65 64 65 66 68 69 69 69 69 69 69 69 68 68 68 66 66 66 65 65 65 64 63 62 62 61 61 61 61
19 16 20 35 33 33 30 42 46 46 48 48 49 51 59 62 63 63 62 62 62 63 62 63 64 66 67 67 67 67 67 67 67 66 66 66 65 65 65 65 64 63 62 62 61 61 61 61 61
22 18 28 36 33 33 28 41 43 47 48 50 52 54 57 59 61 60 59 59 59 59 60 60 61 61 61 62 65 65 65 65 65 65 64 64 64 64 64 64 64 63 62 62 62 61 61 61 61
21 15 31 36 37 36 32 43 37 47 49 49 49 53 56 59 58 56 55 55 56 57 58 59 59 59 59 60 62 64 64 64 63 63 64 62 62 62 62 63 63 63 62 62 62 62 62 61 60
21 17 20 37 37 37 36 28 40 47 49 49 48 54 57 57 57 54 52 52 53 55 57 58 59 59 59 60 61 60 61 61 61 61 61 61 60 60 62 62 63 63 62 62 62 62 62 60 58
20 16 16 30 39 32 33 34 39 47 47 49 47 53 55 55 53 50 49 50 50 53 55 57 58 58 58 59 60 59 60 60 60 60 60 60 60 60 60 60 59 58 59 58 58 58 57 57 56
15 14 14 27 40 35 21 25 45 42 43 50 49 53 52 51 48 46 45 48 48 52 53 56 58 58 58 58 59 59 59 60 59 59 59 59 59 59 58 59 58 57 57 54 54 53 52 51 51
9 14 15 14 21 17 17 19 40 28 50 49 48 51 50 48 46 45 43 46 49 52 53 55 57 58 58 58 58 58 59 60 59 60 60 60 58 57 57 57 55 53 52 51 51 51 51 51 50
13 13 15 12 10 11 16 18 20 35 50 48 46 48 48 47 47 47 47 48 50 51 54 56 57 59 57 56 57 57 58 59 59 60 60 59 57 55 54 53 52 52 52 51 50 50 48 47 48
14 13 15 16 15 17 17 15 19 41 50 48 45 44 44 45 44 45 45 47 50 52 55 57 55 54 55 53 53 54 56 56 57 58 58 56 56 54 52 52 50 50 50 48 47 46 46 45 45
17 17 10 15 17 20 14 11 17 47 49 48 47 47 46 48 49 50 50 46 50 54 56 57 58 58 58 57 55 53 52 53 54 54 54 53 55 53 50 49 48 48 47 46 46 46 44 44 43
17 14 17 18 20 20 17 17 18 45 47 41 41 44 46 46 47 48 51 52 52 56 58 59 60 59 58 58 55 54 52 53 53 52 50 50 50 49 46 45 46 46 46 46 45 44 43 42 42
13 14 17 16 19 19 18 22 34 36 39 41 43 45 46 46 47 48 50 53 55 57 58 59 60 59 57 57 56 55 53 47 46 47 47 45 46 46 45 45 45 44 43 42 43 42 42 41 44
17 14 15 18 19 17 23 30 35 39 41 42 43 44 45 45 46 48 49 52 55 55 57 59 58 58 57 55 52 48 47 47 44 43 43 43 42 43 42 42 41 42 42 43 44 43 42 42 43
20 19 19 22 23 20 28 30 35 37 40 42 43 43 44 44 46 47 48 50 51 53 54 54 52 51 49 47 48 45 44 43 42 42 42 41 40 40 40 41 42 42 42 42 42 41 41 41 42
27 22 23 21 22 23 25 25 32 37 40 42 43 43 43 44 45 47 48 49 50 47 44 44 45 45 46 46 46 45 44 43 41 41 41 41 41 41 41 42 42 42 42 41 40 40 39 38 39
24 28 25 23 18 17 23 18 29 33 37 40 41 42 43 44 46 46 46 43 43 43 44 44 44 44 44 44 42 41 41 40 42 42 41 40 41 42 43 43 42 41 41 39 39 40 39 38 37
28 28 27 26 25 26 25 20 24 34 35 38 40 42 43 43 43 43 43 43 43 44 43 44 44 44 44 44 44 43 42 43 43 43 42 41 41 43 42 41 40 39 40 40 39 39 38 38 37
30 31 31 31 28 24 28 27 24 31 33 36 39 41 43 43 43 43 43 43 43 43 42 42 42 43 44 43 43 42 42 41 40 41 41 40 40 41 41 40 39 39 39 38 38 37 37 36 36
30 28 25 25 25 24 29 29 28 31 35 37 39 41 42 43 43 43 43 44 44 44 41 40 42 43 42 41 40 40 40 39 37 38 38 39 38 39 40 39 38 38 38 37 37 36 35 35 35
29 27 26 22 24 23 29 27 29 35 36 39 40 41 42 42 42 43 44 44 44 42 41 40 43 39 35 35 35 35 35 35 36 37 39 39 39 39 39 39 38 38 37 37 36 36 35 35 35
28 26 28 28 27 24 26 29 33 36 37 38 39 40 40 40 40 41 41 40 40 40 40 40 36 33 33 33 34 33 34 35 36 37 38 37 38 39 39 38 37 37 37 37 36 35 35 34 34
25 29 26 26 17 16 22 25 28 34 35 37 37 38 39 41 39 39 39 38 39 38 37 33 31 30 30 31 32 33 33 35 37 37 37 37 37 37 37 37 36 37 37 37 36 36 34 33 33
27 26 28 28 26 21 19 22 29 34 36 37 37 39 37 38 37 36 36 36 35 31 30 29 29 28 28 28 31 32 33 34 37 37 37 37 37 37 36 36 37 37 36 35 34 33 30 27 26
28 27 25 20 20 26 24 22 34 34 35 36 37 37 37 36 36 35 35 35 35 35 35 32 32 32 30 30 30 31 32 32 33 35 37 37 37 37 35 36 36 36 35 33 30 28 26 25 24

GFSSGP_sfc_dewp_045.txt.gz
Dewpoint
51 34 34 32 24 22 18 21 34 47 50 53 54 52 54 56 52 50 67 67 67 66 68 70 71 71 71 71 71 71 71 71 70 70 70 69 69 69 69 69 70 68 66 67 67 66 65 64 64
36 33 29 26 18 11 27 29 45 51 54 55 53 55 55 57 61 63 64 67 66 67 69 70 71 71 71 71 71 71 70 70 70 69 68 68 68 68 68 68 69 68 66 66 64 64 64 64 64
37 28 23 22 21 17 29 44 50 52 55 53 51 53 55 59 62 63 67 66 66 68 69 70 70 71 71 71 71 71 71 70 70 69 68 68 68 68 68 69 69 67 65 64 63 63 63 63 63
31 23 19 17 15 17 32 47 49 48 49 49 49 46 56 62 62 66 68 66 66 68 69 69 69 70 71 71 71 71 70 70 69 69 69 68 67 66 66 67 67 64 64 63 63 62 62 62 62
26 21 17 17 26 28 27 48 49 47 49 48 45 46 55 63 65 67 67 65 66 67 68 69 68 70 71 71 70 70 70 69 69 69 69 67 66 65 65 65 65 64 63 62 62 61 61 61 62
25 21 17 28 33 33 41 49 46 48 48 47 48 50 58 65 65 66 66 66 66 66 67 67 69 69 69 70 69 69 69 69 69 68 68 66 66 65 65 65 64 63 63 62 61 61 61 61 61
23 21 26 34 33 36 40 49 46 47 46 48 51 54 60 63 64 65 66 65 66 66 66 67 67 68 68 68 67 67 67 68 67 67 66 66 65 65 65 65 64 63 62 62 61 61 62 61 61
23 22 35 36 33 33 40 45 46 46 47 51 54 52 57 61 63 64 64 64 64 64 64 65 65 66 66 66 66 66 66 65 65 65 64 64 64 64 64 63 63 62 62 62 62 62 62 62 61
21 19 32 35 35 39 43 41 44 48 48 50 49 56 59 62 61 61 61 60 60 59 60 61 61 62 63 63 63 64 65 64 64 63 64 62 62 62 61 62 62 63 63 63 63 63 62 62 60
22 19 27 37 40 44 44 41 42 48 48 47 52 58 60 60 61 60 59 58 56 55 57 59 60 60 61 58 62 62 61 61 61 62 62 62 63 63 62 63 62 62 62 61 61 61 60 60 55
22 19 22 36 38 43 42 35 45 48 46 47 50 57 59 59 59 58 56 54 51 53 55 58 60 60 60 59 60 59 60 60 61 62 62 63 62 63 63 63 62 62 60 58 57 56 55 55 54
17 17 23 37 38 31 33 34 45 46 42 49 55 58 58 58 57 55 53 49 49 51 54 57 59 60 60 59 59 60 59 60 60 61 62 63 62 63 63 62 62 61 57 56 55 54 55 55 53
16 14 14 17 28 21 25 33 41 39 49 51 56 57 57 56 55 53 48 46 48 50 53 57 59 60 60 60 60 60 61 61 61 61 62 62 62 62 61 61 58 56 55 55 54 53 51 50 49
17 16 14 18 24 19 20 21 33 37 48 51 54 54 54 52 50 48 45 44 47 49 53 57 59 60 60 59 59 60 61 61 63 63 64 63 62 61 58 57 55 54 53 52 50 50 48 47 46
17 16 18 17 16 16 18 17 19 45 47 48 51 51 50 48 47 46 46 46 47 50 55 57 58 58 58 56 55 55 54 56 58 60 60 60 60 59 57 54 52 50 50 51 49 48 47 44 42
17 18 14 17 18 19 17 16 19 49 47 46 47 47 47 47 48 49 51 49 50 52 56 57 58 59 59 57 55 53 53 55 57 58 58 57 57 55 53 50 49 49 47 46 46 44 44 42 40
19 13 16 17 21 19 18 17 30 42 48 47 46 46 46 47 48 50 53 55 50 56 58 59 60 60 59 57 57 56 55 54 55 55 52 52 51 50 48 48 47 46 44 44 43 42 43 40 40
17 16 18 18 19 21 21 27 34 39 44 43 45 46 47 47 48 51 55 57 58 59 60 60 60 60 58 57 56 55 53 48 48 49 46 48 47 47 46 45 45 44 43 43 43 43 41 41 41
17 16 16 18 21 27 29 32 36 40 42 44 45 46 46 47 50 53 55 58 59 60 60 61 59 58 57 55 53 49 48 47 45 44 45 45 44 44 46 44 44 44 43 44 44 41 41 38 41
20 20 20 23 24 26 30 33 38 40 42 43 45 45 47 49 49 50 53 56 58 59 60 59 58 56 54 51 49 47 46 45 44 44 44 44 44 45 44 45 43 44 42 43 43 42 38 37 41
26 24 23 21 24 26 27 26 34 40 42 44 44 45 46 47 46 47 49 51 53 55 55 53 52 53 52 50 48 47 46 46 44 44 43 43 44 44 45 45 44 44 43 40 41 41 40 36 39
26 27 25 22 19 20 25 16 28 37 41 43 43 44 45 45 46 46 46 46 47 48 48 48 47 47 48 48 47 46 44 43 44 45 43 42 44 44 44 44 44 44 42 41 40 39 41 40 36
28 30 28 27 27 24 27 20 23 36 39 41 42 43 44 46 45 45 44 44 44 46 47 47 47 46 47 47 47 46 46 45 45 46 45 45 45 44 43 43 43 42 41 41 41 40 39 39 37
33 32 32 32 30 25 28 28 27 31 35 40 41 42 43 44 44 44 44 44 44 47 47 46 46 45 46 46 46 46 46 44 42 42 42 42 43 43 43 42 42 42 41 40 39 40 39 39 38
30 30 25 25 27 23 29 29 29 32 34 40 40 41 43 44 44 44 44 44 44 44 44 44 44 43 44 43 43 43 41 39 37 37 36 38 39 41 42 43 43 41 41 41 40 40 39 39 38
30 28 31 22 25 25 28 27 28 35 37 38 41 41 43 44 44 44 45 45 46 45 43 44 43 40 37 39 38 39 37 36 36 38 38 39 39 40 42 43 42 41 41 41 41 41 40 41 41
30 28 29 29 28 26 25 29 32 36 37 38 40 41 42 43 44 44 45 46 45 44 43 45 39 36 35 36 37 37 38 38 38 40 41 41 41 40 42 42 41 42 41 41 41 41 40 41 40
28 31 29 28 23 15 19 25 25 34 36 38 39 40 42 42 41 41 41 41 40 41 39 38 35 34 33 33 35 35 36 37 38 40 41 41 40 40 40 41 40 40 39 40 41 40 38 38 38
28 28 29 29 26 19 18 16 32 33 37 38 39 40 41 40 39 37 37 36 34 34 34 33 32 31 33 32 33 35 35 35 36 36 37 37 39 39 40 40 38 37 38 39 38 36 34 31 30
28 28 29 26 21 28 26 21 34 36 37 38 38 39 39 37 36 35 36 36 36 37 36 36 37 36 34 33 34 33 34 35 35 34 34 37 37 39 40 40 37 37 37 37 34 32 29 28 26

GFSSGP_sfc_dewp_048.txt.gz
Dewpoint
47 32 26 31 26 21 21 22 41 48 50 52 52 51 51 53 51 52 65 64 64 64 66 68 71 71 71 71 71 72 71 71 70 70 70 70 69 69 69 69 69 67 67 66 65 64 64 64 64
25 26 26 27 20 14 13 23 39 50 53 53 52 52 52 55 60 63 63 65 64 64 65 67 70 71 71 71 71 71 71 70 70 69 68 68 68 68 68 69 68 67 66 64 63 64 64 63 61
30 26 23 17 11 10 18 31 49 51 49 48 48 52 52 56 61 62 65 65 65 65 66 68 70 71 71 71 71 71 71 70 70 69 68 68 68 68 69 68 68 65 64 63 63 62 61 61 61
22 21 20 13 9 21 35 46 50 49 48 48 52 52 56 60 62 66 65 64 64 65 66 69 69 70 71 71 71 71 70 70 70 70 69 68 66 66 66 67 66 64 62 62 61 61 60 61 61
23 21 13 10 12 20 41 46 46 44 42 42 44 45 54 62 64 65 66 63 63 63 66 69 68 70 71 71 71 70 70 69 70 70 68 66 65 65 65 65 64 63 62 61 60 59 60 60 61
17 19 11 10 21 30 34 47 46 42 40 45 44 46 56 64 64 65 65 64 64 64 65 67 69 70 70 70 70 69 69 69 69 68 68 66 65 65 65 64 63 62 62 61 61 60 61 61 61
19 14 14 21 29 34 44 46 42 39 42 45 46 48 59 63 65 66 64 63 63 64 64 65 67 68 69 68 68 68 68 68 67 67 67 66 66 66 65 64 63 62 62 61 61 61 61 61 61
22 18 27 29 30 36 46 44 43 46 46 51 50 48 56 62 65 65 64 64 63 64 63 63 63 63 64 66 67 67 67 66 66 65 64 64 64 64 64 64 63 62 62 62 62 62 62 61 60
24 18 27 32 34 41 43 41 41 46 47 49 50 53 57 63 64 63 62 62 62 62 63 61 59 61 61 60 63 65 65 65 64 63 64 62 59 60 60 62 62 62 62 62 62 61 60 61 60
20 19 21 30 40 41 39 40 40 42 46 46 51 58 61 62 61 61 60 60 60 59 56 57 59 59 58 53 59 60 58 56 59 59 61 60 62 62 60 62 61 61 60 60 59 59 59 59 51
20 19 23 32 39 37 40 41 38 41 37 44 46 58 59 60 60 59 58 57 55 51 51 55 59 60 58 57 56 54 55 57 61 62 63 63 62 63 62 63 61 61 59 55 55 55 53 55 53
18 18 25 36 38 37 35 35 37 41 40 45 50 58 58 59 58 57 55 50 45 47 51 55 57 59 60 56 55 57 57 59 60 61 64 64 66 65 63 61 62 61 57 56 56 55 57 56 53
19 16 29 32 36 32 38 34 35 41 45 48 55 57 57 55 52 54 48 43 43 46 52 55 58 58 59 60 59 61 62 61 62 62 63 63 64 64 62 61 59 58 56 55 55 54 52 52 50
19 17 27 23 34 28 32 35 34 39 47 51 55 53 52 50 48 48 44 41 43 46 52 57 58 60 59 60 61 61 62 61 62 62 64 65 65 63 61 59 57 56 54 52 52 51 49 48 48
16 14 15 17 29 30 25 26 24 42 46 50 49 50 50 49 46 43 41 39 41 47 52 57 59 60 60 59 58 57 56 57 57 60 62 63 63 62 61 59 55 52 52 52 51 49 48 45 44
14 16 18 19 28 20 22 16 25 45 44 46 47 49 49 47 45 46 48 45 44 47 54 57 59 60 60 60 58 57 57 58 59 59 60 60 60 58 55 53 52 51 48 47 46 45 44 43 43
15 11 14 16 19 19 18 17 29 46 43 44 47 48 48 48 48 50 51 52 50 51 55 59 61 61 61 58 59 59 59 59 56 54 53 53 52 52 50 49 48 48 47 46 45 44 44 42 40
12 10 13 12 19 18 17 25 31 44 46 45 46 47 47 48 48 52 53 55 53 57 59 60 61 60 59 60 59 59 56 50 50 48 48 49 48 48 47 47 48 46 45 45 44 43 41 39 37
16 13 11 15 20 21 19 27 30 42 45 46 46 47 47 48 51 54 56 57 58 59 60 61 61 60 61 59 56 52 49 47 47 45 47 47 46 46 48 46 46 46 45 44 43 40 38 35 37
17 17 18 21 21 25 27 30 33 40 43 45 46 47 48 50 52 54 56 58 58 59 59 60 59 59 59 57 52 49 48 45 44 45 47 47 47 47 46 47 46 44 40 41 41 40 36 34 35
22 21 22 18 23 26 26 27 33 38 42 44 45 46 48 49 51 53 55 57 59 59 59 57 58 58 55 51 49 48 48 46 44 45 44 46 46 46 47 46 44 42 39 36 39 38 38 34 34
21 25 23 22 20 16 25 13 28 36 38 41 44 46 47 48 48 48 46 48 51 53 53 52 53 52 51 51 47 46 43 42 45 47 46 45 47 46 44 42 41 41 40 39 37 34 39 36 33
26 26 25 23 22 22 22 17 26 35 36 40 43 46 48 48 47 42 42 44 44 49 49 49 47 47 48 48 47 47 46 46 46 46 45 45 44 43 40 40 41 40 38 39 40 39 38 36 34
32 30 29 28 26 21 21 23 11 26 31 39 43 45 46 46 44 41 42 43 45 50 50 49 47 46 47 48 48 48 46 42 40 39 37 36 36 36 38 38 40 41 40 40 39 39 39 38 37
30 26 21 21 21 18 29 25 18 31 33 38 42 44 45 43 42 42 43 43 45 46 48 48 46 45 46 46 45 42 40 37 36 36 35 34 32 33 35 37 40 39 40 41 40 39 39 38 37
26 24 22 10 17 21 29 23 27 34 35 37 41 43 41 42 43 43 43 44 45 46 47 46 45 43 42 41 39 39 37 37 36 36 36 35 35 35 38 40 41 41 41 41 40 39 38 39 39
30 26 30 28 31 28 21 26 31 35 36 37 40 39 40 42 43 44 44 46 46 47 47 47 43 40 38 38 37 37 38 37 37 38 39 38 40 37 39 40 41 41 40 40 40 39 38 38 39
30 30 26 29 23 13 11 17 17 32 34 36 39 38 41 42 43 44 45 47 46 46 46 44 39 35 34 34 36 34 36 36 37 39 38 37 37 36 37 37 37 37 38 38 38 37 35 36 36
30 28 28 26 26 15 12 10 30 30 35 36 38 39 41 43 43 43 43 43 43 41 39 37 34 34 35 34 35 37 35 32 32 32 31 31 32 29 30 30 33 34 35 37 37 37 35 34 33
28 27 27 24 21 30 27 13 28 35 36 38 38 39 42 42 41 40 39 37 37 36 36 36 38 36 36 36 31 28 29 29 28 28 29 31 30 31 31 32 34 34 35 37 37 35 36 33 30

GFSSGP_sfc_dewp_051.txt.gz
Dewpoint
52 39 28 21 21 17 16 19 24 46 47 49 49 49 49 55 55 53 60 61 63 65 66 66 71 71 71 72 72 72 71 70 70 70 70 70 69 69 69 68 67 67 66 64 64 64 64 62 60
30 21 16 21 16 13 16 21 26 49 50 51 51 52 51 55 59 61 62 64 63 65 65 65 70 71 71 71 71 71 71 70 70 69 69 68 68 68 69 67 67 66 64 64 63 62 61 60 61
27 18 17 13 13 7 13 22 45 48 49 48 47 49 52 55 60 62 63 64 63 64 66 68 70 71 71 71 71 71 70 70 70 69 68 68 68 69 68 67 67 64 63 62 61 60 60 61 61
19 10 17 17 11 8 17 44 45 46 46 47 48 50 53 62 60 64 64 64 64 66 67 69 70 71 71 71 71 70 70 70 70 70 68 67 66 67 67 66 65 63 61 60 59 59 60 61 62
17 15 13 14 14 12 23 46 45 44 42 42 42 48 54 60 63 66 64 63 64 66 67 68 69 70 71 71 70 70 70 70 70 69 67 65 65 65 65 65 63 62 61 60 60 60 61 62 62
11 14 14 14 15 17 27 41 46 41 41 42 41 47 51 57 60 62 64 64 67 65 66 67 70 69 69 70 70 69 69 69 69 68 67 65 65 65 64 63 63 62 61 61 60 61 61 61 61
13 14 15 16 20 27 30 47 44 42 47 47 40 45 56 58 61 64 63 63 64 64 65 66 67 68 69 68 68 68 68 68 67 67 67 66 66 66 65 64 62 62 61 61 61 61 62 61 61
12 17 15 20 26 29 40 43 42 44 42 45 47 45 52 58 64 60 66 64 63 64 63 64 65 65 66 66 67 67 67 66 66 65 65 64 64 64 64 64 63 62 61 61 62 62 61 60 59
18 17 15 35 37 35 43 42 52 45 40 45 46 48 50 62 64 64 63 64 63 62 60 59 58 60 61 62 65 66 66 65 64 63 64 62 57 59 60 62 63 61 61 61 61 61 60 60 61
15 16 23 30 43 49 42 39 38 38 41 42 49 58 60 61 61 61 60 61 60 59 57 57 60 59 57 52 59 58 57 55 58 58 60 59 60 61 60 61 62 62 61 61 61 60 60 60 51
15 17 24 25 40 38 34 39 40 37 33 38 42 57 58 57 58 59 59 57 57 53 51 55 58 58 56 57 55 54 53 58 60 62 61 62 60 62 60 59 61 62 62 55 56 55 52 55 54
18 19 17 31 40 31 34 35 35 36 45 34 52 54 56 55 55 56 56 54 47 48 52 54 57 58 57 54 51 53 53 57 58 60 63 63 62 64 62 58 58 62 56 56 54 52 56 55 54
18 22 32 42 29 32 34 31 41 36 36 40 50 51 53 53 53 53 51 45 43 46 51 55 56 58 59 58 59 59 59 61 63 63 64 67 67 66 65 65 59 58 57 54 54 53 52 52 51
21 27 31 29 31 32 34 33 34 37 39 46 49 50 49 48 49 47 42 41 43 47 53 56 57 58 59 60 62 63 61 61 60 62 64 64 64 63 61 60 58 56 54 53 53 52 51 50 51
18 27 27 24 31 30 31 28 28 37 40 43 45 45 45 42 43 41 41 42 44 48 55 57 58 59 60 59 58 58 57 57 58 59 61 62 63 62 61 58 56 54 52 53 51 50 51 48 46
21 21 19 20 24 29 26 21 28 38 40 40 40 42 42 41 38 39 40 40 43 49 54 57 57 60 60 60 58 58 58 59 60 59 58 60 60 58 56 54 53 52 49 48 49 47 45 45 43
15 16 17 18 22 21 24 19 28 36 38 40 40 41 42 42 40 44 46 45 44 48 54 58 61 61 61 59 59 59 59 59 59 57 54 55 54 53 52 50 49 48 46 47 46 45 44 41 39
12 13 15 17 21 18 14 19 33 37 34 40 42 43 43 44 45 49 50 51 49 51 55 60 61 61 60 62 60 59 58 57 54 51 50 50 49 48 47 48 49 47 46 46 45 44 41 38 36
11 9 10 10 11 12 13 21 26 35 37 40 42 44 45 46 49 51 53 54 53 56 58 61 60 61 61 60 57 54 53 52 49 46 47 47 47 47 49 46 46 47 43 44 43 40 39 36 35
15 14 12 13 14 19 17 21 27 37 39 40 41 43 45 47 51 53 55 57 57 58 59 60 59 59 58 54 54 53 50 46 44 46 48 47 48 47 45 48 45 44 42 40 40 40 37 35 34
17 18 19 16 19 17 21 23 29 33 37 40 41 43 45 48 51 53 55 57 58 58 58 59 57 57 54 51 49 49 47 47 44 46 46 47 47 46 46 45 44 42 39 36 39 39 37 34 33
18 22 18 17 20 15 22 14 27 32 37 40 43 45 46 48 50 52 53 55 56 56 55 52 52 51 49 49 46 47 41 42 46 46 46 46 47 45 42 41 40 41 40 40 39 35 39 37 32
26 24 21 18 17 22 19 11 26 32 33 36 42 44 46 47 48 46 47 48 49 51 51 51 50 48 49 47 47 46 46 47 46 46 45 44 44 42 40 38 39 40 39 39 40 40 38 36 34
28 25 24 23 21 20 16 17 17 27 27 34 39 42 45 47 45 41 42 43 47 50 50 49 47 46 48 48 48 48 47 45 43 41 40 38 36 35 36 35 39 39 39 39 38 43 41 39 38
24 24 24 23 20 19 22 21 17 29 30 32 39 42 46 47 42 40 41 42 46 48 49 48 46 45 48 49 48 46 44 41 40 39 37 36 33 33 35 37 38 36 37 38 40 41 41 38 38
24 22 22 15 17 15 24 12 21 32 32 35 40 43 46 44 41 41 42 43 45 47 48 47 46 45 46 45 43 42 39 39 38 37 36 36 36 36 38 38 37 37 37 40 38 42 41 39 41
26 22 26 23 27 26 13 20 32 32 33 36 39 42 44 41 41 41 42 44 46 47 48 48 46 44 43 41 39 39 39 40 39 38 39 37 38 33 34 36 36 35 35 35 38 39 39 40 39
27 28 24 24 21 16 9 12 18 28 31 35 38 41 41 40 42 42 43 46 46 47 47 49 46 41 37 37 38 36 39 37 37 37 35 34 33 31 30 31 30 30 32 33 33 38 37 38 39
27 24 23 24 24 21 12 12 24 23 30 32 36 39 39 41 42 43 44 46 47 47 47 44 40 37 36 35 37 39 36 33 32 31 30 29 30 29 29 29 30 31 31 31 33 37 36 33 34
26 24 25 28 21 24 27 16 24 27 30 32 33 37 39 41 42 43 44 45 45 44 42 39 38 37 37 37 39 30 30 30 29 27 27 30 30 31 31 31 30 31 30 31 32 32 33 32 32

GFSSGP_sfc_dewp_054.txt.gz
Dewpoint
53 45 37 26 19 20 16 16 19 31 42 49 48 51 54 56 56 54 65 63 64 64 66 68 71 71 71 72 72 71 71 71 71 71 71 71 70 70 69 69 68 66 65 64 64 62 60 60 61
35 34 25 15 16 12 12 22 40 53 55 54 56 50 53 57 59 62 63 65 64 64 63 67 71 71 71 71 71 71 71 71 70 70 70 69 69 69 68 67 67 66 64 62 60 60 61 61 62
35 24 16 12 11 14 12 46 41 53 52 54 50 52 53 57 61 62 65 66 65 63 65 69 70 71 71 71 71 71 71 70 70 70 69 69 69 68 66 67 66 65 62 60 60 61 61 62 63
22 19 12 14 15 12 10 48 48 53 49 50 48 49 53 58 61 64 65 67 66 67 68 69 69 70 71 71 71 70 70 70 70 69 68 67 67 66 66 66 65 62 61 60 61 61 62 63 63
19 16 7 11 14 14 17 44 48 48 42 43 48 49 50 60 64 65 66 67 66 68 68 69 68 69 71 71 70 70 70 70 69 68 67 66 66 65 65 65 64 63 61 61 61 61 62 63 63
15 12 12 14 15 17 17 50 48 43 41 40 42 48 51 58 61 64 67 67 68 67 68 68 69 69 70 70 69 69 69 69 68 67 67 66 66 65 65 65 64 63 62 62 62 62 62 62 62
12 13 12 15 17 23 35 48 48 47 43 45 43 46 51 56 59 61 66 65 66 68 67 67 68 69 68 68 68 68 68 68 67 67 66 66 66 65 65 64 64 63 63 62 62 62 62 62 61
11 13 13 16 15 40 49 49 50 45 45 45 49 49 50 56 62 63 64 64 66 67 66 66 67 67 67 67 67 67 66 66 65 65 64 64 64 64 64 64 64 63 63 62 61 63 62 62 61
14 12 14 17 31 42 45 50 54 50 46 44 49 48 54 60 58 59 60 62 63 65 65 65 65 66 65 66 66 66 65 65 64 63 63 62 59 61 62 62 63 63 62 62 62 62 62 61 61
14 16 15 26 39 43 46 47 50 47 50 49 55 54 56 61 55 54 57 60 61 61 60 61 62 63 63 58 64 63 61 60 60 60 61 61 63 62 60 61 63 63 63 63 63 62 61 61 56
14 15 19 42 43 44 44 47 50 36 39 34 52 57 59 60 57 55 56 61 61 60 58 59 62 61 59 58 60 58 58 61 62 63 63 63 63 64 63 64 64 63 63 61 61 59 58 57 57
13 15 26 41 43 40 42 47 37 37 37 44 55 55 55 57 58 60 58 59 55 52 54 57 60 61 60 58 59 58 58 62 63 64 63 65 65 65 64 63 63 62 60 58 58 58 57 56 54
16 19 37 38 36 35 34 38 38 42 42 49 53 52 52 54 55 59 61 50 49 51 54 57 59 61 60 61 63 63 64 64 65 66 66 66 65 63 63 64 62 61 59 57 55 55 54 53 52
21 23 35 35 37 38 37 41 41 41 44 44 45 50 50 53 55 59 47 44 46 50 55 56 58 62 62 63 64 62 61 59 60 62 63 64 64 64 63 62 62 59 57 56 54 55 52 51 51
25 27 28 28 36 29 37 37 36 39 44 42 42 45 43 45 53 43 42 43 47 53 56 57 59 61 61 60 60 58 58 58 58 60 62 62 62 62 59 57 55 54 54 52 51 50 51 49 47
22 26 22 19 24 30 32 29 33 38 41 41 42 42 43 43 40 40 43 44 48 54 56 56 57 61 61 60 58 58 59 59 60 58 59 59 59 57 57 55 54 53 51 50 50 49 46 45 44
22 23 21 21 20 27 28 26 33 37 37 38 39 40 39 39 39 41 42 44 48 55 57 60 61 61 60 60 60 59 60 60 59 57 56 56 55 54 53 53 52 52 50 51 48 47 46 42 40
18 18 19 18 17 23 23 21 29 35 38 39 39 40 40 39 40 45 47 49 47 56 59 62 61 60 59 60 60 59 60 58 57 55 53 53 52 52 52 52 50 50 48 48 47 45 43 42 40
18 17 17 19 17 16 15 20 26 29 34 40 39 40 41 42 47 50 52 55 53 57 61 62 60 59 60 59 58 55 55 54 52 51 51 51 50 50 51 51 50 49 47 46 43 42 41 40 40
14 16 11 11 10 15 13 18 21 27 29 37 39 41 43 44 48 51 54 57 57 60 61 61 60 59 59 59 58 56 54 52 50 51 51 51 50 49 48 49 47 47 45 43 43 42 41 39 40
19 25 26 16 12 14 18 14 23 27 31 35 39 42 44 47 49 52 55 58 60 61 61 59 59 59 59 57 54 54 53 51 49 50 50 50 49 48 47 47 46 44 43 42 42 41 40 38 38
26 27 25 21 22 13 25 21 30 27 32 35 39 41 43 46 50 52 56 57 59 58 60 59 59 58 56 53 52 51 47 47 49 50 50 49 50 46 45 43 43 43 43 42 42 39 40 39 37
29 26 28 17 16 25 25 24 29 29 29 35 39 42 45 47 50 51 55 56 57 59 59 57 54 52 52 51 51 51 50 51 50 49 48 47 47 46 44 42 43 42 43 43 43 43 42 40 38
30 30 25 22 23 26 26 27 25 27 29 34 38 42 45 48 49 49 51 52 52 56 56 56 51 49 51 51 52 50 51 48 47 46 44 44 42 41 40 39 42 43 42 42 42 40 41 41 40
25 25 25 31 31 24 15 23 27 34 37 37 39 42 46 47 47 45 45 46 48 50 52 51 48 48 50 51 51 51 48 45 43 43 43 41 40 40 41 42 41 41 40 41 41 41 41 41 40
32 20 31 25 29 24 27 16 24 30 31 36 39 41 45 47 45 43 43 46 48 50 50 49 47 47 49 50 48 47 44 45 43 43 40 42 41 41 42 41 40 40 40 40 40 41 41 41 41
25 23 26 22 24 30 19 13 32 30 31 34 39 42 45 47 43 41 43 46 48 49 50 51 48 47 48 47 46 44 44 42 41 41 42 42 41 34 37 37 36 36 37 37 38 37 39 38 39
24 22 26 25 25 22 12 14 25 29 29 33 38 42 45 45 43 42 43 46 47 48 49 52 50 45 42 42 43 41 40 40 43 40 39 38 36 35 35 35 35 35 35 36 36 35 37 37 38
25 25 21 18 27 29 27 19 30 27 30 32 36 41 44 43 42 42 43 46 48 50 49 50 48 41 40 40 41 41 42 40 36 35 35 33 34 34 34 34 34 34 34 35 35 36 34 35 35
23 25 23 33 23 30 32 23 25 30 32 32 32 39 42 41 42 43 44 47 48 48 48 47 44 41 39 40 41 43 41 35 34 34 32 34 33 35 34 35 34 34 34 37 36 35 35 34 33

GFSSGP_sfc_dewp_057.txt.gz
Dewpoint
56 50 43 33 21 22 18 18 20 49 53 55 56 56 57 59 57 52 65 65 67 68 70 70 71 71 71 72 72 72 71 72 71 71 71 70 70 69 68 68 67 66 63 61 60 61 61 61 62
40 40 38 27 15 14 14 25 50 53 53 54 55 54 56 57 61 64 65 65 66 67 69 70 70 71 71 71 71 71 71 71 70 70 70 70 69 67 66 66 66 65 61 61 61 62 61 61 62
44 35 24 13 11 12 14 51 50 51 51 52 50 54 57 58 62 63 66 66 65 66 68 70 70 70 71 71 71 70 70 70 70 70 70 69 67 66 65 66 65 63 61 61 62 62 61 62 63
28 21 18 9 8 12 13 50 52 51 52 51 51 51 56 60 63 65 67 65 65 67 69 69 69 70 71 71 70 70 70 70 69 69 69 67 66 65 65 65 64 61 61 62 62 61 61 63 63
24 20 11 12 9 18 34 47 50 48 51 50 50 49 54 63 65 66 67 67 67 67 68 68 68 70 70 70 70 70 69 69 68 68 67 67 65 64 64 65 64 63 62 61 62 62 62 63 62
25 16 11 9 11 47 49 51 48 46 44 48 49 50 54 63 64 66 67 67 67 66 67 66 69 69 69 69 69 69 68 67 67 67 67 66 66 65 65 65 64 64 63 62 62 63 62 61 61
18 14 12 10 10 47 48 51 50 47 43 44 49 50 55 56 62 66 66 66 66 67 67 68 67 67 67 67 67 67 67 66 66 66 66 65 65 65 65 65 64 64 63 63 63 62 61 61 60
17 12 9 10 24 45 48 49 53 51 47 48 53 50 54 56 61 63 65 65 65 66 67 66 67 67 66 66 66 66 65 65 64 64 64 64 63 63 64 63 63 63 63 63 62 62 61 61 61
20 13 10 12 36 44 46 47 50 54 49 51 54 53 57 61 61 60 61 62 63 64 66 66 66 66 66 66 65 65 65 64 63 63 63 62 61 61 62 62 63 63 63 62 62 61 61 60 60
15 14 15 38 42 44 45 48 49 48 48 48 51 56 60 59 59 61 60 59 61 62 65 65 65 65 64 63 63 63 62 61 60 60 61 59 60 60 61 61 62 63 63 62 62 62 61 60 56
15 14 31 42 43 45 45 46 49 46 43 47 48 53 58 54 56 58 60 60 60 61 62 63 63 63 58 61 62 60 59 59 60 59 59 61 62 62 63 62 63 62 63 61 61 59 57 55 54
14 32 43 44 44 45 45 46 44 47 44 48 51 56 58 54 55 56 59 60 61 60 58 57 58 56 56 60 59 57 57 61 63 64 63 62 62 62 61 61 62 61 59 56 56 55 53 52 51
15 37 38 40 39 40 41 39 37 40 53 55 55 59 59 56 56 58 60 60 57 56 55 56 56 55 56 60 62 62 62 63 63 63 65 63 62 61 62 61 57 56 56 54 53 53 49 50 50
24 34 36 36 36 40 36 38 39 46 52 56 56 56 58 58 58 59 61 57 52 54 55 56 57 57 62 60 58 58 58 59 60 61 63 63 62 60 60 58 57 56 54 50 50 48 49 48 47
29 28 35 36 37 35 41 38 38 42 51 53 51 53 55 56 54 56 57 53 51 54 54 56 58 61 60 58 57 57 56 57 59 60 60 60 59 57 55 54 52 51 49 49 49 46 45 44 42
25 26 25 32 33 36 33 30 39 43 43 43 43 50 49 57 54 56 56 47 53 54 54 56 59 58 58 57 58 58 58 58 57 58 57 56 55 54 53 50 49 50 49 49 47 45 43 41 40
24 24 24 26 34 34 32 29 36 41 41 41 42 40 46 42 43 42 46 51 54 54 55 59 59 59 58 58 57 58 58 57 56 55 54 53 52 52 51 50 49 50 49 47 45 44 42 40 39
22 23 22 21 33 33 29 28 35 37 38 39 40 38 38 38 40 42 44 51 55 57 60 60 59 58 58 58 57 57 57 56 55 52 52 51 51 51 51 49 48 47 45 45 44 41 40 39 39
23 21 21 21 20 25 24 29 34 37 43 40 43 39 38 39 45 45 49 49 55 60 60 59 57 58 58 57 56 56 54 54 52 51 51 50 49 49 49 48 47 45 43 42 41 40 38 38 39
24 23 23 20 20 20 20 21 26 40 39 34 38 44 40 47 48 50 51 53 59 60 60 58 57 58 58 57 57 54 53 51 49 49 49 49 48 48 48 46 44 42 40 41 40 39 38 37 38
26 26 24 22 23 15 15 20 27 29 42 41 38 44 43 47 49 52 54 59 60 60 59 58 58 58 58 58 58 53 51 49 48 48 47 47 48 46 45 43 43 41 40 39 38 38 37 36 37
28 29 28 26 25 18 25 25 28 30 30 40 42 43 47 48 51 53 57 58 59 60 60 59 59 58 59 59 53 51 46 45 46 48 48 47 47 45 43 41 40 40 41 39 40 39 38 38 36
30 29 30 30 26 26 26 26 27 29 31 33 38 41 44 49 51 54 56 57 58 59 59 58 58 58 56 51 50 47 47 48 49 49 48 48 47 45 43 41 39 40 41 41 41 41 38 38 36
31 29 32 34 30 25 25 27 25 27 30 35 38 42 46 49 52 56 56 57 57 57 58 58 54 49 48 49 49 48 47 45 43 42 42 42 40 40 40 40 40 39 38 38 39 39 39 39 39
30 29 27 27 27 26 27 27 27 32 38 38 40 42 47 50 50 53 54 53 52 51 51 48 48 47 48 49 47 43 42 40 40 40 41 39 39 40 40 39 38 38 38 38 39 38 39 40 39
29 31 28 24 27 26 31 27 29 33 36 37 40 43 47 46 46 47 47 48 48 48 47 46 47 47 49 46 44 42 43 42 41 40 41 40 40 40 36 34 34 34 34 35 35 36 37 39 39
33 35 34 29 32 24 25 29 33 33 36 40 40 44 45 44 43 44 46 47 48 48 48 47 46 48 48 44 42 41 40 39 39 40 41 42 37 32 33 33 32 33 33 34 34 35 34 37 37
29 34 27 29 17 17 20 21 29 31 33 38 40 43 45 45 42 42 45 47 48 48 49 49 47 45 41 41 41 39 38 38 41 40 39 35 32 32 32 32 32 32 33 34 35 36 36 36 36
27 25 25 24 29 22 22 22 32 33 34 36 40 43 45 45 42 42 43 47 47 48 48 47 41 40 39 37 38 38 38 40 37 35 33 30 31 31 32 32 32 33 34 36 36 35 34 34 33
24 26 31 26 22 28 26 24 25 29 33 34 37 42 45 44 42 42 43 46 47 48 48 41 39 38 38 38 40 41 42 38 33 31 30 31 30 32 32 33 33 34 36 34 34 33 33 33 31

GFSSGP_sfc_dewp_060.txt.gz
Dewpoint
55 51 42 33 21 21 19 19 20 39 50 55 56 56 57 59 56 50 65 66 68 69 70 71 71 72 72 71 71 71 71 71 70 70 70 70 68 67 66 66 66 63 61 61 62 61 61 61 61
47 44 37 26 15 12 13 22 34 51 52 55 55 57 56 57 62 63 63 66 69 69 70 70 70 71 71 71 71 70 71 70 70 70 69 68 66 66 65 64 64 63 62 61 61 60 60 60 61
41 34 26 20 11 9 12 45 49 50 51 54 51 56 57 59 63 64 63 65 68 69 69 70 70 70 71 71 70 70 70 70 70 70 69 66 65 65 64 64 64 63 62 61 61 60 60 61 63
27 22 19 10 9 10 24 40 53 52 51 51 51 52 58 63 63 65 65 66 67 68 69 69 69 70 70 70 70 70 70 70 69 69 68 66 65 64 63 64 64 63 62 61 60 60 61 63 62
24 19 15 7 8 38 49 49 49 48 51 49 49 51 56 64 66 66 64 66 67 68 68 68 68 69 69 70 70 69 69 68 68 68 67 66 64 63 64 65 64 64 62 61 61 60 62 62 61
25 16 11 9 15 47 49 51 50 49 47 48 49 52 55 64 65 66 67 67 66 65 66 66 67 67 67 69 69 68 68 67 67 67 67 66 65 65 64 65 64 64 63 63 62 62 62 61 62
23 17 12 11 12 46 48 51 51 49 46 46 51 52 56 63 65 66 66 66 65 65 66 66 66 65 67 67 67 66 66 66 66 66 65 65 65 65 65 64 64 64 63 63 62 61 61 61 62
20 14 11 10 15 40 48 50 53 49 48 51 55 52 52 59 65 65 65 65 65 65 65 65 65 67 66 66 66 65 65 65 64 64 64 63 63 63 64 63 63 63 63 62 61 61 61 60 61
18 15 13 13 28 43 47 48 49 53 49 51 54 53 57 61 63 62 63 63 63 64 64 64 66 66 66 65 65 64 64 64 63 63 63 62 60 61 61 62 63 63 62 62 61 61 60 60 60
15 13 13 29 44 44 45 48 48 49 48 49 52 59 60 59 60 59 59 60 61 62 63 65 65 65 64 63 63 62 61 61 61 60 60 59 60 60 61 61 62 62 62 62 62 62 61 58 54
16 13 31 42 44 44 43 47 49 46 43 47 49 58 60 58 58 57 58 60 59 60 63 65 64 64 63 62 61 60 60 59 59 59 59 59 61 61 61 61 62 61 62 59 56 53 53 52 51
14 25 38 44 45 45 44 47 47 46 44 48 49 58 58 58 58 56 57 57 58 60 62 63 63 61 59 61 59 58 58 60 61 63 63 62 61 60 60 61 60 57 55 54 53 51 50 49 48
20 40 41 43 42 43 44 39 41 45 54 52 56 57 55 55 57 57 58 58 58 60 60 59 61 56 58 59 59 61 62 63 63 63 63 62 61 61 59 57 56 54 53 51 49 49 47 45 44
34 37 38 38 40 40 38 38 42 45 51 52 53 56 55 55 58 60 60 60 58 58 55 55 56 57 61 60 59 59 60 60 61 62 62 61 60 58 57 55 54 53 50 49 47 45 43 42 41
34 35 35 36 37 34 38 33 38 44 49 54 54 56 54 54 57 57 58 58 54 55 54 55 58 60 58 57 57 56 58 60 60 60 60 58 57 55 53 52 50 49 49 47 45 43 42 40 39
25 27 26 34 34 34 34 32 36 46 49 52 55 55 53 54 55 56 57 57 54 54 54 56 60 58 57 57 57 56 57 57 57 58 56 56 55 52 49 49 49 50 48 46 44 42 40 39 38
24 22 25 33 33 31 31 30 39 48 48 48 53 54 51 50 52 52 57 52 53 53 54 59 59 58 57 57 57 56 56 56 56 54 53 52 52 51 49 49 49 49 47 45 44 42 40 38 37
22 23 24 26 33 34 31 30 37 43 43 43 50 53 50 50 51 53 54 51 53 54 57 59 58 58 57 57 56 56 55 54 54 52 51 50 51 51 50 48 47 45 43 43 41 38 39 38 37
26 25 24 25 27 33 29 27 33 38 41 42 47 51 52 51 50 53 53 52 53 57 58 58 57 57 57 56 55 54 53 54 52 51 51 49 49 49 47 47 44 43 41 41 39 39 37 36 37
31 29 26 24 24 31 25 26 34 40 40 41 40 39 40 43 43 46 49 54 58 58 58 58 57 57 56 56 56 55 54 53 51 50 49 48 48 48 46 44 42 41 40 39 38 38 37 37 37
30 29 25 23 25 25 21 25 29 35 39 40 40 41 41 45 47 49 52 58 59 58 58 57 57 57 56 56 56 53 50 49 48 48 47 47 47 46 45 43 42 40 40 39 38 38 36 35 36
28 29 27 25 22 14 24 20 28 29 38 40 41 43 44 47 49 55 58 59 59 58 58 57 57 57 56 58 56 52 48 46 47 47 47 47 46 44 43 42 41 40 41 39 40 39 38 37 36
30 32 29 29 27 25 26 20 21 29 31 36 39 43 45 48 50 56 58 58 59 59 58 58 58 58 58 58 55 51 47 46 48 48 47 47 46 45 43 41 40 40 41 39 38 39 37 38 36
29 29 33 33 30 24 26 23 22 25 27 32 38 42 46 48 52 56 58 59 59 59 58 58 57 58 57 55 51 49 47 47 47 46 44 43 41 42 41 39 39 38 38 38 38 38 38 38 38
29 29 25 24 25 24 28 27 25 28 30 31 36 41 45 49 55 56 56 57 57 57 57 56 54 49 49 48 47 46 43 42 41 41 41 40 40 41 39 39 36 36 35 34 34 34 34 36 38
32 28 26 20 22 22 30 25 26 33 33 37 40 45 49 52 54 55 56 55 55 54 54 51 48 48 46 43 42 42 41 41 41 41 42 41 41 39 39 35 33 32 33 33 34 34 34 35 37
31 30 35 30 30 24 23 25 32 33 34 37 40 46 48 49 53 53 52 51 49 47 47 47 47 48 44 42 41 41 41 40 41 42 42 43 41 36 34 32 32 32 32 34 35 35 35 35 35
27 33 30 32 17 16 19 22 28 31 36 39 40 45 46 46 48 49 50 48 48 47 47 47 47 46 42 41 40 40 39 41 41 42 42 38 35 33 32 31 31 31 34 36 35 34 34 34 33
27 27 28 27 27 21 21 21 28 32 36 38 40 44 46 44 45 47 48 48 48 48 47 47 45 42 40 39 39 39 40 41 40 37 36 33 32 32 31 32 31 32 35 36 34 34 34 33 32
29 28 29 26 20 27 24 21 26 33 34 39 40 44 46 43 43 44 47 47 48 48 46 44 42 39 37 38 40 41 41 41 39 33 32 33 31 32 32 32 32 33 36 35 33 32 33 32 31

GFSSGP_sfc_dewp_063.txt.gz
Dewpoint
54 47 40 31 20 22 21 18 21 21 46 55 56 56 55 58 53 47 64 64 67 69 70 71 71 71 71 71 71 71 71 69 69 69 68 67 66 66 65 65 64 63 62 61 60 60 60 62 64
46 44 33 20 15 11 11 17 39 44 52 57 56 56 57 57 62 63 63 67 67 69 69 70 70 70 70 70 71 71 70 69 69 68 67 66 65 64 63 63 65 64 61 60 60 59 61 62 64
39 33 27 20 12 9 10 30 48 50 51 53 53 56 57 59 62 63 65 67 67 69 69 70 69 69 70 70 70 70 70 70 69 68 66 65 64 63 62 64 65 64 61 60 60 60 60 62 64
27 21 18 11 10 10 32 43 50 51 49 51 52 52 59 64 63 64 66 68 68 69 69 68 68 69 70 70 70 70 70 69 69 67 67 65 63 62 62 65 65 63 61 60 60 60 61 63 62
24 19 15 8 7 28 48 49 48 47 50 49 50 52 56 64 65 63 65 67 68 69 69 68 68 69 70 70 70 70 69 69 68 67 66 65 64 63 64 65 65 64 62 61 61 61 63 63 62
25 16 10 10 10 47 48 50 51 48 48 48 51 53 56 65 63 64 67 66 66 66 66 66 67 67 67 68 69 68 68 68 67 67 66 65 65 64 65 65 65 64 63 63 62 63 63 63 62
22 19 14 11 11 31 47 50 48 47 46 49 52 52 57 63 65 66 66 65 65 65 65 66 66 66 66 67 67 66 67 67 67 66 65 65 65 64 65 65 64 64 63 63 62 62 62 63 63
22 17 12 12 10 21 48 49 52 50 46 52 54 51 54 62 65 65 65 64 64 64 65 65 65 65 66 65 65 65 65 65 65 65 64 64 64 64 64 64 64 63 63 63 63 62 62 61 62
19 16 15 14 22 32 48 48 51 52 49 51 55 54 60 63 64 63 63 63 63 64 64 64 64 65 65 65 64 64 65 64 64 63 63 61 60 60 60 62 63 63 63 63 63 62 61 58 59
16 14 13 16 37 42 45 47 48 48 47 49 56 60 62 61 62 61 60 60 61 62 60 60 63 65 65 63 63 62 62 61 61 60 59 59 59 60 61 61 62 63 63 63 61 59 57 54 50
17 15 15 40 43 44 43 46 49 46 44 47 54 56 59 59 59 60 60 60 59 61 61 62 63 64 63 62 61 60 59 59 59 59 58 59 60 62 61 61 61 60 58 53 52 50 49 47 46
16 15 31 40 45 43 43 47 46 45 45 48 57 58 57 56 58 58 58 59 59 60 60 62 63 63 62 61 59 58 57 58 59 59 60 61 60 60 59 57 56 55 53 51 50 49 46 44 42
18 38 42 44 44 44 44 42 42 45 54 54 58 57 57 56 56 57 58 57 58 58 60 62 63 60 60 59 57 58 60 61 62 62 62 61 59 58 57 55 53 51 50 48 46 44 42 41 39
35 38 37 40 40 42 37 40 41 47 52 56 57 56 57 55 55 56 57 56 55 57 60 59 60 57 59 59 60 61 62 62 62 61 61 61 59 56 55 53 52 51 48 46 44 42 40 39 38
37 34 37 38 38 34 37 36 39 49 49 54 54 55 56 54 54 52 55 57 58 58 57 57 56 60 59 59 59 59 60 61 60 60 59 58 56 54 52 51 49 48 46 45 42 40 39 38 37
27 31 31 33 35 35 33 32 40 47 51 53 54 54 54 53 54 55 57 58 58 57 55 55 59 58 58 57 57 58 58 58 58 58 56 55 54 51 49 49 49 48 46 44 42 40 38 38 37
24 22 28 31 33 32 31 31 42 45 51 52 55 53 53 54 55 55 58 58 56 55 54 58 58 57 56 56 56 56 56 56 56 55 54 52 50 49 49 49 48 46 45 44 41 40 38 36 35
23 22 25 27 28 33 30 29 43 46 49 51 54 53 52 53 53 54 56 57 54 54 55 59 58 57 56 56 55 55 54 54 53 52 51 51 51 50 48 47 47 44 43 41 39 37 38 37 35
29 27 25 26 26 32 31 29 34 45 44 49 51 53 51 51 49 52 56 55 53 53 57 58 57 56 56 55 54 53 52 52 50 50 50 50 50 49 47 45 43 42 41 39 38 38 36 36 36
30 29 27 28 27 29 29 28 29 40 42 47 50 52 50 49 49 51 54 52 54 56 57 57 57 56 56 55 55 55 53 52 50 50 49 49 48 47 45 43 42 40 41 39 38 37 37 37 37
28 29 28 27 24 27 24 26 30 40 41 44 49 50 51 49 48 49 52 52 56 56 57 57 57 56 56 56 54 52 51 49 49 48 47 47 48 46 45 43 42 40 40 38 37 37 36 35 36
27 30 30 27 20 19 22 19 27 35 39 40 43 42 44 47 47 47 49 55 56 56 57 57 57 57 57 56 55 53 49 47 48 47 47 47 47 46 44 42 41 40 40 39 39 39 37 37 36
28 31 29 29 26 24 25 19 21 29 36 38 38 41 40 44 44 45 49 55 57 57 57 57 57 57 57 57 56 52 48 47 47 47 46 47 45 44 42 40 40 40 40 38 37 37 37 38 36
31 31 30 31 28 22 24 22 22 26 29 36 38 39 41 46 49 51 52 57 58 58 57 57 57 57 57 57 55 52 48 47 47 47 46 43 42 42 40 39 39 39 39 37 36 35 35 36 37
29 27 22 22 23 21 27 26 26 27 28 31 36 39 42 46 53 56 56 57 58 58 57 57 57 56 56 56 53 51 48 47 47 45 42 40 40 40 39 40 40 37 33 33 33 33 33 33 34
31 26 24 18 20 20 28 25 25 30 33 34 34 40 44 47 53 55 57 57 57 57 57 57 56 51 51 50 49 46 44 44 43 41 41 42 41 39 41 41 36 33 32 33 33 33 34 35 35
31 29 32 28 28 24 24 23 26 31 35 38 45 45 47 50 54 55 56 56 57 56 56 53 50 47 44 44 43 41 42 42 41 42 43 44 44 42 39 35 33 32 33 34 34 34 34 33 34
28 33 28 30 19 16 17 20 21 26 31 38 41 46 49 51 54 55 55 55 55 55 54 49 48 44 42 41 41 40 41 41 42 45 45 44 42 37 35 33 33 32 33 35 35 34 34 33 32
29 28 28 28 25 20 20 20 26 30 32 36 38 44 47 49 53 53 53 53 52 50 49 48 47 43 41 41 40 40 41 42 43 42 42 41 37 34 33 33 32 32 34 35 34 33 33 31 32
28 27 28 24 20 26 24 21 24 31 33 37 37 42 47 47 50 51 52 50 47 47 47 47 46 42 40 40 38 41 42 41 43 44 42 35 32 33 33 32 32 32 33 35 33 31 32 31 31

GFSSGP_sfc_dewp_066.txt.gz
Dewpoint
53 43 39 28 21 21 19 17 24 20 33 56 57 56 54 58 52 48 63 64 68 70 70 70 70 70 70 70 71 70 70 70 69 68 68 67 66 65 65 65 65 64 61 60 61 63 66 66 66
44 43 32 20 15 11 8 16 35 48 51 57 55 56 57 57 61 62 61 67 69 69 69 70 70 70 70 70 70 70 70 70 69 68 66 66 64 64 64 64 65 64 62 61 62 63 66 66 67
37 30 27 17 12 8 8 12 46 49 51 53 54 57 57 58 62 62 66 68 69 69 68 69 69 69 70 70 70 70 70 69 68 68 66 66 64 63 63 65 64 63 63 61 61 63 65 66 66
25 21 17 13 15 10 12 41 48 51 50 51 53 52 59 64 64 64 67 68 68 68 69 68 68 69 70 70 70 70 70 69 68 67 67 65 63 63 64 65 64 64 62 60 61 61 62 64 65
23 19 15 11 7 11 48 48 49 47 49 49 50 53 54 64 64 66 66 68 68 68 68 68 68 69 70 70 70 70 69 68 68 67 66 65 64 63 65 65 65 64 63 61 61 61 63 63 63
25 16 11 12 10 29 48 49 50 48 48 49 52 52 57 63 64 65 66 66 67 67 67 67 67 68 67 66 67 69 68 68 67 67 66 65 65 65 65 65 64 64 64 64 63 64 63 62 63
22 19 16 11 11 11 46 50 48 47 46 49 53 51 58 62 65 65 65 65 65 65 65 66 66 66 66 66 67 67 67 67 67 66 66 65 65 65 65 64 64 64 63 63 64 63 63 62 62
22 18 19 12 12 14 46 49 52 50 47 52 54 51 55 62 65 64 64 64 64 64 65 65 65 65 65 65 66 66 66 66 65 65 64 64 64 64 64 63 64 64 64 64 63 62 63 61 60
19 17 16 15 16 20 48 47 50 52 49 53 57 55 60 64 64 63 62 63 63 64 64 65 65 64 65 65 65 65 65 65 64 63 63 61 60 59 60 63 63 64 64 63 61 60 58 57 58
19 16 15 16 18 41 46 47 46 47 47 53 55 60 62 63 62 61 60 60 61 60 61 62 63 62 64 63 62 62 62 61 61 60 59 59 59 60 60 62 63 63 61 60 58 56 54 49 46
16 17 16 18 43 44 43 46 49 46 43 50 54 58 60 60 60 60 60 60 57 59 60 61 62 63 62 62 61 60 59 59 59 58 59 59 61 60 61 61 60 56 54 50 48 45 44 43 43
18 17 18 39 43 42 42 46 46 43 49 53 56 58 58 58 59 59 59 58 57 58 59 59 59 62 62 61 59 58 58 58 58 59 60 61 61 59 57 57 55 52 50 48 46 44 43 41 41
17 30 39 44 44 43 45 42 43 48 55 57 56 56 56 57 58 59 59 58 57 57 58 56 57 61 61 59 57 57 58 59 60 60 61 60 59 56 55 53 51 49 47 44 43 41 40 39 38
36 37 39 43 43 43 38 40 41 50 57 55 55 55 56 57 57 57 58 57 55 55 57 59 61 60 59 57 57 58 60 61 61 61 60 60 57 55 53 52 50 49 45 43 41 39 38 37 37
37 35 36 38 40 37 38 37 43 51 54 53 55 55 56 56 56 54 55 55 56 55 59 59 60 58 59 58 59 60 60 61 60 60 60 58 56 53 50 49 47 46 44 42 40 39 39 37 36
32 30 31 33 34 35 35 32 44 49 52 48 51 55 55 54 53 55 54 54 54 55 57 57 59 59 58 58 58 59 59 59 58 58 57 56 53 50 49 48 48 47 45 43 41 39 37 37 35
23 22 27 30 33 31 31 32 41 47 52 52 51 53 55 53 52 53 54 55 56 56 55 56 59 57 57 56 56 57 57 57 56 56 54 52 50 50 50 49 47 46 45 43 41 40 37 35 35
23 23 25 25 26 32 30 30 43 44 51 52 53 53 53 53 51 55 57 57 56 56 55 58 57 56 55 55 55 54 54 54 54 53 51 49 49 49 49 47 46 45 43 40 39 38 38 37 36
27 27 26 26 26 28 29 29 42 44 48 51 52 53 52 53 53 54 56 56 54 54 57 57 56 55 55 55 53 52 52 52 52 50 50 50 49 48 47 45 43 42 40 38 38 38 36 37 36
30 29 26 28 26 28 30 29 30 44 47 48 52 53 52 52 50 52 55 55 53 53 56 57 56 55 55 54 54 53 52 52 50 50 50 50 49 48 45 43 41 41 39 39 38 37 37 37 37
28 27 27 26 25 28 27 25 29 37 44 44 49 52 53 51 50 49 53 55 53 54 56 57 56 56 55 55 55 53 53 50 49 49 48 48 48 47 44 43 41 40 39 38 37 37 37 35 36
26 29 30 28 23 19 22 18 25 33 40 41 44 49 51 51 50 49 51 54 53 54 56 57 57 56 56 55 54 53 52 49 49 48 47 47 47 46 44 42 41 40 40 39 39 39 37 37 35
27 31 31 28 25 26 23 19 20 34 37 39 41 46 48 51 50 49 49 53 54 55 55 56 56 56 56 56 55 55 53 49 48 47 46 46 44 43 42 41 41 41 41 39 38 38 37 37 36
31 31 28 28 27 22 23 22 21 27 33 36 40 41 45 44 47 47 48 53 55 55 55 55 56 57 57 56 56 55 52 48 47 46 46 44 43 41 41 41 41 39 39 38 35 35 34 35 36
28 25 21 20 22 20 26 25 25 26 26 32 38 40 41 42 46 47 51 55 55 56 56 56 57 56 57 56 57 55 51 47 47 46 44 41 41 40 40 40 41 38 36 35 34 33 32 33 33
29 25 23 17 19 19 26 24 23 29 32 34 33 39 40 42 47 50 52 55 56 57 57 57 57 56 56 56 56 53 50 49 47 45 41 41 41 40 43 43 42 36 34 33 34 33 34 35 35
30 26 28 26 26 25 23 22 20 27 34 38 42 40 41 43 48 52 54 55 56 56 57 57 57 55 54 54 52 49 49 46 44 42 42 44 42 43 44 43 40 34 33 34 34 34 34 34 34
27 32 26 27 20 17 17 19 18 22 27 35 42 43 45 46 48 53 55 55 56 57 57 57 55 53 49 48 48 46 43 42 42 43 44 44 44 43 44 39 35 34 34 34 34 34 34 34 34
29 27 27 27 25 19 19 18 25 26 29 32 36 41 46 49 51 53 55 55 56 57 55 54 51 46 44 44 43 43 41 42 44 44 44 44 44 44 38 35 34 34 33 35 35 34 34 33 32
29 28 28 25 21 25 23 21 24 25 28 33 36 38 46 49 52 53 54 54 54 53 53 51 49 44 41 40 42 42 41 41 43 43 44 44 41 38 34 34 34 34 33 34 35 34 33 32 31

GFSSGP_sfc_dewp_072.txt.gz
Dewpoint
52 35 31 29 18 12 11 10 15 20 31 35 42 50 50 52 47 47 63 63 65 65 63 67 70 70 71 71 71 71 71 71 70 69 68 67 67 66 66 66 66 66 65 65 67 68 67 67 67
34 34 33 24 13 9 8 13 18 32 38 51 51 51 50 49 58 60 62 64 66 64 62 64 70 70 70 70 71 71 70 70 69 68 67 67 67 67 66 66 66 67 67 67 66 67 67 67 68
34 30 25 19 14 9 8 11 20 39 43 51 43 50 53 54 59 60 63 66 67 64 61 64 69 70 70 70 70 70 70 69 68 67 67 67 67 66 66 66 66 67 67 68 68 67 68 68 67
25 24 22 13 12 8 11 17 37 46 46 50 52 48 57 62 62 62 64 68 68 65 63 68 69 70 70 70 70 69 69 68 67 66 67 67 66 66 66 66 66 67 67 66 67 67 68 67 66
23 20 14 11 8 10 13 27 39 44 47 49 50 49 52 61 64 64 66 68 67 66 65 68 68 69 70 70 70 69 68 67 66 66 66 66 66 66 66 65 65 65 66 66 66 67 66 66 64
21 19 12 8 9 14 18 37 44 46 47 49 49 51 53 64 64 64 68 69 69 68 68 67 68 68 69 69 68 68 67 66 66 66 66 67 66 66 66 66 65 65 65 65 66 66 65 64 64
20 18 12 11 15 21 28 44 45 44 44 47 52 49 57 62 65 66 67 66 67 67 68 68 68 68 67 67 67 67 66 66 65 66 66 66 65 65 65 65 65 65 64 64 64 64 63 63 62
20 17 13 13 17 22 32 46 49 46 45 52 52 47 51 62 65 66 67 67 67 66 66 66 65 65 64 65 66 66 65 65 65 65 64 64 64 64 64 64 65 65 65 62 62 63 62 60 59
22 17 12 14 21 19 37 41 49 49 47 50 53 53 58 64 64 64 64 64 64 64 64 63 62 62 63 62 65 65 65 64 63 62 62 59 55 55 57 63 64 64 63 61 60 59 58 57 55
21 18 13 16 16 19 35 45 45 46 47 49 52 56 61 63 63 61 62 61 62 61 61 62 61 60 59 61 63 63 60 56 55 56 57 54 57 55 56 61 62 61 60 58 56 56 55 55 48
23 19 20 19 22 24 35 41 44 42 38 43 48 55 61 62 62 62 61 61 61 61 61 61 60 60 59 59 60 64 60 59 57 58 55 58 58 59 59 58 56 55 56 49 50 49 48 49 47
23 23 23 22 35 38 37 41 40 42 46 50 50 55 60 60 59 60 59 59 60 60 60 61 59 59 59 58 57 60 58 58 57 59 59 60 59 61 61 58 56 54 52 52 51 49 50 48 46
26 26 36 33 39 41 39 39 41 43 52 52 52 57 58 59 59 59 59 58 58 57 58 57 58 59 60 61 60 59 58 57 58 60 61 60 61 62 60 58 54 53 52 51 50 48 45 43 41
34 36 39 40 40 39 35 38 40 47 53 54 56 55 57 58 58 57 56 56 55 56 57 58 57 58 59 57 60 58 58 58 59 60 62 64 62 62 58 57 55 52 51 49 47 43 39 38 38
36 35 37 37 37 35 37 36 37 47 50 50 53 55 55 57 57 55 55 55 56 56 57 58 59 60 61 59 58 56 57 57 58 61 64 62 62 61 60 56 53 50 49 49 44 42 40 36 34
32 32 26 32 34 35 36 27 40 47 48 46 50 52 55 57 56 57 53 55 56 57 57 58 55 60 62 59 56 55 57 60 61 62 64 62 61 60 57 54 52 50 47 44 43 40 37 38 37
27 20 21 25 31 32 33 26 39 45 42 41 46 48 51 55 56 56 55 53 54 53 52 53 56 61 62 60 56 57 60 62 63 64 63 62 60 58 55 53 52 50 46 46 41 41 42 40 39
20 20 23 23 26 29 26 27 37 45 42 41 42 45 50 50 53 53 53 55 54 52 52 54 58 61 62 61 60 60 61 62 63 63 62 61 58 57 55 52 52 48 46 44 42 43 42 42 40
23 22 22 22 26 26 25 25 31 44 45 43 44 44 49 48 50 51 53 53 53 54 54 57 59 62 62 59 56 57 60 61 62 62 61 59 54 55 55 51 50 48 46 44 46 45 44 43 44
24 24 23 24 26 28 25 24 26 40 44 44 44 44 44 50 48 50 51 53 54 54 56 57 58 61 60 55 55 58 60 61 61 59 58 56 55 54 52 51 49 48 46 46 46 45 44 44 44
25 25 25 23 27 28 27 23 26 32 41 44 45 45 46 45 50 49 51 52 54 53 55 55 57 58 59 58 55 58 59 59 59 58 55 53 53 52 50 51 49 49 45 44 46 45 45 43 43
25 26 26 25 26 19 25 14 20 26 34 40 44 46 46 47 46 49 50 51 54 55 55 55 55 57 59 60 57 57 55 56 57 57 54 50 51 51 50 49 50 49 45 46 45 45 45 44 40
26 28 28 28 26 24 23 16 18 25 25 28 38 44 47 49 49 47 49 51 52 55 56 58 58 59 60 61 60 58 57 57 57 55 53 51 51 51 49 49 49 48 45 46 47 46 45 42 38
30 30 30 30 27 22 22 20 15 18 22 25 29 35 44 48 49 50 49 50 51 57 58 59 58 58 59 60 60 60 59 57 55 54 53 52 51 51 50 48 49 48 46 46 46 46 45 41 36
30 29 25 25 23 21 25 23 20 20 25 28 29 31 37 44 48 50 50 51 51 54 58 58 58 57 59 59 60 60 59 58 55 54 53 51 49 49 50 49 48 46 46 45 44 43 40 38 36
27 27 25 17 20 19 24 18 18 26 28 28 34 36 37 40 44 48 50 52 52 54 57 57 57 57 58 59 59 59 59 58 56 55 52 51 50 49 50 49 47 46 43 44 43 41 38 39 38
30 27 28 25 29 25 18 20 20 22 23 30 32 37 40 39 41 45 49 52 53 55 56 57 56 56 57 58 59 59 59 58 57 56 56 53 52 49 49 48 47 46 45 45 40 38 39 38 39
29 29 27 27 21 18 16 18 17 18 21 28 25 27 39 41 41 43 45 50 53 54 55 57 56 55 57 58 58 57 58 58 57 57 55 53 51 48 48 48 47 45 44 40 39 38 38 37 37
30 28 27 26 25 22 19 19 21 20 22 26 27 33 35 42 43 43 45 48 51 54 55 56 55 54 56 58 57 57 58 58 57 55 53 51 48 47 47 47 47 48 41 38 39 38 36 36 36
27 26 28 26 23 27 27 21 23 25 27 29 30 31 35 39 44 46 47 49 51 53 55 55 56 56 56 57 57 58 56 54 51 51 49 49 48 48 49 48 45 39 36 37 36 35 33 35 35

GFSSGP_sfc_dewp_078.txt.gz
Dewpoint
55 46 41 31 20 18 15 12 11 11 13 21 27 25 26 42 50 49 56 61 65 65 69 70 71 71 71 71 71 71 71 71 70 69 69 68 68 68 68 69 69 70 70 68 68 67 65 65 64
44 40 28 21 18 16 10 14 15 15 34 38 31 29 29 44 53 55 56 62 61 64 68 70 70 71 71 71 71 71 71 70 69 69 68 68 68 68 68 69 69 70 69 67 67 66 65 65 65
42 31 24 24 21 14 12 14 14 15 34 35 28 29 31 52 58 59 64 65 65 64 66 70 70 70 71 70 70 70 70 69 68 68 68 68 68 68 69 69 69 69 69 68 67 66 66 66 65
29 24 22 19 10 9 9 17 24 27 43 44 43 37 52 58 55 55 57 65 65 63 67 69 69 69 69 70 70 70 69 68 67 67 67 68 68 68 69 69 69 69 69 68 67 66 65 65 64
26 20 16 15 13 14 18 25 27 25 44 44 47 47 48 58 57 60 64 64 65 64 69 69 68 69 69 70 70 69 68 67 67 67 67 68 68 69 69 68 69 69 69 68 67 65 65 64 63
21 20 15 13 15 24 36 39 38 37 49 47 45 51 47 54 53 57 66 67 68 67 69 69 69 68 69 69 68 67 67 67 67 66 67 67 67 67 68 68 69 69 69 68 66 65 65 64 63
19 17 15 12 11 24 29 40 36 41 46 47 47 46 51 53 57 65 66 67 65 64 68 68 68 68 67 67 66 66 66 66 66 66 66 66 65 66 66 67 68 68 67 66 65 65 64 63 61
17 14 12 12 12 23 32 34 35 39 42 51 52 48 45 53 63 65 66 64 62 61 62 65 67 67 66 66 65 65 66 66 66 65 65 64 64 65 65 65 66 66 66 64 63 63 62 61 58
16 15 15 18 14 18 27 27 28 40 40 43 49 52 55 61 64 63 62 62 61 61 62 65 63 64 65 65 65 65 65 65 64 63 63 60 58 60 62 64 65 65 64 63 62 62 60 58 56
17 17 20 19 13 16 19 20 25 34 42 45 49 56 61 61 62 61 61 59 61 61 62 62 62 63 63 63 63 63 63 61 60 59 58 56 59 61 62 62 63 63 63 62 62 60 58 56 50
18 17 17 17 19 20 22 33 36 32 41 44 45 47 59 60 61 61 61 61 60 60 60 60 60 60 61 61 61 61 60 57 58 58 58 59 60 61 61 58 57 58 59 54 56 56 53 54 53
18 18 16 18 19 23 24 38 32 32 44 46 49 54 57 57 60 60 59 59 59 59 58 59 59 58 57 57 57 58 58 60 55 58 60 60 60 60 59 58 57 56 55 54 55 56 54 51 46
20 21 17 18 24 23 29 27 31 47 49 50 51 56 58 59 59 59 60 59 59 58 58 59 59 58 57 56 57 59 59 57 58 60 62 62 60 60 60 59 57 55 56 56 55 54 52 47 44
22 22 24 22 27 30 29 34 38 46 50 49 53 55 57 57 58 58 56 56 57 58 57 58 58 58 56 57 58 60 58 59 60 62 62 62 62 62 62 60 59 56 56 56 56 53 48 46 44
25 24 26 35 36 36 35 32 39 41 39 46 50 52 55 56 56 56 56 55 55 56 56 56 57 57 57 56 55 55 58 60 59 61 61 61 63 62 61 59 58 56 58 56 52 47 45 43 40
24 24 29 39 36 33 30 30 40 41 43 44 47 51 54 56 55 56 54 55 55 56 56 56 57 56 56 55 55 55 54 58 60 60 61 60 61 62 61 59 58 58 55 52 49 47 45 45 44
21 23 28 27 35 33 26 32 42 41 43 43 41 48 54 55 55 54 54 54 54 55 55 56 56 56 56 54 53 51 53 59 60 61 60 60 62 62 62 60 59 56 54 52 48 47 47 45 43
24 29 26 24 28 28 24 20 43 46 34 42 41 48 50 52 54 54 54 55 54 55 55 55 55 56 55 54 52 54 58 58 60 61 62 62 62 62 61 60 57 56 52 51 49 47 46 47 46
21 21 18 20 24 24 24 17 23 34 35 39 40 40 44 48 53 54 54 55 55 55 55 54 54 55 55 58 55 55 55 60 61 61 60 62 62 61 60 58 56 56 52 49 50 49 47 46 47
20 19 19 21 21 25 22 19 24 32 34 39 42 40 43 49 49 52 53 54 54 54 55 56 56 57 58 58 56 54 56 59 61 61 62 62 61 61 59 58 56 55 52 51 50 49 49 48 48
21 21 23 23 22 25 24 20 21 28 32 40 40 45 43 46 49 50 51 53 53 54 54 55 56 58 58 59 58 55 58 60 60 61 61 60 60 59 59 58 56 54 52 51 51 49 48 47 48
22 22 23 22 22 20 31 22 22 25 30 34 41 40 44 44 48 50 51 52 51 52 53 53 53 58 59 60 54 53 53 56 58 60 60 59 59 58 58 57 55 53 53 51 51 51 50 47 46
23 25 27 25 24 24 26 24 17 24 26 29 37 42 43 44 46 47 49 52 52 52 52 53 54 57 58 60 60 55 58 58 60 60 59 57 57 57 58 56 55 54 53 53 51 51 48 48 45
24 25 27 26 26 24 22 21 22 26 24 23 33 39 42 44 45 46 48 50 51 54 54 55 56 57 58 60 60 60 58 57 57 58 58 57 57 56 56 55 54 54 53 52 51 50 49 45 42
25 26 25 28 27 25 24 23 24 28 25 22 24 33 41 43 45 46 46 48 51 53 55 56 56 55 57 60 60 60 59 58 58 58 57 55 55 55 54 54 53 53 52 51 50 48 46 44 43
25 26 28 25 30 29 32 22 15 23 22 24 23 27 36 41 45 45 47 47 48 52 55 55 55 54 54 60 60 60 60 58 59 58 58 56 55 54 53 54 53 53 51 49 48 47 46 44 44
26 25 27 27 27 31 29 29 27 21 19 19 20 25 32 36 41 45 45 48 49 50 54 56 55 55 55 58 61 61 60 60 59 59 58 57 56 55 55 54 53 52 48 47 47 44 43 45 45
25 27 27 26 26 23 17 20 28 27 21 21 23 29 35 40 41 41 44 48 49 51 52 56 56 55 56 57 59 60 60 61 60 59 58 58 57 56 54 53 50 48 48 46 45 45 45 46 45
22 24 30 27 26 27 27 22 33 29 26 25 27 29 32 40 40 42 43 45 50 51 53 55 56 56 56 56 58 60 60 60 60 59 58 57 55 52 49 49 48 47 47 47 46 47 46 43 42
22 25 27 28 23 30 33 27 26 30 28 27 29 28 32 33 37 40 43 45 47 52 52 54 56 56 56 56 58 60 60 59 59 56 54 52 50 49 49 49 48 48 49 50 47 44 42 41 40

GFSSGP_sfc_dewp_081.txt.gz
Dewpoint
56 51 46 38 23 21 18 17 17 15 31 36 33 30 39 50 46 46 59 62 64 62 63 70 71 71 71 71 71 71 71 71 70 70 69 69 69 70 70 70 70 69 69 66 65 63 63 65 65
48 45 41 29 18 16 16 17 14 35 43 43 38 41 37 48 53 55 59 62 63 64 63 68 70 71 71 71 71 71 71 70 69 69 69 69 69 70 70 70 69 69 68 65 64 62 63 64 65
48 39 28 23 22 20 17 21 27 42 44 44 43 44 51 52 56 60 61 62 61 61 64 63 69 69 70 70 70 70 70 69 68 68 68 68 69 70 70 70 69 68 68 65 64 62 63 64 64
34 28 24 20 18 19 25 36 41 43 44 44 43 42 49 55 57 57 59 62 61 60 61 63 68 68 70 70 70 70 69 68 67 67 68 69 69 69 70 70 69 69 68 65 64 63 63 64 63
36 27 18 17 18 18 33 36 45 44 44 42 43 42 47 54 57 58 63 64 61 63 64 68 68 68 70 70 70 68 68 67 67 67 68 68 69 69 69 69 69 69 68 65 63 63 64 63 63
26 22 18 17 16 22 33 37 44 46 44 43 44 46 50 56 57 64 64 63 62 61 67 69 68 68 69 69 68 67 67 67 67 67 68 69 69 69 69 69 69 68 67 66 65 64 64 62 61
24 20 17 14 12 25 29 38 41 44 45 45 48 46 50 52 61 63 62 62 61 62 61 62 68 68 68 67 66 66 66 66 67 67 67 67 67 68 69 69 68 68 66 65 64 64 63 61 60
23 18 13 12 18 23 31 32 40 44 45 49 51 48 48 54 63 63 61 61 61 62 61 61 64 67 66 66 66 66 66 66 66 66 65 65 66 66 67 67 67 66 65 65 64 63 61 59 57
24 15 12 14 20 17 31 34 32 47 48 49 52 47 54 62 62 61 61 60 60 60 61 62 63 65 65 66 66 66 66 65 64 64 63 62 62 63 64 66 66 65 64 64 63 62 59 57 55
17 16 16 19 20 20 24 36 32 41 45 45 48 48 56 62 61 60 59 58 58 59 60 63 64 64 65 65 64 63 62 60 60 58 57 60 61 61 63 64 64 64 63 63 62 60 59 55 49
21 15 17 17 18 23 23 32 45 43 45 48 46 52 59 61 60 60 60 60 59 61 61 62 63 64 64 64 63 61 60 58 57 57 57 61 61 60 60 60 60 59 60 57 58 56 52 50 48
20 20 19 19 18 25 23 34 44 48 49 51 58 59 59 60 58 59 60 60 59 59 59 60 60 59 58 57 58 58 57 57 56 56 59 59 60 57 56 56 56 55 54 53 53 54 50 45 43
24 22 22 27 34 33 30 39 41 40 48 52 57 58 58 59 59 59 59 59 58 57 57 57 57 56 55 54 52 51 52 51 56 59 61 59 59 58 58 56 56 55 54 54 53 52 48 43 41
24 23 23 30 33 34 34 37 38 41 46 51 56 57 57 58 58 57 57 57 57 57 57 57 57 57 56 56 56 58 57 59 60 61 61 61 61 60 60 56 56 56 55 54 53 52 45 43 40
27 25 26 30 32 33 35 35 38 41 44 48 52 55 55 56 56 56 57 56 57 57 57 57 56 56 56 56 57 58 60 60 59 60 60 60 61 60 60 58 56 55 55 54 53 49 45 43 41
26 24 23 34 34 34 32 30 40 40 46 47 50 54 54 55 56 56 55 55 55 55 55 56 56 56 55 55 55 57 57 57 58 59 60 59 61 60 59 58 56 56 54 50 46 44 42 40 40
27 23 25 31 34 35 35 34 39 42 41 45 49 54 53 54 54 55 55 55 55 55 54 55 55 54 55 55 55 55 55 56 57 58 60 57 58 61 60 59 58 55 52 49 46 46 43 43 43
24 26 30 31 32 35 32 33 40 41 44 45 52 52 52 52 53 54 54 55 55 55 54 54 53 54 55 53 51 50 51 56 58 58 59 57 59 60 61 60 57 56 52 49 47 44 46 43 44
26 25 27 30 30 30 27 30 41 43 43 46 47 51 51 51 53 54 53 54 54 54 54 54 54 54 53 51 49 48 49 57 57 58 59 59 59 60 60 57 57 53 50 48 47 46 44 44 45
25 23 21 22 25 25 24 22 30 38 41 42 43 45 48 52 52 52 53 53 53 53 53 54 54 54 52 52 48 51 53 56 57 59 59 59 60 60 60 56 55 54 50 48 47 46 46 47 45
24 22 22 22 25 24 27 25 25 32 40 39 40 45 49 51 52 52 53 54 53 53 53 52 53 53 52 54 53 55 56 57 58 59 59 60 61 60 60 56 55 54 51 48 47 47 47 45 46
23 25 24 27 23 21 28 22 25 31 37 40 39 43 48 49 51 52 52 53 53 52 53 51 52 52 54 56 56 56 53 55 57 58 59 60 59 58 58 58 55 53 51 48 49 49 48 46 45
25 28 30 30 26 25 25 26 25 27 31 39 42 41 44 48 49 50 52 53 53 51 52 52 54 56 56 57 57 56 54 56 58 59 58 58 58 57 57 57 55 52 50 49 50 49 48 47 44
27 27 28 30 27 24 25 27 25 25 30 32 40 44 43 47 49 49 50 51 52 51 52 53 53 55 57 58 58 57 53 56 57 58 58 57 56 56 56 57 55 52 51 50 50 49 46 44 43
25 24 26 27 27 26 34 31 26 28 27 31 40 41 44 44 48 49 49 49 50 50 51 52 51 52 57 58 58 58 56 56 57 57 57 56 55 55 56 56 54 53 52 51 50 49 46 43 41
24 25 28 24 27 32 38 30 26 29 28 25 26 39 42 44 46 48 49 50 51 50 50 50 50 51 55 58 58 59 58 57 57 58 58 57 56 55 55 54 53 53 51 50 49 47 45 44 43
28 26 28 32 36 32 33 31 32 29 25 24 21 23 39 43 44 46 47 49 50 51 52 50 50 52 54 57 58 58 59 57 58 58 58 57 56 55 54 54 53 51 49 49 48 47 45 45 45
25 30 29 29 28 28 26 28 27 27 27 26 24 32 36 37 43 45 46 48 50 51 51 54 54 54 54 54 58 58 59 59 59 58 57 56 56 55 55 53 50 48 48 47 47 46 46 45 45
26 25 30 29 29 24 22 25 32 29 28 28 26 27 32 37 36 40 46 47 48 51 52 53 54 54 54 54 59 59 60 59 59 58 57 57 56 55 53 49 48 47 48 48 47 46 46 46 46
24 25 27 30 27 31 29 26 31 28 28 28 26 28 28 29 38 37 38 44 47 50 50 51 55 55 55 56 58 60 60 59 59 58 57 55 52 50 49 48 48 49 48 48 47 47 47 46 44

GFSSGP_sfc_dewp_084.txt.gz
Dewpoint
55 51 44 36 20 21 19 18 20 30 37 40 39 39 42 51 50 44 59 61 64 65 70 70 71 71 71 71 71 71 71 70 70 70 70 70 70 70 70 70 68 67 66 66 65 65 65 65 66
47 45 40 30 18 16 16 19 38 40 42 44 43 43 47 49 53 55 57 62 64 64 68 69 70 71 71 71 71 71 70 70 70 70 70 70 70 70 70 70 68 67 66 66 64 65 64 64 65
42 39 29 25 21 19 18 24 33 42 43 43 39 45 51 52 55 58 60 62 62 64 65 68 69 70 70 71 70 70 70 69 69 69 70 70 70 70 70 69 67 67 66 64 64 64 63 64 64
34 28 25 19 18 19 21 21 37 42 43 43 43 40 47 52 58 58 61 61 62 61 64 63 68 68 69 71 70 70 69 68 68 68 69 70 70 70 69 68 67 67 66 64 63 63 63 64 63
35 25 19 19 17 18 19 35 41 42 44 42 43 42 45 54 57 62 60 62 61 63 63 63 66 68 70 70 70 69 68 68 68 68 69 69 70 70 69 68 68 66 66 64 63 63 64 62 62
29 24 19 17 17 18 29 34 45 44 44 42 45 47 48 56 62 63 63 62 63 62 64 64 64 67 68 70 69 67 67 67 68 68 68 69 69 69 69 68 67 66 66 65 64 64 63 62 61
25 22 20 18 18 16 26 36 40 43 44 46 48 46 49 59 62 62 62 61 62 62 62 62 62 65 66 68 67 66 66 67 67 68 68 68 68 68 68 68 67 66 65 64 64 63 61 61 59
26 23 19 18 14 15 28 33 43 44 44 50 51 47 47 54 63 61 61 61 62 62 62 61 61 62 66 67 66 66 66 66 67 67 67 67 67 68 68 67 66 65 64 64 63 61 60 59 58
23 20 17 16 14 17 25 32 44 49 47 49 52 48 52 61 62 61 60 58 59 60 59 60 62 63 65 66 66 66 66 66 66 66 65 65 67 67 66 65 65 65 64 63 62 60 60 57 58
22 17 17 18 16 19 24 38 38 45 47 46 50 52 53 58 60 59 59 57 57 58 59 62 64 65 65 65 65 65 63 62 63 62 61 62 64 65 65 65 64 64 63 62 61 60 57 53 42
21 19 21 19 18 21 23 43 47 44 46 50 48 52 55 61 60 60 59 58 58 59 61 63 63 64 64 64 64 62 60 59 58 60 60 61 62 63 63 62 61 60 60 57 56 53 52 47 42
20 21 21 19 28 30 26 43 44 48 49 57 58 58 60 58 59 59 59 60 59 60 61 62 62 63 63 62 61 59 57 57 57 60 60 59 59 59 59 59 57 55 55 54 53 52 45 43 41
23 24 24 29 34 33 36 38 39 45 50 58 58 58 58 57 57 58 59 59 59 58 57 58 59 59 59 59 59 57 56 55 58 59 59 57 56 56 56 55 54 53 53 53 53 49 44 42 40
26 27 27 26 29 32 34 37 38 40 50 56 56 56 57 58 58 57 58 57 57 57 56 57 56 56 55 54 55 54 54 59 60 61 60 59 59 58 56 54 53 53 53 53 52 48 43 41 39
29 26 25 25 28 32 35 34 34 39 45 55 55 55 55 56 57 57 57 57 56 57 56 55 55 55 55 55 53 51 59 60 60 61 61 60 59 59 56 55 55 55 54 53 52 46 44 41 39
28 27 22 26 32 33 30 27 36 40 45 51 54 54 54 56 56 56 56 56 56 56 55 55 56 55 55 57 57 58 59 59 59 59 60 61 60 59 58 57 55 55 55 54 50 46 43 42 40
28 25 25 26 32 33 32 29 36 40 45 49 53 52 52 54 54 55 56 55 55 55 56 55 55 55 55 56 56 56 56 56 58 58 59 58 61 60 58 57 56 55 53 51 46 44 42 41 41
26 26 27 29 29 33 32 31 34 41 43 48 51 52 50 52 53 54 55 55 55 55 55 55 55 55 55 56 56 55 55 54 56 57 58 57 57 60 58 57 57 54 50 47 45 44 45 43 43
27 27 26 26 29 31 31 31 35 41 47 50 51 50 49 50 53 54 55 55 55 54 54 53 54 55 54 53 52 52 51 52 56 57 57 57 56 59 59 59 56 53 50 48 45 44 44 44 44
27 26 25 23 24 28 27 25 32 42 46 49 50 50 49 49 51 53 53 54 54 54 53 53 53 53 51 51 49 48 48 53 55 57 57 58 58 59 60 58 56 53 50 47 47 45 45 44 45
27 25 24 21 23 25 26 24 30 38 42 45 47 49 50 50 50 52 52 52 53 52 53 53 52 52 51 50 48 52 53 55 55 56 56 57 58 59 60 57 57 53 50 47 47 45 45 45 45
26 26 25 25 25 21 26 22 25 35 40 42 42 45 50 50 51 51 52 52 52 52 53 53 52 52 51 51 49 49 48 50 55 55 56 58 59 59 60 58 55 54 52 49 47 47 46 46 44
27 28 26 29 27 25 25 25 25 35 38 39 41 44 48 51 51 51 51 52 52 52 52 53 53 52 51 52 51 50 54 54 56 56 56 57 58 59 59 58 56 55 52 49 48 48 48 46 45
27 27 28 30 27 24 31 30 26 27 33 39 39 43 47 49 50 51 52 53 53 52 52 52 51 52 51 52 53 53 53 54 56 56 57 57 58 58 57 58 56 54 52 51 49 48 48 46 44
25 24 23 24 25 24 36 32 29 30 29 38 40 40 47 48 49 50 52 52 53 52 51 51 50 51 51 52 53 55 56 55 55 56 57 57 57 56 57 57 55 53 52 50 50 50 48 45 43
24 25 26 22 25 28 35 27 29 30 30 30 40 42 42 48 49 49 51 52 52 50 49 49 50 51 53 55 55 56 57 55 56 56 58 57 57 57 57 56 55 53 52 52 51 48 47 47 47
25 25 28 31 35 30 32 32 30 29 26 26 35 40 43 43 48 48 49 51 52 52 48 49 50 52 53 55 56 57 58 57 55 57 58 58 58 57 55 56 54 52 51 49 48 48 47 47 46
26 29 26 30 27 26 28 30 28 26 25 27 25 40 42 44 46 49 49 49 50 52 52 51 52 52 52 53 57 57 58 58 57 57 58 57 57 56 55 55 52 49 48 48 48 47 47 47 47
26 27 30 30 31 27 23 24 29 27 28 26 27 34 39 43 44 46 48 50 50 51 53 53 53 52 52 50 55 57 58 59 58 58 57 57 56 55 55 53 51 49 48 48 48 48 47 46 45
25 25 29 30 28 30 28 25 30 28 28 28 25 27 33 40 43 45 46 47 48 51 53 52 53 52 52 54 54 56 58 59 58 57 57 57 56 55 53 52 50 48 48 48 48 46 46 45 45

GFSSGP_sfc_dewp_087.txt.gz
Dewpoint
53 52 43 32 18 20 20 19 21 26 33 39 41 40 43 48 47 38 57 62 65 68 70 70 70 71 71 71 71 71 71 71 71 70 70 70 70 70 69 68 66 67 67 65 66 66 65 65 64
48 45 36 26 18 16 16 18 22 36 40 44 43 43 48 47 53 54 54 60 64 65 70 70 70 70 71 71 70 71 71 71 71 70 70 70 70 69 68 67 66 67 67 66 66 66 66 66 65
41 36 28 24 20 18 19 20 24 39 43 42 38 46 50 50 57 59 59 61 63 64 65 70 69 69 70 70 70 70 70 70 70 70 70 70 70 69 68 67 66 67 67 66 65 64 63 64 65
33 27 24 20 18 20 21 21 22 41 43 43 42 41 46 52 57 57 59 61 62 63 64 68 68 67 67 68 69 70 69 69 69 69 70 70 70 69 68 66 66 67 67 64 63 61 62 64 64
34 25 19 19 17 18 20 20 35 38 42 42 43 41 44 55 57 62 59 61 60 61 63 65 66 67 67 68 69 68 69 68 69 69 69 70 70 69 68 66 66 66 66 65 62 62 65 65 64
27 23 18 17 17 19 19 28 43 43 43 42 44 46 47 58 61 63 64 62 62 62 62 63 66 67 66 66 68 68 67 68 68 68 69 69 68 68 68 67 66 65 65 64 63 62 64 64 63
25 23 22 18 19 19 19 37 42 42 43 44 48 46 49 59 61 62 62 62 61 62 62 62 61 66 66 66 66 66 66 67 67 68 68 68 68 67 67 66 66 65 64 63 62 61 62 63 63
26 24 26 19 17 16 17 35 44 43 41 50 50 47 44 55 62 61 61 61 62 62 62 61 62 63 65 66 66 65 66 66 67 68 67 67 67 67 67 66 65 64 63 62 61 61 62 63 62
23 21 19 18 16 15 19 31 45 48 45 48 52 49 54 61 61 60 58 58 59 61 61 61 60 60 64 65 65 65 66 66 67 67 67 66 66 66 64 64 64 64 63 62 61 59 61 61 61
22 19 19 19 17 18 22 34 43 46 46 47 49 53 53 60 60 59 59 57 57 58 58 61 63 62 60 64 64 64 64 65 66 66 66 66 66 65 63 64 64 63 62 62 60 57 55 50 50
22 22 21 21 21 21 19 41 44 44 45 49 48 53 53 60 59 59 59 58 57 57 59 62 61 63 61 60 62 63 64 64 64 64 64 64 65 64 63 62 60 59 59 55 53 51 43 42 43
19 20 21 21 23 30 27 41 44 45 46 55 58 54 59 59 59 59 59 58 57 59 60 61 60 62 62 63 63 62 62 61 62 62 63 64 63 62 61 59 57 56 55 52 51 48 43 41 41
21 22 25 25 27 32 38 38 39 47 55 58 58 59 57 58 58 59 59 59 59 59 59 60 61 61 61 61 60 60 59 59 60 61 62 62 61 60 59 56 54 54 53 52 48 44 42 41 39
27 26 27 26 27 30 33 37 39 42 55 57 56 56 57 55 57 57 58 58 58 57 57 58 58 61 61 60 59 58 56 59 60 60 60 60 60 59 57 54 52 53 52 52 47 43 41 39 39
28 25 26 26 25 29 33 31 36 39 55 55 55 55 56 54 56 57 58 57 57 57 57 56 56 57 57 58 56 56 58 60 59 60 59 58 58 58 55 53 52 52 53 52 47 43 41 39 38
27 28 24 26 29 31 30 26 34 43 54 53 54 53 53 54 56 57 57 57 57 56 55 56 56 55 55 54 56 58 59 60 60 59 59 59 58 56 56 55 53 54 53 52 48 45 42 41 39
28 24 25 26 28 30 31 28 34 40 48 52 52 52 51 52 52 56 56 56 56 55 55 55 55 56 55 56 57 57 57 58 59 59 59 59 59 57 56 56 55 55 53 52 48 44 43 40 39
25 25 26 26 29 33 31 31 34 40 46 50 52 51 50 50 51 55 55 55 56 56 55 55 55 55 56 55 55 56 56 56 57 58 58 59 60 59 57 56 55 54 52 50 46 43 43 41 40
27 27 26 26 27 30 28 30 30 37 42 49 51 50 49 50 53 54 55 55 55 55 54 55 55 55 55 55 53 53 54 55 56 56 57 57 58 59 57 56 55 53 51 49 45 44 43 43 43
27 27 26 26 26 27 27 27 26 39 43 47 50 49 48 49 52 53 54 54 54 54 53 54 54 55 54 53 49 50 52 54 55 57 56 57 56 58 58 57 56 52 50 47 45 44 44 44 44
27 26 26 26 26 26 26 24 25 36 44 48 50 49 49 49 50 51 52 54 54 53 53 53 53 53 52 52 50 49 52 54 53 55 56 56 57 57 59 58 57 55 52 48 46 45 44 44 45
26 29 28 27 26 23 26 21 24 30 40 45 46 49 49 49 50 50 50 51 52 53 53 52 53 52 51 50 49 48 47 47 48 52 55 55 57 57 58 58 57 54 52 49 47 46 45 45 43
27 30 29 28 26 25 25 24 24 37 38 41 43 46 48 50 50 50 51 52 52 52 52 52 52 52 51 50 50 48 48 48 53 54 55 55 57 58 58 58 56 55 52 50 49 47 46 46 45
30 29 28 30 27 24 28 27 26 27 34 38 41 42 45 50 50 51 51 52 52 52 52 52 52 51 51 50 50 49 49 51 53 54 54 55 56 57 57 58 56 55 54 51 50 50 50 48 47
28 26 23 22 23 23 32 33 30 30 30 35 39 41 43 47 50 51 50 51 52 52 52 52 52 51 51 50 50 50 50 52 52 52 54 55 55 55 56 56 56 55 54 52 52 51 49 48 46
24 25 25 20 23 23 34 29 28 32 32 32 40 40 42 46 49 50 50 51 52 52 51 51 51 51 51 51 50 50 51 51 53 54 55 56 55 55 56 56 57 55 53 52 50 50 48 48 47
23 23 25 26 33 29 29 31 31 31 30 28 38 40 41 46 47 48 49 51 52 53 52 51 51 50 50 51 50 50 52 52 53 55 56 56 57 57 56 57 56 54 53 52 50 48 48 47 48
23 28 26 29 26 26 27 28 27 29 25 26 34 41 41 45 48 48 48 50 52 53 53 52 51 50 50 50 51 51 52 53 54 55 55 56 57 57 56 55 55 53 51 50 49 49 48 48 47
25 22 28 27 29 22 23 25 30 31 30 26 25 38 43 43 46 48 49 49 51 52 52 51 51 50 50 50 52 53 55 56 57 57 56 56 57 56 55 55 55 52 51 50 49 48 48 47 47
24 23 26 27 26 29 27 25 28 31 28 28 28 27 36 44 44 46 49 49 49 51 52 50 50 50 51 52 53 53 56 57 57 57 57 57 56 56 55 54 53 52 51 50 49 48 47 48 46

GFSSGP_sfc_dewp_090.txt.gz
Dewpoint
53 48 42 28 17 18 19 18 21 22 31 39 41 41 44 48 46 36 56 59 65 69 70 70 70 71 71 71 71 71 71 71 71 71 71 71 70 70 69 68 67 67 67 65 65 65 65 64 64
48 44 33 24 18 16 16 18 19 28 37 42 41 43 47 45 53 53 54 59 65 69 70 69 70 70 71 71 70 70 71 71 71 71 71 70 70 69 68 68 67 67 67 66 65 65 65 64 63
39 34 26 23 19 16 17 19 19 30 41 41 38 45 50 47 55 57 57 60 64 66 69 70 70 70 70 70 70 70 70 70 70 70 70 70 69 68 68 67 67 68 68 66 66 66 65 65 64
31 27 22 20 20 19 20 20 23 30 42 42 41 39 45 51 56 59 60 61 63 64 66 69 69 70 70 70 70 70 70 70 69 69 70 69 68 68 68 67 67 67 67 67 65 64 65 65 63
30 23 19 19 17 18 21 21 21 36 40 41 42 39 43 52 58 59 61 61 62 62 64 68 68 69 69 69 69 69 69 69 69 69 69 69 68 67 67 67 67 66 66 65 63 63 66 64 63
26 22 17 15 16 18 20 22 37 39 41 42 43 45 45 57 60 61 62 61 62 61 62 64 68 67 68 68 68 68 68 68 68 69 69 68 68 67 67 66 66 65 64 64 65 65 65 63 63
24 23 20 21 19 19 18 37 39 42 41 43 46 44 46 57 60 61 61 62 62 62 61 63 64 66 66 66 67 66 67 67 68 68 68 68 67 66 66 66 66 64 63 64 65 64 63 63 62
25 24 25 20 19 16 18 35 43 41 40 49 48 45 43 54 61 61 61 62 61 62 61 60 61 64 65 64 66 65 65 66 66 67 67 67 66 66 66 65 64 63 62 63 64 63 63 63 62
24 21 19 19 17 16 18 27 43 47 44 47 51 50 54 61 61 59 59 59 60 61 62 61 60 61 63 65 66 65 65 64 65 66 66 66 66 65 63 63 63 62 62 62 64 64 63 62 62
24 21 20 20 19 19 22 26 41 44 45 46 48 52 60 60 59 58 57 56 57 58 59 60 61 61 62 65 65 64 64 62 64 66 66 65 65 63 62 62 62 62 61 62 63 62 61 58 56
23 23 23 22 21 22 21 30 43 43 42 45 46 49 53 58 59 59 59 58 56 57 60 62 62 62 61 62 64 64 64 62 62 65 65 64 64 62 62 61 59 57 57 53 54 51 50 50 47
20 21 21 20 23 29 27 37 43 43 42 51 53 55 54 59 59 58 58 58 55 57 59 61 61 61 62 62 64 63 61 61 61 64 64 64 63 61 59 57 58 55 53 50 47 45 45 44 43
21 21 23 25 26 27 36 38 41 44 52 57 58 57 58 57 56 58 58 59 59 59 59 60 61 61 61 62 62 61 60 60 61 63 64 64 62 60 59 57 55 53 52 49 44 42 42 42 43
26 25 26 27 26 27 33 35 41 41 56 56 56 57 56 55 57 58 58 58 59 58 58 59 60 60 60 61 61 61 61 60 62 63 63 64 62 60 57 54 53 53 52 47 43 41 41 41 42
28 26 26 26 25 25 30 31 38 39 55 55 55 55 54 54 57 57 58 58 58 58 57 58 58 59 59 59 59 60 60 61 61 62 61 60 60 59 56 53 52 52 53 48 43 42 41 40 40
28 26 24 24 27 28 31 26 30 42 53 53 53 52 53 54 55 57 57 57 57 57 56 57 58 57 58 58 58 59 60 61 60 60 59 59 59 58 55 54 52 53 52 47 44 42 41 40 40
27 24 23 25 28 29 30 28 30 43 52 52 52 51 50 52 53 56 57 57 56 56 55 56 56 56 55 57 57 58 59 59 59 59 59 58 58 57 55 55 53 54 53 48 44 44 42 40 39
24 25 25 26 27 28 30 30 31 37 42 50 51 50 50 50 51 54 56 56 56 56 56 56 56 56 56 57 57 57 57 58 59 58 58 58 58 57 56 55 54 54 52 50 46 43 43 41 40
26 26 26 26 26 26 25 25 26 32 40 44 49 50 49 49 51 54 55 55 56 55 55 55 55 55 55 56 56 56 55 56 56 57 57 58 58 57 56 55 55 53 52 50 46 44 43 43 43
27 26 25 26 26 26 25 25 26 33 38 40 46 48 48 49 52 53 54 55 54 54 54 54 55 55 53 55 55 55 55 54 56 57 57 58 59 58 57 55 54 53 52 50 47 45 44 44 44
27 26 25 25 25 27 26 25 25 31 41 45 48 49 49 49 50 50 54 54 54 54 53 53 54 55 53 53 53 53 53 54 53 55 56 56 57 58 58 56 55 54 52 50 47 46 45 43 44
26 28 27 26 26 24 25 22 24 25 35 43 46 48 48 48 50 50 50 53 53 53 53 53 53 54 53 52 51 52 52 49 47 52 54 55 57 56 58 58 56 55 53 50 49 48 48 46 43
27 29 29 29 27 27 25 24 24 34 31 34 42 47 48 48 50 50 50 51 53 53 53 53 53 52 52 51 50 49 49 49 51 52 53 54 55 56 56 57 56 55 54 53 50 49 47 48 46
32 30 29 30 28 24 25 25 25 25 31 33 38 44 47 48 49 50 51 51 50 52 53 52 52 52 51 50 49 49 47 48 49 50 52 53 53 55 56 57 57 57 55 53 52 51 49 48 48
28 27 23 22 23 24 27 31 28 28 29 33 33 41 44 47 50 50 50 51 50 51 51 52 52 51 51 50 49 49 48 48 48 48 50 52 53 53 54 55 55 55 55 54 52 51 51 50 48
26 26 25 20 20 21 33 30 29 32 33 33 33 37 42 45 48 50 50 51 51 51 51 51 51 51 51 51 50 50 49 49 50 50 51 52 53 53 54 55 56 56 55 54 53 52 52 50 50
23 24 26 23 29 28 28 30 30 31 29 30 29 40 42 44 47 48 50 50 51 52 52 51 52 52 51 51 51 50 50 50 49 51 53 54 54 55 54 55 55 55 55 54 53 52 51 50 49
20 25 22 28 23 23 25 28 25 26 27 28 28 39 40 45 47 47 48 50 51 52 52 52 52 51 51 51 51 50 50 50 51 51 53 54 55 55 55 55 55 55 53 52 52 51 50 49 49
24 22 27 26 27 21 21 24 30 28 29 30 26 32 41 43 46 47 47 48 50 52 53 52 52 51 50 50 50 50 50 51 51 52 52 54 55 55 55 55 55 54 52 52 51 50 50 50 49
23 22 23 22 22 28 24 21 28 30 30 31 27 27 35 43 44 47 48 48 49 51 52 52 52 51 51 51 50 51 51 52 52 53 53 54 55 55 55 55 55 55 53 52 52 51 51 49 48

GFSSGP_sfc_dewp_093.txt.gz
Dewpoint
53 44 41 29 21 21 18 19 21 21 28 37 39 39 40 44 42 35 56 62 65 67 67 69 71 71 71 71 72 71 72 72 71 71 71 71 71 70 70 69 68 68 68 65 65 65 64 64 64
46 42 33 26 21 16 16 19 18 25 32 41 40 41 44 44 51 53 55 59 66 68 68 67 70 70 71 71 71 71 72 71 71 71 71 71 70 69 69 68 67 67 67 65 65 64 64 63 63
37 32 28 24 22 16 16 20 20 21 34 40 37 43 48 45 53 56 58 61 67 69 69 68 70 70 70 70 71 71 71 71 71 70 70 70 69 68 68 67 67 67 67 65 65 64 63 63 63
30 29 24 22 18 20 20 20 22 23 39 41 40 37 43 48 55 58 59 62 66 67 69 68 69 69 70 70 71 71 70 70 70 70 70 69 68 69 68 67 67 68 67 67 65 64 63 64 63
29 26 21 19 18 19 21 21 22 25 36 41 41 38 42 48 56 61 62 60 65 65 66 69 68 68 70 70 70 70 70 70 69 69 69 68 68 68 68 67 67 67 67 67 66 66 64 64 63
27 25 20 17 16 18 21 23 27 33 38 40 42 42 44 56 58 62 63 63 62 65 64 65 68 68 67 70 69 69 69 69 68 68 68 67 68 67 67 67 67 67 66 65 67 65 64 63 63
25 23 18 17 19 20 20 31 38 34 39 41 45 42 45 54 60 62 62 63 63 63 64 64 65 65 66 67 67 68 68 68 68 67 67 66 67 66 67 67 66 65 65 65 66 64 63 63 62
27 25 22 21 19 17 19 31 39 38 32 48 47 43 44 53 61 61 61 62 62 62 64 64 65 65 66 66 65 67 67 67 67 67 66 66 66 66 66 65 65 65 67 66 65 64 63 62 62
26 24 21 20 20 19 19 25 37 45 44 46 48 48 51 60 60 60 60 60 62 62 62 63 63 65 66 65 66 66 67 67 67 67 66 65 65 65 64 63 64 65 66 65 64 63 63 62 61
25 24 22 22 21 20 22 24 24 42 44 44 47 51 59 59 58 57 58 59 59 60 61 62 63 63 63 65 66 66 67 68 68 68 66 65 66 65 61 61 63 64 65 64 63 63 62 59 57
26 23 25 23 22 22 22 23 34 41 37 42 41 46 56 58 58 58 58 59 58 58 60 61 62 63 63 63 65 65 64 65 66 68 66 65 65 63 61 60 58 61 63 61 60 60 56 57 56
24 24 24 22 22 26 25 30 38 42 34 52 48 55 53 55 56 58 59 60 58 58 60 62 62 62 64 63 64 63 63 63 66 65 66 64 63 62 61 57 56 56 59 60 58 56 56 55 55
22 22 22 22 23 27 29 31 33 40 43 54 57 55 54 57 59 59 60 59 59 58 60 61 61 62 62 62 62 63 61 62 64 64 65 64 61 61 59 58 54 52 54 55 54 54 51 51 50
26 23 23 27 27 27 27 28 38 33 45 55 57 56 56 56 56 57 57 58 59 59 59 60 61 61 61 61 62 63 61 61 63 64 63 64 62 60 58 57 54 52 51 52 51 50 48 45 44
29 27 28 27 26 25 28 28 34 36 53 54 55 55 54 54 54 55 57 58 59 59 58 59 60 60 60 61 62 61 60 61 62 63 64 64 62 60 58 56 54 51 50 50 48 47 45 44 42
28 28 23 25 27 28 30 24 30 36 50 51 53 54 53 53 52 53 57 58 58 58 58 58 58 59 59 60 60 60 61 61 62 63 63 63 62 59 58 56 54 54 50 48 46 44 44 44 43
28 17 23 23 28 29 31 28 29 43 47 47 52 52 52 52 52 54 57 57 57 57 57 57 58 57 58 58 60 60 61 61 62 62 61 61 61 59 56 56 55 55 50 48 45 45 44 43 43
21 25 26 24 27 27 25 26 28 30 42 44 50 52 51 51 51 52 56 57 56 57 56 57 57 57 57 59 59 60 60 60 60 61 60 60 60 59 57 57 56 54 50 48 46 46 45 43 42
26 25 24 26 27 26 24 24 25 28 34 39 48 51 50 51 51 52 55 56 56 56 56 56 56 57 57 57 57 57 57 58 59 59 59 59 59 58 58 56 57 55 52 50 49 47 47 44 44
27 26 25 27 26 27 25 24 25 28 31 36 41 49 50 50 50 52 52 55 55 55 56 56 56 56 56 56 57 57 57 57 58 59 59 59 59 58 57 56 56 55 54 52 50 48 48 47 47
28 27 27 25 26 27 26 25 26 27 35 40 43 46 50 50 50 51 53 54 55 54 55 55 55 56 56 56 56 56 56 56 57 57 58 58 58 57 57 57 56 57 55 54 52 50 48 47 46
24 28 28 27 25 20 26 20 26 27 27 32 43 48 49 50 50 50 52 53 53 55 55 54 55 55 55 54 54 55 54 54 54 56 56 57 58 59 58 57 56 56 56 55 54 53 52 50 45
26 29 29 28 27 26 24 24 25 29 28 28 32 46 48 50 50 50 50 52 54 55 54 54 54 54 54 54 54 53 52 54 53 55 56 56 56 57 58 59 58 58 56 57 56 54 52 53 51
31 29 28 30 29 25 27 25 23 25 28 29 34 39 47 49 50 50 50 52 53 54 54 54 54 54 53 53 53 54 53 53 50 52 53 55 55 57 57 57 58 58 58 57 57 57 55 54 54
29 27 21 24 25 22 26 26 25 29 29 30 31 34 47 49 49 50 50 50 51 52 54 53 54 53 52 52 52 52 53 53 52 51 52 53 53 54 55 57 58 57 59 58 58 57 56 55 54
26 25 22 16 21 21 32 27 27 33 33 34 35 35 43 48 49 49 50 50 50 51 52 53 52 52 52 52 52 52 51 50 51 52 52 53 53 53 55 56 56 57 58 58 58 57 57 56 54
26 25 25 23 29 26 25 31 31 32 32 31 30 33 38 45 48 49 50 51 51 52 51 52 51 52 52 53 52 52 52 51 50 52 53 53 53 53 55 56 56 57 57 57 57 58 57 57 56
23 28 25 26 18 15 21 27 22 27 27 29 29 32 39 44 47 48 49 51 51 52 52 52 52 51 52 53 53 52 52 52 52 53 53 53 54 55 55 56 56 56 57 57 57 57 57 56 56
22 21 24 26 27 19 17 22 34 31 30 30 32 34 36 43 45 47 49 50 51 52 53 53 53 53 53 53 53 53 52 52 53 53 53 53 54 54 54 55 56 56 57 57 56 56 55 52 52
23 24 23 22 20 29 25 21 29 34 33 34 34 32 32 42 45 47 48 49 50 51 52 52 53 53 53 53 53 53 54 53 53 54 53 54 54 56 56 55 55 56 56 56 54 53 54 52 52

GFSSGP_sfc_dewp_096.txt.gz
Dewpoint
51 41 40 32 22 19 16 16 18 18 22 30 34 34 32 37 32 30 57 63 65 65 63 67 71 72 72 72 71 71 72 71 71 71 71 71 71 71 71 70 69 69 68 66 65 65 65 65 64
40 40 37 27 19 12 13 18 18 20 22 32 33 36 37 36 45 48 52 61 66 66 65 65 71 71 72 71 71 71 72 71 71 71 71 71 71 71 70 69 68 68 67 65 65 65 64 64 64
38 36 26 22 18 12 14 18 19 21 23 30 30 38 37 36 49 51 58 59 62 64 66 65 70 70 71 71 71 71 71 71 70 71 71 71 70 70 69 68 67 67 67 65 64 64 63 63 64
28 26 24 19 15 17 17 19 21 23 29 33 35 34 38 43 47 54 58 59 61 64 67 66 69 70 71 71 71 71 71 70 70 70 70 70 70 69 68 67 67 67 67 65 64 63 63 63 63
30 23 14 14 15 17 19 20 22 22 27 34 37 32 38 45 48 57 60 60 62 64 69 66 67 69 70 71 71 71 70 70 69 70 69 69 69 68 67 67 67 67 66 65 64 63 63 63 63
22 22 13 8 14 18 18 22 24 27 29 31 37 37 37 51 54 54 61 61 63 63 66 64 64 65 67 70 70 70 70 69 69 69 68 68 68 67 67 67 67 67 66 65 65 64 63 63 62
20 16 10 10 13 18 19 24 28 24 24 30 38 37 35 48 55 60 61 63 64 65 64 63 64 64 65 67 69 68 69 68 68 67 67 67 67 67 67 67 67 67 67 67 65 64 63 63 62
22 19 14 10 9 15 19 22 28 28 25 43 42 33 35 47 58 60 61 63 62 63 65 64 63 63 62 67 66 65 67 67 67 67 67 66 66 66 67 67 66 66 67 66 64 64 63 62 61
25 17 13 11 12 12 20 23 26 34 34 38 42 42 46 54 56 56 57 61 62 62 62 65 62 61 62 65 65 64 65 67 66 66 66 65 65 65 65 64 65 66 66 65 64 63 62 61 61
21 16 13 14 14 16 20 24 25 28 30 35 38 44 50 55 55 54 56 57 59 61 62 63 63 63 63 64 64 64 65 67 67 66 67 62 65 64 61 64 66 66 66 64 63 63 62 58 53
21 17 15 18 18 20 20 21 24 27 25 26 27 32 45 54 55 56 57 58 58 60 62 62 63 65 65 66 67 67 65 66 67 66 64 64 64 64 62 60 62 64 64 60 59 59 53 54 52
23 22 19 18 18 22 21 22 24 25 27 28 40 42 49 53 54 54 57 59 59 60 60 63 63 64 65 65 66 65 65 66 66 66 64 66 64 64 61 56 59 61 59 59 58 55 56 56 53
26 21 20 19 20 20 23 24 24 24 25 28 41 52 51 52 53 57 59 59 59 60 60 61 63 64 64 65 66 65 67 65 66 65 65 64 62 61 59 58 58 58 58 58 57 56 56 54 53
19 22 19 19 20 22 24 23 21 26 25 37 48 50 53 54 54 56 55 56 59 58 59 61 62 62 63 63 63 63 63 64 65 66 65 63 62 60 58 57 55 57 58 57 57 55 52 50 50
24 22 19 20 21 21 21 20 19 23 34 40 46 50 52 52 53 52 54 55 58 59 59 60 61 61 62 62 62 63 63 62 64 64 64 62 61 60 58 57 54 53 55 57 56 54 50 46 43
24 24 20 21 20 21 26 16 25 31 35 32 39 47 51 52 52 52 54 56 58 59 59 60 60 61 61 60 61 62 63 62 63 64 64 62 60 58 59 55 54 53 54 54 52 50 47 45 43
21 18 18 20 22 19 26 20 26 33 33 33 35 43 47 50 53 53 54 56 58 58 58 59 60 60 59 60 61 61 61 62 62 63 63 62 60 58 56 55 54 54 52 51 50 48 49 47 45
20 20 20 19 19 26 22 24 24 25 27 30 33 41 45 48 49 52 53 56 57 58 58 58 59 59 59 60 60 61 61 62 62 62 62 62 60 59 57 56 56 53 50 50 49 50 49 48 46
20 20 18 18 22 24 22 18 19 24 25 29 32 40 44 47 49 51 54 56 57 58 57 57 58 58 59 59 58 59 58 60 61 61 61 61 59 58 58 54 56 54 52 52 52 51 50 48 47
23 21 19 19 20 24 21 18 20 23 25 28 30 36 42 46 49 51 53 55 57 56 57 57 57 58 57 58 58 59 59 59 60 60 60 60 60 58 57 56 56 55 52 53 53 52 49 49 48
23 21 20 20 20 23 23 20 16 18 27 30 36 36 39 44 48 50 52 54 56 56 56 56 56 57 57 58 57 57 58 58 58 59 59 59 60 58 58 55 55 56 54 53 54 52 52 49 48
20 20 21 20 20 18 22 13 13 20 24 24 26 37 41 43 47 49 51 52 55 55 56 56 56 56 57 57 56 56 55 54 56 58 58 59 59 58 58 56 56 57 55 55 54 52 53 51 48
22 23 21 24 22 21 20 18 16 20 24 25 25 28 41 45 47 49 50 52 54 55 56 56 56 56 56 56 56 56 55 54 58 57 57 58 58 58 58 58 57 57 56 57 57 55 55 52 51
25 27 27 28 26 23 23 19 14 17 24 23 25 32 40 45 48 49 50 51 53 56 56 56 55 55 55 55 56 55 55 54 55 56 56 56 57 58 57 57 57 58 56 56 57 58 58 56 55
25 27 23 24 24 21 20 21 19 24 25 26 26 28 40 45 48 49 49 49 52 54 55 55 55 54 55 56 55 55 55 55 54 54 55 53 53 55 56 57 58 57 57 57 58 58 58 58 56
25 26 22 16 19 20 23 21 21 26 26 27 32 33 37 44 48 49 49 49 51 53 54 54 54 54 54 54 54 54 54 54 54 54 53 54 52 52 55 55 55 56 56 58 59 60 58 58 58
21 23 24 21 21 22 22 25 29 27 28 29 28 28 34 42 46 48 49 50 50 53 54 54 54 54 54 54 54 53 53 53 53 54 54 52 53 52 54 56 56 56 56 56 58 57 57 58 59
18 20 23 24 19 16 15 18 21 23 24 24 28 28 32 39 44 47 48 50 50 52 53 55 54 53 54 54 54 53 53 53 53 53 53 53 53 52 52 54 55 55 55 55 56 56 56 56 57
15 19 22 20 22 19 18 17 25 24 25 25 28 29 33 39 43 46 48 50 51 51 52 54 54 52 53 54 55 55 54 54 54 53 53 53 54 53 53 53 54 54 54 54 56 56 55 55 56
30 23 19 19 17 23 22 19 25 27 28 29 30 32 32 38 42 44 47 49 50 51 52 53 53 53 53 53 54 54 55 54 54 54 53 54 53 54 54 54 53 53 53 55 56 56 55 56 56

GFSSGP_sfc_dewp_099.txt.gz
Dewpoint
52 41 36 33 23 18 14 14 16 14 17 23 27 26 26 27 27 29 53 58 64 62 63 67 71 72 72 72 72 72 72 72 72 71 72 71 71 71 70 70 69 69 68 66 66 66 65 65 65
38 32 35 30 18 14 11 15 14 16 19 26 26 27 27 29 33 39 47 60 64 64 63 65 71 71 72 72 71 71 72 72 71 71 72 71 71 71 70 70 68 68 68 66 66 65 65 65 65
42 33 30 23 18 13 11 16 15 17 20 23 22 27 29 28 39 43 57 59 61 61 63 64 70 71 72 72 71 71 71 71 70 71 71 72 71 71 70 69 68 68 67 65 65 64 64 65 65
27 22 20 14 14 15 15 15 18 19 19 24 24 26 27 34 38 50 56 57 57 59 61 68 69 70 71 71 71 71 71 70 70 70 71 71 71 70 69 68 67 67 67 65 64 63 63 64 64
26 21 16 14 12 13 16 16 19 18 18 25 25 28 25 34 44 54 57 57 58 59 63 70 66 69 70 70 70 71 70 70 70 70 70 70 69 69 68 67 66 66 66 65 63 63 63 64 63
21 17 14 12 11 11 17 18 21 21 23 23 27 28 28 47 49 51 59 58 60 61 65 68 65 67 66 65 66 69 69 69 69 69 69 69 68 68 67 67 66 66 65 65 64 63 63 63 62
23 18 15 12 11 10 16 20 22 21 22 24 25 29 29 37 53 59 58 60 63 64 65 66 65 64 63 63 63 66 68 68 68 68 68 68 67 66 67 67 66 66 65 65 64 64 63 62 61
19 17 15 13 11 8 13 18 23 22 21 26 31 25 28 51 57 58 59 62 63 64 64 65 62 63 64 64 63 63 68 67 67 67 67 66 66 66 66 67 66 66 65 65 64 63 63 62 61
21 15 14 14 13 12 11 19 21 23 25 25 27 34 36 47 52 55 57 60 63 63 63 65 64 63 63 64 64 65 67 66 66 67 66 65 65 65 65 65 66 66 64 64 64 63 62 61 61
18 15 14 15 13 12 13 18 20 21 23 23 27 30 37 50 52 51 53 54 58 63 62 64 64 62 62 65 63 65 65 66 67 67 67 64 66 64 61 65 66 65 64 64 63 63 62 57 50
18 16 15 15 14 14 14 14 16 17 20 23 23 27 34 42 51 53 54 55 56 58 63 62 64 63 62 63 65 66 64 63 66 67 66 64 65 66 65 65 65 64 62 57 58 58 52 52 50
18 18 18 17 15 15 15 17 16 16 19 21 23 27 38 43 50 53 54 57 55 57 59 63 63 64 65 65 67 67 63 62 66 68 66 65 65 65 65 63 61 62 59 57 56 54 56 54 52
20 20 21 19 18 17 17 16 16 16 18 20 22 29 40 47 48 52 57 57 57 57 59 63 63 64 65 65 67 67 64 66 66 65 66 64 63 65 63 61 61 59 59 57 57 54 54 55 53
19 19 20 21 19 18 17 17 18 19 19 22 26 35 43 48 50 54 56 55 56 58 59 61 63 63 63 65 65 66 65 65 65 65 65 66 65 64 59 61 60 59 58 57 56 55 55 54 51
20 20 20 20 20 19 19 18 18 18 18 18 31 36 44 47 50 51 52 53 56 58 59 59 60 62 62 63 64 66 66 66 65 64 64 65 64 62 60 60 59 57 58 61 58 57 54 51 49
24 23 20 21 21 19 20 18 18 21 22 29 30 31 42 47 49 50 52 53 55 59 59 60 60 61 62 62 63 65 64 65 64 64 63 63 63 61 61 59 58 59 58 58 56 55 50 48 46
22 19 20 20 21 20 19 20 17 26 28 28 28 29 34 45 50 51 52 54 56 58 59 59 60 60 61 61 62 63 64 63 64 64 63 63 61 60 57 58 57 60 57 57 56 53 52 48 45
19 19 20 21 21 20 20 18 19 20 24 26 26 26 32 38 46 51 52 54 56 58 59 60 60 60 60 61 62 61 61 63 63 64 63 62 61 60 58 56 58 56 55 55 54 54 51 49 48
21 20 20 20 21 20 20 21 19 19 19 23 25 25 29 37 44 50 52 55 56 58 58 58 59 59 60 59 60 60 60 61 62 63 62 61 60 59 58 54 57 56 53 54 55 54 55 51 51
21 22 22 21 21 21 22 21 21 19 18 20 24 25 28 33 44 49 52 54 56 56 58 57 58 59 59 59 59 59 60 61 61 62 61 60 60 59 58 57 57 56 54 55 56 56 52 51 51
21 23 24 22 22 21 21 21 22 21 20 18 21 27 27 31 42 48 51 54 56 56 57 57 57 58 58 58 59 59 59 59 59 60 60 60 59 58 57 57 57 57 56 55 56 56 54 50 50
15 20 21 21 20 18 21 17 20 18 14 16 25 28 30 31 38 47 50 52 55 56 57 57 57 57 58 58 57 58 57 56 58 59 59 59 59 57 57 57 57 58 56 56 57 55 56 54 50
16 19 20 20 21 22 20 17 19 21 18 16 22 25 26 34 39 46 49 51 53 56 56 57 57 56 57 58 58 57 57 57 58 59 59 59 59 58 57 56 58 59 57 58 58 57 57 55 54
20 21 21 24 22 20 21 20 18 18 19 23 24 23 29 34 41 45 49 50 52 56 56 55 56 55 57 57 57 57 56 56 58 57 57 57 59 59 59 57 58 59 58 58 59 59 57 56 56
22 21 21 20 22 22 21 21 22 21 19 24 23 25 33 37 43 46 48 49 51 55 55 56 55 55 56 56 56 56 56 55 56 57 57 55 56 57 57 57 58 57 58 58 59 59 59 59 58
22 22 24 16 19 22 23 18 19 22 22 24 26 28 31 37 43 46 47 49 50 54 55 55 54 54 55 56 56 56 56 54 53 56 57 56 55 57 57 55 55 55 57 57 58 60 58 58 60
16 23 23 23 24 24 27 23 23 27 26 25 24 26 29 36 42 45 47 49 49 53 54 55 54 54 55 56 56 56 55 54 53 55 56 56 57 56 57 57 56 56 56 57 56 56 56 58 59
18 16 20 22 21 18 16 18 20 24 24 25 25 27 27 32 40 44 46 49 50 52 53 55 54 53 54 55 55 54 54 55 54 56 56 57 57 55 56 57 56 56 55 56 56 56 57 58 59
16 18 19 19 18 18 20 20 25 22 26 26 26 29 28 32 38 43 45 48 50 52 52 54 53 52 53 54 55 56 54 54 54 55 56 56 56 55 54 55 55 55 56 56 57 57 57 56 56
26 17 18 21 18 18 22 21 25 25 25 27 30 29 31 32 36 41 45 47 49 50 51 53 54 52 53 54 54 55 55 54 54 55 55 56 56 56 55 54 53 54 54 56 56 56 55 56 56

GFSSGP_sfc_dewp_102.txt.gz
Dewpoint
52 45 37 35 26 22 18 15 15 14 14 21 24 23 23 22 23 32 55 62 63 63 67 68 72 73 72 72 72 72 72 72 72 72 72 72 71 71 70 70 69 68 69 67 66 66 65 66 66
38 35 33 30 25 18 15 14 15 14 19 25 23 22 24 26 32 40 56 62 64 61 67 67 71 72 72 72 72 72 72 72 72 72 71 71 71 70 70 70 69 68 68 66 65 65 65 65 66
46 41 28 28 24 18 15 13 15 16 19 21 20 21 24 27 40 49 57 61 60 61 63 68 70 71 72 72 72 71 72 71 71 71 70 70 70 70 70 69 68 68 68 65 65 65 65 65 65
34 27 22 17 13 14 14 15 17 17 17 19 23 23 24 32 34 51 56 55 57 60 66 68 69 70 71 71 72 71 70 71 70 69 68 70 70 70 69 68 68 68 67 65 65 65 65 65 64
28 22 19 17 15 13 12 16 16 17 17 19 21 22 26 30 50 54 56 57 60 63 66 69 67 69 71 71 71 71 70 70 70 70 69 69 68 69 68 67 67 66 66 65 64 64 64 64 63
23 21 17 13 13 11 12 18 17 20 22 20 22 25 28 45 47 53 60 60 63 65 69 70 66 67 69 70 70 69 69 68 69 69 68 68 68 68 67 67 67 66 65 65 65 64 64 63 62
21 21 18 16 16 14 11 18 19 20 20 23 23 25 28 45 55 59 60 63 66 67 67 68 68 66 66 65 66 65 65 64 67 68 66 66 67 67 67 67 66 66 65 65 64 64 63 63 61
21 20 17 14 14 14 13 12 21 20 19 22 25 25 30 54 57 59 61 63 65 66 66 66 66 65 64 65 63 63 63 62 61 67 66 66 66 66 66 66 66 65 65 65 64 63 63 62 60
21 18 15 14 14 15 13 13 18 20 19 22 24 26 33 47 55 57 59 62 64 64 65 66 65 64 65 64 64 63 62 63 59 67 66 66 65 65 65 65 65 65 64 64 63 63 62 61 59
19 19 16 14 14 15 14 15 13 17 20 20 25 27 36 48 50 52 54 56 61 63 64 65 66 64 64 64 63 62 61 61 59 65 66 65 65 65 63 65 64 64 64 63 63 62 61 57 54
19 17 17 15 15 16 14 14 14 14 15 19 20 24 33 46 50 53 55 55 58 62 64 63 64 64 62 64 63 63 62 61 62 65 65 65 65 64 65 65 63 62 62 60 60 58 52 50 50
17 16 16 16 16 16 16 16 15 16 17 18 19 21 28 39 45 52 55 57 57 62 63 63 64 63 63 64 62 63 63 62 63 66 65 65 63 64 65 64 61 59 57 57 56 54 54 52 52
20 19 18 20 18 19 20 18 18 17 18 18 17 23 32 42 45 50 56 60 60 59 61 63 64 64 64 63 64 64 63 61 62 64 65 63 62 64 65 63 62 56 57 56 54 53 55 54 53
26 23 20 19 19 21 20 19 18 19 21 22 22 27 32 41 46 52 57 57 56 58 61 62 63 64 65 64 63 63 63 60 63 65 65 64 63 64 63 61 61 59 57 56 54 54 56 56 54
24 22 20 19 18 18 19 18 18 20 20 21 21 22 32 41 45 49 54 54 56 58 60 60 62 63 63 63 65 65 65 63 64 64 64 64 64 64 61 60 61 59 57 58 56 57 57 55 52
24 24 22 23 21 20 20 18 21 21 20 18 18 29 33 41 44 49 52 52 55 59 59 60 60 62 62 63 64 65 65 64 64 63 64 64 64 62 60 59 59 59 58 58 57 57 55 54 52
19 20 21 22 23 21 20 19 19 20 21 24 28 28 29 41 48 49 51 54 55 59 58 60 61 61 62 62 63 64 64 64 64 63 63 63 62 61 59 58 61 61 58 58 58 56 54 52 49
15 19 20 21 22 21 20 20 20 21 20 25 28 29 28 31 47 50 52 54 57 60 59 60 60 61 61 61 61 62 63 64 64 63 62 62 62 61 59 59 60 60 60 58 57 55 54 51 50
14 16 21 27 27 25 23 21 20 23 22 23 23 25 27 30 41 52 53 56 57 59 58 58 59 60 60 60 60 60 60 61 63 63 61 61 61 60 58 56 57 57 57 58 57 55 53 52 53
9 17 21 24 26 26 24 21 21 23 23 23 21 22 25 30 43 51 53 55 57 57 57 57 59 59 59 59 59 60 60 60 61 63 61 61 60 59 56 56 56 55 56 56 55 54 53 54 54
13 12 23 24 26 27 26 22 22 21 23 24 23 23 23 29 43 50 52 55 57 56 56 57 57 59 59 59 59 59 60 60 60 61 61 60 59 58 57 57 57 56 55 56 55 55 54 53 52
17 16 16 16 19 22 25 19 22 21 22 23 24 25 23 29 33 49 52 54 56 56 56 56 57 58 59 59 58 58 58 57 59 60 60 60 59 58 58 59 58 57 56 55 56 56 55 53 50
19 19 17 19 21 21 19 18 20 21 20 21 23 23 29 32 34 48 50 53 55 56 56 56 57 58 57 58 58 58 57 58 59 59 58 58 58 57 57 58 57 56 56 57 56 56 55 55 52
21 20 20 20 20 20 20 19 19 20 21 21 23 22 29 30 36 46 50 52 53 57 56 56 56 56 58 58 58 58 57 57 57 57 57 57 57 57 57 56 58 58 58 57 57 57 55 56 55
22 22 20 19 20 18 20 20 21 23 23 25 23 27 34 40 42 45 48 50 52 56 56 56 55 55 57 57 58 57 57 57 57 57 57 57 56 56 56 56 58 58 57 57 58 57 57 56 56
18 23 23 20 20 23 29 29 23 24 24 25 26 29 33 37 44 45 48 50 52 55 55 55 55 54 56 57 57 57 56 57 57 56 57 57 56 56 56 56 57 57 56 57 57 57 58 58 58
16 20 23 25 25 24 27 27 28 27 26 25 24 28 33 38 42 45 48 51 52 55 55 56 55 53 55 56 56 56 56 55 56 56 56 56 57 57 57 56 56 57 57 57 57 56 57 57 56
13 14 18 23 21 21 21 23 29 32 30 29 28 29 32 35 41 45 47 51 52 54 55 56 55 54 54 56 56 56 56 55 54 57 56 56 56 56 57 56 55 54 54 55 56 55 55 56 56
13 15 18 20 23 22 22 21 31 30 31 30 32 31 35 34 39 44 46 50 51 54 55 55 55 54 55 56 56 56 55 55 54 54 56 56 56 56 56 56 56 55 54 55 55 54 54 54 54
29 20 18 19 18 23 23 21 25 32 33 32 32 32 34 35 37 43 46 50 50 52 54 54 55 54 55 56 55 54 55 55 54 55 53 54 56 56 55 56 55 55 54 54 54 55 54 55 55

GFSSGP_sfc_dewp_105.txt.gz
Dewpoint
53 50 43 37 30 24 20 20 18 15 22 26 23 23 24 23 23 34 59 62 68 68 71 71 71 71 72 72 72 72 72 72 72 72 72 71 70 70 70 70 69 69 69 68 68 67 67 66 67
42 38 37 32 26 24 23 18 16 23 25 25 23 25 25 27 50 58 59 63 66 68 69 71 71 71 72 72 72 72 72 72 72 72 72 71 70 70 70 69 69 68 68 66 66 66 66 66 66
47 42 33 28 27 23 21 17 17 20 23 23 21 23 28 32 49 56 59 63 61 66 67 69 71 71 71 72 72 72 71 72 71 71 71 71 70 70 70 69 68 68 68 66 66 66 66 67 66
39 36 26 18 18 17 19 16 21 19 18 21 23 25 29 35 48 57 59 58 57 63 68 69 69 70 71 72 72 71 71 71 71 70 70 70 70 69 69 68 68 68 67 66 65 65 66 66 65
32 27 20 22 18 18 18 16 18 17 22 26 25 24 28 45 56 56 57 57 57 63 68 68 68 70 71 72 71 71 71 70 70 68 68 67 68 68 67 67 68 67 67 66 66 66 65 64 64
30 22 18 17 17 16 17 18 21 22 30 23 25 30 31 53 54 57 59 58 59 63 68 67 68 69 70 71 71 70 70 70 68 68 67 67 66 67 67 67 67 66 66 66 66 65 64 64 63
27 22 19 18 18 16 15 21 21 21 25 32 29 30 45 53 57 59 59 60 64 65 66 66 65 65 67 68 67 69 68 68 67 67 67 67 66 66 67 67 67 66 65 65 65 65 63 63 62
25 21 19 19 17 15 16 21 25 21 20 25 28 26 31 54 58 59 59 61 63 63 63 64 64 63 62 63 64 65 66 66 66 67 66 66 66 66 66 66 66 65 65 65 65 64 63 62 60
23 19 18 17 16 15 16 20 23 22 19 22 24 25 32 56 57 58 59 61 61 63 63 63 63 61 62 62 63 63 65 65 65 64 63 64 65 66 65 65 65 65 65 64 64 63 61 60 59
21 18 18 19 18 17 18 20 15 20 24 23 29 29 48 56 56 56 57 59 61 61 62 63 63 62 62 63 62 62 62 63 63 63 60 65 65 65 63 65 65 64 64 63 63 62 61 58 54
22 18 19 19 19 18 18 16 16 15 14 21 21 26 50 54 54 54 55 55 60 62 63 63 63 62 61 62 61 62 62 62 61 60 60 64 65 65 65 64 63 63 62 60 59 57 54 52 52
23 22 20 18 18 16 15 18 19 18 16 20 19 20 29 49 51 52 52 53 59 62 62 62 62 61 60 61 61 61 61 60 61 60 63 63 65 65 63 62 61 60 59 58 55 52 52 50 51
24 22 22 21 19 18 20 19 22 20 20 21 20 21 25 43 43 51 53 56 58 61 62 61 62 61 61 62 61 63 62 62 62 61 64 64 64 64 62 60 59 57 57 56 52 52 50 50 50
27 26 25 25 23 20 19 20 21 22 22 22 22 26 27 35 45 53 56 56 56 59 61 61 61 62 62 62 61 63 61 61 63 61 64 64 63 63 61 59 56 56 55 54 51 53 53 52 51
26 25 25 24 23 21 20 18 19 20 21 21 21 21 27 37 44 52 56 57 56 58 60 61 61 63 62 63 62 63 61 61 63 64 65 64 64 63 62 59 55 56 55 53 53 54 55 53 53
14 18 21 24 25 24 22 19 21 21 21 20 20 21 27 37 43 49 55 55 56 58 58 60 61 61 61 63 63 63 61 61 63 64 64 64 64 63 62 60 56 58 55 54 55 55 55 52 52
14 12 16 18 23 23 23 21 23 29 21 20 21 23 28 32 45 50 52 54 57 57 58 59 60 60 60 60 63 63 63 62 63 63 64 63 63 62 61 61 59 59 56 57 56 56 54 51 51
11 14 15 17 20 26 26 27 28 30 25 20 25 27 27 28 45 49 52 56 58 58 59 59 59 59 60 59 60 61 63 63 62 62 63 63 62 61 61 61 59 61 57 59 59 54 53 50 50
5 9 10 12 20 25 25 27 27 28 28 21 22 27 28 28 46 50 53 56 58 58 58 58 59 60 58 57 57 57 59 62 62 61 62 62 61 61 61 60 60 61 58 59 57 54 50 49 48
5 8 9 11 21 21 23 27 29 30 29 28 24 23 22 27 48 51 54 56 57 57 57 57 58 59 58 58 58 58 58 59 63 62 62 61 61 60 59 58 58 59 59 58 56 53 52 50 52
14 15 13 10 15 22 25 27 29 29 27 25 24 24 24 33 49 52 54 55 56 56 56 56 58 58 57 59 59 58 58 59 59 61 61 61 60 60 57 57 56 58 59 56 55 52 52 51 52
15 19 18 16 16 15 24 21 28 27 24 24 22 23 24 30 50 52 54 56 56 55 56 56 57 58 59 59 58 58 57 57 59 58 61 60 60 59 57 57 56 56 58 56 55 54 53 51 49
15 24 21 20 19 18 18 17 23 23 21 21 22 24 24 25 50 51 53 55 55 55 56 56 57 58 58 58 58 57 57 58 59 60 60 60 60 59 57 58 57 57 56 56 54 56 56 53 52
23 25 23 21 20 17 18 18 18 19 20 21 23 23 25 25 48 51 53 55 55 55 55 56 57 57 57 57 58 57 57 57 57 59 58 59 59 58 57 58 57 57 57 57 57 56 56 56 54
21 21 21 20 18 17 19 19 19 25 23 22 22 24 30 32 48 50 52 54 54 55 55 56 56 56 57 57 57 56 57 57 57 57 57 57 57 57 57 57 57 58 58 58 57 56 56 56 56
20 19 23 18 19 18 25 27 27 28 29 30 24 26 34 47 48 50 51 53 55 54 55 56 55 55 57 57 57 57 57 57 57 57 56 57 56 57 57 56 57 58 58 57 57 57 57 56 56
11 17 19 23 23 23 25 25 27 38 37 36 26 25 34 43 47 50 50 52 55 54 55 55 54 55 56 56 56 55 56 57 57 57 56 56 56 57 56 55 55 58 58 57 56 56 56 56 56
13 16 16 24 22 21 20 20 25 33 36 37 32 32 32 41 45 48 49 52 55 54 54 54 55 54 55 56 56 56 56 57 57 57 56 56 56 55 56 55 54 56 57 56 56 55 56 55 56
30 16 15 18 27 22 21 22 34 39 41 41 37 32 32 36 43 48 49 51 54 54 54 54 54 53 55 55 56 56 55 55 56 56 56 56 56 55 56 55 54 55 56 56 55 54 54 54 54
33 32 29 13 16 24 22 21 27 35 36 41 37 36 39 38 43 46 49 51 53 54 54 54 54 54 54 55 56 55 55 54 54 56 56 56 55 56 56 56 55 55 54 54 54 54 54 54 53

GFSSGP_sfc_dewp_108.txt.gz
Dewpoint
54 48 41 36 29 24 21 20 22 17 24 25 23 22 22 22 23 25 56 66 68 69 70 70 71 72 72 72 72 72 72 72 72 72 71 71 71 70 70 70 70 70 70 67 67 67 68 68 68
41 39 36 32 26 23 23 24 19 22 25 25 23 23 24 33 56 58 60 67 68 69 70 70 71 71 72 72 72 72 72 72 72 71 71 70 70 70 70 70 69 69 69 68 68 67 67 67 68
40 42 35 27 27 24 23 19 19 23 26 23 19 22 25 36 57 59 59 66 68 68 70 70 70 71 71 72 71 71 72 72 71 71 71 70 70 70 70 69 68 69 68 67 67 67 66 67 66
39 35 31 20 22 23 24 24 18 20 20 22 22 23 29 49 56 57 62 64 67 67 69 69 69 70 71 71 71 71 71 71 71 70 70 70 70 70 69 69 68 68 68 67 66 66 67 66 66
32 26 21 20 18 18 19 19 19 17 22 25 26 26 27 51 56 59 60 58 61 66 67 69 69 69 71 71 72 71 71 70 70 70 68 67 69 69 69 68 68 67 67 67 67 67 67 66 65
30 22 17 18 17 18 19 20 20 21 27 22 25 26 42 55 56 57 58 57 63 66 67 68 69 70 70 71 71 70 69 70 69 68 67 67 67 68 68 68 67 67 67 66 66 66 65 64 63
27 24 21 18 19 20 20 18 22 22 26 29 30 30 49 52 55 57 57 60 66 67 66 66 67 68 69 69 69 69 69 68 67 66 66 67 66 67 67 67 67 67 66 66 66 65 64 63 62
30 25 24 20 18 18 20 19 25 21 20 26 28 29 47 51 58 59 61 63 64 65 65 64 64 64 63 65 67 67 68 66 66 66 65 65 64 65 66 66 67 67 66 66 65 64 63 62 61
24 20 20 20 18 18 20 20 21 22 19 22 25 27 31 54 58 58 60 61 61 62 62 63 62 61 61 62 63 65 65 65 65 65 64 63 62 64 66 65 66 66 65 65 65 63 62 61 61
23 20 20 20 20 19 21 23 19 17 22 23 27 33 56 56 57 57 58 59 60 61 61 62 61 60 61 63 61 61 62 65 65 64 64 65 63 65 65 65 65 65 65 65 64 63 61 58 55
24 20 20 20 20 20 19 19 18 17 16 20 19 24 55 55 56 56 57 58 59 61 62 62 62 61 61 61 60 60 62 62 64 63 64 65 64 65 65 64 64 63 64 62 61 59 55 53 52
27 27 23 21 21 20 18 18 17 18 18 20 20 22 54 54 55 55 56 57 59 61 61 62 62 61 60 60 59 60 61 62 62 62 63 63 63 64 64 63 62 61 61 58 56 54 52 51 51
27 27 26 24 23 22 21 19 19 20 21 23 22 24 48 54 54 54 54 54 61 61 61 61 61 60 60 59 59 60 60 61 61 61 61 62 63 63 63 62 61 60 58 56 53 51 51 50 51
27 27 27 26 25 24 23 22 20 22 24 24 25 27 27 47 51 52 55 57 61 61 61 61 61 60 60 61 60 61 62 61 61 61 61 60 63 63 62 60 59 57 56 53 51 52 49 49 50
19 18 19 23 25 24 23 21 20 21 22 23 23 22 25 27 45 49 54 56 59 61 61 60 61 61 60 61 60 62 61 61 61 61 61 61 63 63 61 59 56 56 54 51 51 53 51 51 51
15 18 18 25 25 25 25 21 25 26 29 29 30 27 23 25 41 50 54 56 58 60 60 60 62 61 61 62 62 62 61 62 62 61 63 62 62 63 60 57 54 55 54 50 52 53 53 52 52
14 16 19 19 18 18 21 18 24 29 29 28 29 29 24 23 39 48 55 56 58 59 59 59 60 60 60 62 62 62 60 61 63 62 63 63 63 62 59 56 54 55 53 50 53 54 54 51 51
11 13 13 13 16 21 23 24 26 28 28 29 30 30 26 27 38 48 54 56 58 58 59 59 59 59 60 60 62 62 61 62 63 63 63 63 63 62 60 56 55 55 54 51 55 54 54 52 51
10 7 4 5 7 16 19 23 22 26 27 27 29 30 27 27 37 51 56 56 57 58 58 58 57 58 58 56 59 61 60 61 61 62 62 63 63 62 61 57 57 56 54 52 55 55 52 50 49
4 3 2 3 8 13 16 16 15 26 27 28 30 29 27 28 49 53 56 56 57 57 57 57 58 58 57 57 57 58 60 61 61 62 62 63 62 62 61 59 57 56 55 56 56 53 51 50 48
6 4 4 7 13 14 18 18 20 25 30 31 31 28 26 27 49 53 56 56 57 56 56 57 58 59 58 57 57 56 58 59 60 61 61 62 61 61 61 60 58 58 57 58 56 53 51 49 50
18 18 17 18 17 15 18 13 16 18 22 27 27 26 25 35 49 52 54 56 56 56 56 57 58 58 58 58 57 56 55 56 58 61 60 62 61 60 60 60 59 59 58 57 56 53 52 50 47
18 20 20 21 19 17 17 16 14 21 18 20 23 23 23 24 48 52 54 55 56 55 55 56 58 58 58 58 58 57 57 57 56 58 60 60 61 60 58 58 59 60 59 58 55 54 55 53 51
17 20 24 23 20 17 18 17 16 17 19 21 21 23 24 25 46 51 53 55 55 55 55 56 57 57 58 58 58 57 57 57 57 58 58 59 60 60 58 58 58 59 59 57 57 57 56 55 54
17 20 19 18 18 15 18 19 18 21 21 25 29 30 34 34 43 51 54 54 54 54 55 56 56 56 57 57 58 57 57 58 58 58 59 58 59 59 58 58 58 58 59 58 58 57 56 56 55
15 15 16 16 17 16 20 19 26 28 31 39 40 39 37 34 42 51 54 54 54 54 55 55 56 56 56 56 57 57 56 57 57 58 58 58 58 58 58 58 58 58 58 58 58 57 56 56 56
16 18 18 20 23 21 21 22 23 24 40 41 41 41 38 47 49 51 53 54 54 54 54 55 55 56 56 57 57 57 57 56 56 57 58 58 58 58 58 58 58 58 57 57 57 56 56 56 56
21 19 14 21 17 14 21 22 23 31 38 40 42 42 40 43 49 51 53 54 54 54 55 55 54 55 56 57 57 56 56 56 56 56 56 57 57 57 57 57 57 57 57 57 57 56 56 56 55
28 28 29 19 25 17 20 21 37 38 39 41 44 43 41 41 42 50 51 54 54 54 54 54 54 54 54 55 56 56 56 56 56 56 56 55 56 57 56 56 56 56 57 57 57 56 55 55 54
29 28 30 27 21 26 23 20 24 40 41 43 44 41 40 37 38 49 49 54 54 54 54 54 53 53 54 54 56 55 55 56 56 56 56 56 55 56 55 55 55 55 55 56 55 55 54 54 54

GFSSGP_sfc_dewp_111.txt.gz
Dewpoint
55 47 40 36 28 25 24 21 22 19 23 24 24 23 22 22 22 23 49 60 67 69 70 70 71 71 71 71 72 72 72 72 72 72 72 72 72 71 71 71 71 71 69 69 69 69 70 69 69
40 40 36 31 26 22 20 24 21 22 24 27 25 24 25 33 54 55 59 66 68 69 69 70 71 71 71 71 72 72 72 72 71 71 71 71 71 71 71 71 70 70 70 68 69 69 69 68 69
39 41 35 27 26 23 22 23 19 19 23 25 21 22 27 39 56 58 60 67 68 69 70 69 70 71 71 71 72 72 71 71 71 71 71 71 71 71 71 70 69 69 68 67 67 68 68 68 67
38 37 30 23 23 26 25 25 25 20 19 21 21 23 30 44 55 60 61 67 67 69 70 69 69 70 71 71 71 71 71 71 70 70 70 70 71 70 70 69 69 69 67 67 68 67 68 67 67
31 27 23 20 18 19 21 21 20 19 20 23 24 25 28 47 56 59 63 67 66 67 69 69 68 70 71 71 71 71 71 70 70 70 70 69 69 69 69 68 68 68 68 68 67 67 67 67 66
29 23 18 18 18 19 20 21 24 22 24 25 27 28 32 52 57 60 62 66 66 66 67 69 69 69 70 71 71 70 70 70 69 68 69 68 67 67 67 68 68 67 67 67 67 67 67 65 64
27 23 19 17 18 20 21 21 21 21 25 25 28 29 45 53 56 60 58 59 65 66 66 67 68 69 69 69 69 69 69 69 68 67 66 67 66 66 67 67 67 67 66 66 67 66 65 63 63
28 26 24 21 20 19 20 20 24 20 19 23 30 39 44 51 56 59 61 63 64 64 65 65 66 67 68 69 68 68 68 68 67 65 65 65 65 65 66 65 66 67 66 66 66 64 63 62 63
27 24 23 23 19 19 20 21 24 20 20 21 25 39 42 55 59 60 60 61 62 63 63 63 63 64 64 65 67 67 68 66 66 65 65 64 64 64 64 65 66 66 66 66 65 64 62 62 62
27 24 22 23 21 20 22 24 21 19 21 20 24 35 55 57 57 58 59 59 60 61 61 63 62 61 61 63 62 63 65 66 65 64 65 64 62 62 63 65 66 65 65 65 64 63 61 60 58
24 24 22 21 21 21 20 20 21 19 18 20 18 21 54 56 56 57 58 58 60 61 61 62 62 60 60 61 60 60 60 64 65 64 64 63 62 63 65 65 65 64 64 63 62 60 55 55 56
28 25 24 23 23 23 21 21 19 18 18 20 20 22 53 55 56 56 56 57 58 59 61 61 61 60 60 60 60 61 61 62 64 64 63 63 62 64 62 63 63 62 62 60 59 56 53 52 53
27 27 28 28 27 26 24 22 21 20 21 23 23 26 49 54 55 55 56 56 57 59 60 61 61 60 60 59 58 59 60 61 63 63 64 64 63 63 63 64 62 61 58 58 55 53 52 51 53
28 28 27 27 26 26 25 25 23 23 24 24 25 28 34 52 54 54 55 54 56 59 60 61 61 61 59 59 58 59 59 60 62 62 63 64 63 63 63 63 61 59 58 55 54 52 51 51 53
20 18 19 21 23 24 25 23 21 22 23 29 30 31 32 31 42 53 53 53 53 59 61 61 61 60 59 59 58 60 60 60 60 61 62 62 63 63 63 62 59 58 55 52 51 51 50 51 53
16 18 17 24 24 24 23 21 26 24 28 28 29 29 31 32 30 41 50 52 55 60 60 61 61 60 59 60 59 60 61 61 61 61 61 62 62 63 61 60 58 56 53 51 51 51 50 51 52
14 12 15 17 21 21 19 14 21 24 27 28 28 30 31 31 32 32 42 52 58 60 60 60 60 60 59 59 60 61 59 61 62 62 61 61 63 61 60 59 56 55 52 50 50 52 50 50 52
13 12 14 15 14 17 18 16 14 24 27 26 28 29 29 31 30 32 45 55 59 60 60 59 60 59 59 61 62 61 59 61 62 62 61 61 63 61 60 57 55 53 50 49 51 52 52 51 52
14 12 10 9 9 6 5 8 10 14 23 25 25 24 27 28 31 34 55 56 57 58 58 58 58 58 59 59 60 59 59 61 61 62 61 61 62 61 58 56 55 53 48 49 52 52 51 51 51
7 7 6 5 4 8 7 8 11 17 17 24 26 27 28 28 31 50 55 56 57 58 58 58 58 58 57 58 59 60 60 61 61 62 62 62 62 61 59 55 55 52 49 50 53 52 51 51 50
11 8 8 5 7 11 12 14 16 19 23 28 30 29 29 30 28 48 55 56 56 57 57 57 58 58 57 56 56 58 60 60 60 61 61 62 62 62 60 56 55 52 51 49 53 53 52 50 49
20 15 11 9 15 14 17 13 16 17 18 21 23 23 27 28 33 48 55 55 56 56 57 57 57 57 56 56 56 57 58 58 59 60 61 62 62 62 61 58 55 53 53 50 53 54 53 51 48
22 23 22 21 18 17 17 17 15 17 17 18 19 21 24 26 38 49 54 55 56 56 56 57 57 57 57 57 56 55 54 56 59 60 60 61 61 61 61 60 57 56 54 56 54 55 54 51 49
20 19 21 23 20 17 15 17 13 15 17 20 21 23 37 37 33 44 52 55 56 55 55 56 56 57 58 58 56 55 54 55 55 58 59 60 61 61 61 61 60 59 58 57 56 55 54 53 51
16 17 13 13 17 14 16 18 15 20 21 26 38 40 41 41 41 38 50 55 55 55 55 56 56 56 57 57 57 56 56 57 56 56 57 58 60 60 60 60 60 60 59 58 56 56 55 54 53
15 17 15 6 11 11 19 18 19 26 32 41 41 43 43 43 42 46 50 54 54 55 55 56 56 56 56 57 57 57 57 57 57 57 57 58 58 60 59 59 59 60 58 57 57 56 56 56 56
21 15 17 14 16 20 17 20 20 28 37 39 41 44 43 43 42 44 52 54 54 54 55 55 55 56 56 56 57 57 57 57 57 58 59 59 60 59 59 58 59 59 58 58 57 57 57 57 56
26 25 15 20 16 10 14 20 21 26 35 38 39 44 44 42 42 42 53 54 54 54 55 55 55 55 55 56 57 56 56 56 57 57 57 58 59 58 58 58 58 58 58 58 58 57 57 56 56
23 27 28 27 22 17 13 14 32 36 39 39 41 43 43 43 45 44 47 54 54 55 55 55 55 55 55 56 57 56 56 56 56 56 57 57 58 58 58 57 57 57 57 57 57 57 56 55 55
26 30 31 26 25 26 26 21 29 29 42 42 43 41 44 46 45 43 43 54 54 55 55 54 54 55 55 56 56 56 56 56 56 55 55 57 56 57 57 57 57 57 56 56 56 55 56 55 55

GFSSGP_sfc_dewp_114.txt.gz
Dewpoint
55 44 38 34 27 26 24 21 22 21 22 24 25 23 22 22 25 21 45 64 66 67 69 70 70 71 71 72 72 71 71 71 73 73 72 72 72 72 72 72 72 71 70 69 70 71 70 70 70
44 40 35 30 24 21 17 24 23 22 24 27 25 26 25 27 50 52 54 62 67 68 69 69 71 71 71 71 72 72 71 71 70 71 72 72 72 72 72 71 71 71 71 69 70 70 70 70 70
39 40 32 27 26 21 19 24 19 21 21 26 20 22 27 32 54 56 58 65 68 68 69 69 70 70 71 71 71 72 71 70 70 70 72 72 71 71 71 70 70 70 71 70 69 70 69 69 68
37 35 28 25 23 26 24 25 26 21 20 22 21 21 26 39 52 58 59 67 68 68 69 69 69 70 71 71 71 71 71 71 71 71 71 71 71 71 71 70 70 69 69 69 70 69 69 68 67
29 28 23 21 19 21 23 25 22 19 21 23 23 22 26 38 55 59 63 66 66 68 68 68 68 70 71 71 71 71 71 70 70 70 68 70 69 70 70 69 68 68 67 68 68 69 68 67 66
26 23 19 16 16 19 20 21 24 24 25 24 25 27 27 49 55 58 64 66 66 67 67 68 69 70 70 70 71 70 70 70 69 69 69 69 68 67 67 68 68 68 67 67 68 67 67 66 65
23 21 19 17 16 19 20 22 20 21 23 27 28 25 33 48 53 60 60 64 64 65 66 67 68 69 69 69 69 69 69 69 69 68 67 67 66 66 66 66 67 67 66 67 67 67 65 66 64
27 26 23 21 18 17 20 21 23 19 19 22 35 31 34 45 57 60 61 62 62 64 65 67 68 68 69 69 68 68 68 68 68 67 67 66 64 64 66 66 66 66 67 67 67 65 64 65 63
28 25 23 20 21 19 20 23 23 22 19 21 23 33 40 52 58 58 58 60 61 63 63 65 66 67 68 68 68 68 68 68 66 66 66 64 63 63 65 65 65 66 66 66 66 64 62 63 62
26 25 24 24 22 20 23 24 21 20 23 22 26 26 49 57 56 56 57 58 60 61 62 63 65 66 66 67 67 69 69 68 66 64 65 64 64 64 63 64 65 65 65 65 64 62 62 62 60
27 25 25 23 23 22 21 21 21 20 20 22 21 22 48 55 55 55 56 57 59 62 62 62 62 63 63 64 65 65 65 67 66 64 64 65 64 64 63 64 65 64 65 63 62 60 59 59 59
25 26 24 23 23 24 23 24 22 21 21 23 22 21 35 53 55 55 56 57 58 59 61 61 61 61 60 61 61 61 62 64 66 65 64 63 62 62 63 64 64 64 63 62 60 56 55 57 56
28 28 28 29 29 28 28 26 25 21 21 22 23 26 28 46 54 55 56 56 57 58 60 61 62 61 60 59 59 61 61 62 64 65 64 63 62 62 63 63 63 62 62 61 57 53 53 53 54
29 27 26 27 27 27 25 25 25 25 26 26 25 28 30 40 52 54 55 55 55 57 59 60 61 61 60 59 59 61 61 61 62 64 63 63 62 62 62 62 62 61 60 59 56 52 52 53 54
21 17 18 19 23 24 25 24 23 25 25 24 30 30 31 33 41 48 50 53 54 55 57 60 61 60 60 59 59 59 59 60 61 62 64 63 62 62 62 62 61 60 59 57 53 51 51 53 53
15 18 15 21 22 24 24 22 25 23 24 24 25 28 29 32 32 32 44 48 49 54 58 60 61 60 59 59 58 59 60 59 60 61 63 63 63 62 62 62 61 59 57 55 53 51 50 52 53
14 12 14 15 22 23 21 19 16 21 16 19 26 27 27 29 32 33 32 35 43 53 59 60 61 60 59 59 59 59 60 60 60 61 61 62 62 63 62 62 60 57 55 54 53 51 51 52 52
14 13 14 14 14 18 16 14 14 10 15 19 21 26 26 25 27 29 31 36 44 57 59 60 60 60 59 59 60 61 59 59 61 62 61 61 61 62 62 61 57 56 53 52 52 50 51 52 53
15 13 12 12 12 8 8 6 5 8 10 15 19 21 23 25 27 30 39 51 56 59 59 59 59 59 59 60 60 60 59 60 61 61 61 61 61 61 61 58 57 55 52 50 51 50 50 51 52
10 9 10 7 7 8 5 5 9 11 14 16 17 23 25 27 27 27 40 54 56 58 58 59 59 59 60 60 60 60 59 61 61 61 61 61 61 60 59 57 56 53 50 50 50 50 50 51 52
8 6 7 6 9 9 10 14 15 17 18 23 25 27 28 26 25 27 35 53 55 57 57 58 58 59 59 59 59 60 60 60 60 61 60 61 61 59 58 57 55 53 49 49 50 50 50 50 50
17 17 16 17 12 15 17 13 14 17 19 19 20 21 21 22 29 29 35 53 54 56 56 57 58 59 57 57 58 59 58 57 59 59 61 60 61 60 58 56 55 52 49 48 50 51 51 50 49
24 23 19 18 18 17 16 15 14 14 13 16 19 21 27 40 40 40 39 53 54 56 55 57 58 58 57 57 58 58 57 58 59 60 60 61 61 61 59 57 56 53 52 49 50 53 53 52 50
23 20 19 22 19 16 15 14 8 12 16 20 26 37 42 42 42 42 42 50 54 55 55 57 57 57 57 56 55 55 54 57 59 59 59 60 61 61 61 58 57 55 53 52 52 54 54 53 52
16 16 12 7 17 11 16 16 12 16 20 36 40 41 44 43 42 42 43 50 55 56 55 56 56 57 57 56 55 54 54 56 57 59 59 59 60 60 61 60 58 57 54 55 53 55 54 53 52
16 16 15 5 7 6 18 15 17 23 34 39 42 44 44 44 42 43 44 46 55 55 55 55 55 56 56 56 56 56 54 55 55 55 57 59 59 60 61 61 59 58 56 57 56 55 55 54 53
20 17 19 15 15 16 13 16 17 28 34 37 37 42 43 43 43 43 44 44 53 55 54 55 55 55 56 56 57 57 57 57 57 56 56 57 58 59 60 61 60 59 58 57 56 55 55 54 54
23 28 17 21 15 10 12 17 17 32 36 38 38 40 40 39 42 43 43 44 45 54 55 55 55 55 56 56 56 56 57 57 57 57 58 57 59 59 59 59 60 60 59 57 57 56 56 55 55
21 24 27 26 25 19 18 13 31 28 38 39 40 41 42 41 45 44 44 44 46 55 55 55 55 55 55 55 56 57 57 57 57 57 57 58 59 59 59 59 59 59 58 57 57 56 56 55 56
30 30 30 23 25 26 25 23 28 24 28 31 41 43 44 44 44 46 48 48 53 54 55 55 55 55 55 54 56 57 57 56 56 56 57 57 57 58 58 58 58 58 58 58 57 56 56 56 55

GFSSGP_sfc_dewp_117.txt.gz
Dewpoint
56 41 38 36 29 28 23 22 23 22 22 24 25 24 26 26 36 25 48 60 66 67 69 69 69 70 70 72 72 71 72 73 73 73 73 72 72 72 72 72 71 71 72 71 71 72 71 70 70
47 37 35 32 25 19 17 24 23 23 22 26 24 24 24 24 40 48 52 64 67 67 68 69 69 70 70 72 71 70 71 72 73 73 72 72 72 72 72 72 71 71 71 71 70 70 70 70 70
41 38 32 28 26 13 15 24 22 23 23 25 20 22 25 28 49 51 54 64 67 67 68 69 70 70 71 72 72 70 71 71 72 72 72 72 72 72 72 71 71 70 70 70 70 70 70 70 69
37 36 29 23 18 24 24 24 24 23 20 22 22 20 25 34 49 56 56 63 67 67 68 69 69 70 70 71 72 70 70 70 70 71 72 72 71 70 69 67 69 69 69 70 69 69 69 68 67
30 30 23 22 21 23 25 27 24 20 21 22 22 22 26 36 52 56 60 64 66 68 69 70 69 69 70 72 72 71 70 69 70 71 71 71 69 68 68 68 68 68 68 68 69 69 68 67 66
26 26 18 9 12 19 20 22 21 21 24 24 24 25 27 46 53 57 63 65 67 68 69 70 69 70 70 71 71 70 70 69 70 70 70 69 69 69 68 68 68 67 68 68 68 68 67 67 66
19 23 16 15 15 16 19 23 22 20 21 22 26 25 30 41 52 60 64 67 68 69 69 69 70 70 69 69 69 69 69 69 69 69 68 68 67 67 67 67 67 67 67 67 67 67 67 66 65
25 24 20 17 8 9 20 21 23 20 19 22 31 29 25 30 57 61 63 66 67 68 69 69 69 69 70 70 68 68 68 68 68 68 67 67 66 66 67 67 67 67 67 67 67 67 66 65 64
29 21 17 12 16 13 20 21 23 22 20 22 23 27 29 46 58 59 60 63 66 67 68 69 67 68 68 69 70 69 68 68 67 67 66 65 65 66 65 63 65 66 66 67 66 65 65 64 63
28 23 19 21 18 18 21 23 22 21 23 23 27 29 33 51 54 55 58 59 62 65 66 67 67 67 68 68 69 70 69 70 69 69 67 67 65 64 63 64 65 66 66 66 65 64 64 62 60
29 22 26 24 24 24 22 22 22 22 22 26 27 28 33 41 50 55 56 57 59 61 65 66 66 67 67 67 68 70 70 69 69 69 68 67 65 65 65 65 66 67 66 64 63 62 62 61 60
26 27 26 24 24 25 23 24 24 25 27 28 28 27 26 31 42 51 55 57 58 60 63 65 67 66 66 67 67 68 69 68 67 67 67 66 65 65 65 65 66 66 64 64 62 61 61 62 60
29 27 27 26 25 26 27 27 27 26 27 27 25 27 31 32 34 49 55 57 58 59 61 64 66 67 66 65 66 66 66 67 67 66 65 65 65 65 63 64 65 64 63 63 61 60 59 60 59
29 28 27 27 27 28 27 27 27 27 28 27 29 31 32 34 36 46 52 54 56 58 59 62 65 66 66 66 65 64 64 65 66 66 64 65 65 65 64 63 64 64 63 61 60 58 58 58 58
23 20 20 22 24 25 27 24 25 26 27 26 28 31 30 31 34 38 44 44 45 53 57 61 63 65 65 65 64 63 63 63 65 66 65 64 63 63 63 63 63 63 63 60 58 57 57 56 57
14 16 15 20 20 22 24 21 25 24 22 15 15 21 27 30 30 33 37 38 40 48 52 58 60 64 64 64 63 62 62 63 63 64 64 64 64 63 63 63 62 62 61 59 56 56 55 55 56
15 14 15 16 22 23 24 22 22 21 13 11 14 18 22 27 31 32 33 35 37 42 45 57 61 63 64 63 63 62 61 61 61 62 63 64 63 63 63 62 62 60 59 58 57 55 55 55 55
9 13 15 14 15 18 18 20 18 14 9 11 15 18 23 26 25 28 31 35 37 43 47 57 61 62 63 63 62 61 61 60 60 61 61 62 63 63 62 62 61 59 58 57 56 55 54 55 54
14 15 14 14 14 13 13 12 11 9 9 13 16 19 22 25 28 30 35 38 42 54 56 59 61 62 62 61 60 60 59 59 60 61 61 62 62 62 63 62 60 59 57 57 58 55 55 54 55
10 11 13 13 11 13 9 10 13 13 15 16 18 21 24 27 28 34 40 40 48 55 59 60 60 61 61 61 61 61 60 61 60 61 62 62 62 61 62 61 59 58 57 56 55 55 54 54 55
9 10 11 7 8 12 12 14 16 17 16 20 24 25 25 26 40 42 44 45 50 55 59 59 60 60 61 61 61 61 61 61 61 61 61 61 61 61 60 60 59 57 55 54 56 55 54 52 54
13 11 8 7 15 14 18 9 13 16 18 20 21 25 33 42 43 43 44 45 50 53 58 59 60 60 60 61 60 60 59 58 60 61 61 61 60 59 59 59 58 56 54 53 55 54 54 54 53
14 23 15 18 18 17 17 15 14 15 11 17 22 35 42 44 44 43 44 45 49 55 58 60 60 59 59 60 60 59 59 59 61 61 60 61 61 59 58 58 57 54 53 54 54 55 55 54 54
26 23 21 22 20 13 15 11 7 9 16 19 35 40 44 45 44 43 45 45 47 57 58 59 59 58 58 59 59 59 59 58 60 60 60 61 61 60 59 57 56 55 53 53 53 54 55 56 55
20 18 11 12 14 5 14 14 12 17 26 37 38 40 43 42 41 42 43 44 46 53 56 57 58 57 58 58 58 58 59 60 59 60 60 60 60 61 59 58 57 56 55 54 53 54 55 56 55
20 18 10 -2 2 2 16 10 16 33 37 38 38 40 40 40 40 42 44 45 46 48 55 56 56 56 57 58 58 60 60 59 59 60 61 60 60 60 61 60 59 57 56 53 54 55 55 56 57
19 16 18 11 15 14 14 15 25 32 32 31 32 38 40 41 41 43 46 47 49 49 50 55 56 56 57 57 59 59 58 58 57 58 59 61 61 61 61 60 59 59 56 56 55 56 56 56 57
23 24 18 19 13 9 11 13 19 23 24 23 25 33 40 42 43 45 47 48 50 53 52 56 56 56 57 57 58 58 58 58 58 58 58 58 59 60 60 61 60 59 57 56 55 55 56 55 56
21 24 27 24 24 10 9 12 27 25 25 19 19 25 38 43 44 43 45 47 47 52 55 56 56 56 56 57 58 58 57 58 58 58 58 58 59 59 59 60 60 59 58 57 56 55 55 53 54
29 30 29 21 22 25 22 18 28 25 21 19 19 20 34 43 44 43 45 45 47 47 55 56 56 56 56 57 57 57 57 57 57 57 58 59 59 60 59 59 59 59 59 58 56 55 55 54 54

GFSSGP_sfc_dewp_120.txt.gz
Dewpoint
52 37 32 33 22 21 14 18 22 20 22 25 25 29 26 24 24 22 47 56 60 57 64 69 70 70 72 72 72 73 73 73 73 73 73 73 73 73 73 73 72 72 72 71 71 71 71 70 71
43 32 35 28 16 9 7 20 21 21 22 24 25 25 24 24 29 38 48 61 61 60 64 66 70 70 71 72 72 72 73 73 73 71 73 73 73 72 72 72 71 71 71 71 71 71 70 70 70
38 34 26 17 12 5 3 20 21 22 21 25 23 24 24 24 37 39 46 62 62 61 63 66 69 70 70 72 71 71 71 73 72 72 73 72 73 72 72 71 70 70 71 71 70 70 70 70 69
31 28 22 13 9 11 11 20 24 21 19 22 22 21 24 27 37 44 49 60 60 61 62 68 69 69 70 72 72 71 71 72 72 72 72 72 71 71 68 68 67 68 69 69 69 69 70 69 68
26 23 13 12 9 9 16 23 26 19 20 22 21 22 23 34 41 50 50 56 59 62 64 69 68 69 71 72 72 70 71 71 71 71 71 72 70 68 66 68 67 67 67 69 69 69 69 68 67
19 20 12 7 6 12 14 18 19 17 23 22 22 24 25 41 44 50 55 57 62 64 67 69 69 69 70 71 71 69 69 69 70 71 71 70 69 68 68 67 68 68 67 69 69 69 68 67 67
21 17 12 9 9 10 12 16 18 14 21 24 24 24 27 30 44 55 58 61 65 68 69 69 70 69 69 69 69 69 69 69 69 70 69 69 67 67 67 67 68 68 68 68 68 68 67 66 66
22 18 15 12 10 8 12 18 22 17 18 21 23 24 27 28 46 57 62 64 66 68 70 69 70 70 70 70 68 68 68 68 68 69 68 67 67 66 67 67 67 67 68 68 68 67 66 65 64
25 19 17 15 12 12 15 18 20 21 20 20 21 24 27 33 43 49 55 62 64 66 69 70 70 70 70 69 70 69 68 68 68 68 67 66 66 66 66 64 66 67 67 67 67 66 65 64 63
23 20 19 18 16 13 16 20 20 19 19 20 24 27 31 30 37 39 43 51 60 63 66 69 70 70 70 69 70 70 70 70 70 69 69 66 66 66 62 64 66 67 66 67 66 65 64 63 61
24 21 21 20 19 16 16 16 17 17 15 19 20 24 28 32 35 40 43 45 51 59 63 66 69 70 70 69 69 69 70 69 68 68 69 67 65 67 63 61 65 66 66 65 66 64 62 62 58
25 24 23 21 22 20 20 20 20 20 21 22 24 28 29 30 32 35 40 45 48 56 61 66 67 68 69 68 68 69 70 70 69 68 69 69 67 64 62 61 62 64 66 66 64 63 62 59 57
26 24 23 25 24 24 24 23 23 23 25 26 25 29 31 32 33 34 42 47 50 54 58 63 66 68 68 68 69 69 69 69 69 70 69 69 67 64 63 64 63 65 66 65 62 61 58 59 60
21 24 24 23 24 24 23 23 24 25 28 29 30 31 31 32 33 36 39 41 43 48 53 59 64 66 68 67 68 68 68 68 69 69 68 69 68 65 64 64 67 65 65 63 62 59 57 58 59
21 20 19 21 23 24 26 24 25 26 27 27 28 29 30 28 26 31 33 33 34 35 38 52 58 64 67 68 67 66 67 67 68 68 68 68 67 66 64 64 64 65 64 64 62 60 57 57 58
16 18 15 16 18 21 23 17 22 25 26 26 22 18 19 22 22 24 27 29 30 34 36 42 49 59 65 66 67 66 66 65 67 66 67 67 67 66 65 64 63 64 64 63 60 58 57 57 58
8 9 11 14 19 19 22 19 21 24 21 18 17 14 14 20 26 26 26 29 31 35 37 42 48 57 62 65 65 66 66 65 65 66 66 66 66 65 64 64 63 64 62 61 59 59 58 57 57
5 6 9 10 13 18 18 18 18 19 19 17 14 12 18 20 21 22 27 35 39 43 43 46 46 54 61 64 66 65 63 63 64 66 64 65 66 64 64 63 62 63 61 60 59 58 57 57 56
6 4 5 6 12 14 14 13 13 14 13 11 11 16 18 22 22 26 38 44 48 50 49 52 53 57 61 63 64 63 61 61 61 63 63 62 64 64 63 63 62 61 60 60 59 58 58 55 57
9 5 3 3 11 16 12 9 7 8 11 12 14 17 21 22 25 35 41 45 48 52 54 55 56 59 60 61 62 62 62 62 61 61 62 62 62 64 63 63 62 60 60 59 58 57 56 55 57
12 10 7 4 5 8 7 5 6 9 12 15 20 20 22 29 36 39 43 46 48 51 55 55 56 59 60 60 61 62 62 62 61 61 61 62 62 63 63 62 61 60 60 58 58 57 56 55 56
14 12 9 7 9 4 7 4 9 12 13 17 17 22 32 38 40 41 42 44 47 53 57 57 57 58 60 61 61 61 60 60 61 61 63 63 63 63 62 62 61 60 59 58 58 57 56 57 55
14 14 17 17 12 10 8 10 5 11 13 14 21 34 39 42 42 39 40 43 44 52 58 58 58 60 60 61 62 61 60 59 60 61 62 62 62 61 61 61 59 59 59 58 57 57 59 58 56
13 15 21 20 15 13 12 11 3 8 11 15 31 37 39 38 38 38 40 43 45 50 55 58 58 59 60 61 62 61 61 59 60 61 61 62 60 60 60 58 58 58 58 58 57 57 58 58 57
15 18 14 14 13 10 3 5 7 10 22 30 35 36 37 38 39 39 41 43 46 50 51 55 57 57 59 60 60 60 60 60 60 60 60 60 60 58 58 58 57 57 57 57 57 56 58 58 57
19 19 12 8 8 7 9 5 14 31 33 33 33 35 37 38 39 39 42 46 48 51 54 53 55 57 58 59 60 60 60 59 60 60 59 60 60 60 59 58 57 56 55 56 56 56 57 58 59
20 22 20 15 13 9 8 22 30 30 25 25 26 29 35 38 39 39 40 45 47 50 53 55 53 56 57 58 59 59 60 60 59 60 61 62 61 60 61 60 58 57 55 55 55 56 56 57 59
22 21 15 16 11 4 1 11 13 24 17 10 7 11 22 30 35 38 39 43 43 47 49 52 57 55 57 57 59 60 60 59 60 60 61 62 61 61 61 60 59 58 57 56 55 55 55 56 57
31 26 25 22 15 9 7 7 22 24 21 15 12 12 14 24 31 37 40 41 41 46 48 50 54 56 56 57 58 60 59 59 60 59 59 59 60 60 60 60 60 59 58 58 56 56 56 55 56
27 33 34 28 19 18 15 13 24 28 24 14 15 13 16 17 33 37 39 41 42 45 47 49 50 56 57 57 58 59 59 58 58 58 58 58 57 59 59 59 60 60 57 57 57 55 56 57 55

GFSSGP_sfc_dewp_123.txt.gz
Dewpoint
53 42 30 27 22 16 9 9 14 17 20 22 24 28 24 24 24 27 37 50 49 52 62 68 71 72 72 72 72 73 73 73 73 73 73 73 73 73 73 73 72 71 72 71 71 71 71 71 71
43 29 26 26 16 8 6 8 17 15 23 25 24 28 23 21 25 31 41 57 53 53 61 65 70 71 72 72 73 73 73 73 73 73 73 73 73 73 73 73 72 70 71 71 71 70 70 71 70
47 25 24 19 13 7 2 11 14 20 23 25 24 24 23 23 28 32 43 56 52 53 58 66 70 70 72 72 72 73 73 73 73 72 72 72 73 73 72 70 69 69 70 71 70 70 71 70 69
32 22 22 16 11 7 6 10 19 21 19 21 23 21 23 25 32 34 43 52 51 52 55 68 69 69 71 72 72 72 72 72 72 72 72 73 73 72 70 67 68 68 68 68 69 69 70 69 69
27 21 17 12 9 5 9 13 21 19 18 21 22 22 22 28 36 42 44 50 51 53 59 69 68 69 71 72 72 71 71 72 71 72 72 72 72 71 69 64 65 66 64 67 68 69 69 68 68
20 17 14 10 9 7 9 12 21 21 21 23 21 23 24 38 37 42 46 51 55 58 62 70 69 69 70 71 71 70 70 71 71 71 71 71 71 69 65 67 68 67 68 68 68 69 68 68 67
22 19 16 14 13 9 10 13 15 17 18 24 24 24 25 31 40 48 50 52 59 63 66 69 70 69 69 70 70 69 69 69 70 70 70 70 68 67 67 68 68 68 68 68 68 68 67 67 66
24 23 20 16 14 12 10 11 14 10 11 21 23 21 24 32 40 49 55 56 62 66 69 68 69 70 70 70 69 68 68 68 69 69 69 68 67 67 68 68 67 68 69 68 68 67 66 66 65
26 23 19 17 16 14 13 13 15 14 11 19 21 21 28 29 34 44 53 58 61 65 68 69 70 69 70 69 69 69 68 68 68 69 68 66 67 66 66 65 67 68 68 68 68 66 65 64 64
24 24 21 20 18 17 15 17 16 17 19 17 22 24 26 27 30 35 38 46 57 61 65 68 69 70 70 67 69 69 69 69 69 69 70 69 69 67 63 64 66 67 67 67 66 66 64 63 62
26 24 23 20 20 19 16 15 17 17 16 17 16 19 24 28 32 35 37 38 42 55 61 65 68 70 70 69 69 68 67 68 68 69 69 70 66 68 65 68 63 66 67 66 66 65 66 64 62
22 24 23 22 21 21 20 20 19 18 19 20 20 20 23 27 30 32 34 38 39 45 57 63 66 69 69 68 68 69 67 67 67 67 70 70 68 69 65 67 66 63 64 66 64 65 64 63 60
21 22 22 23 23 23 22 22 22 22 23 23 23 25 27 29 30 32 35 35 41 45 52 60 65 68 68 69 68 69 67 67 67 67 70 69 67 66 66 66 64 62 65 65 65 65 64 60 55
21 20 21 22 22 22 23 22 22 23 25 26 26 29 29 31 32 34 34 35 38 45 50 57 62 66 68 68 68 68 69 67 68 67 68 71 68 67 64 65 66 65 67 66 65 64 62 58 57
20 20 20 20 22 22 23 22 22 22 23 24 26 29 30 30 30 32 35 35 35 38 42 50 57 62 67 68 68 67 68 67 67 67 70 70 69 68 66 64 66 65 66 64 64 64 61 58 57
18 19 17 19 17 17 19 18 20 21 22 24 26 27 29 29 28 27 30 32 32 35 37 38 37 57 64 66 67 67 67 67 67 68 69 69 70 68 67 65 65 66 64 64 63 62 61 58 56
16 13 14 14 15 15 17 17 18 18 23 23 24 25 22 22 24 24 25 27 29 32 34 40 44 52 60 64 65 68 67 67 66 67 67 68 69 68 67 66 64 65 65 63 62 62 60 57 55
9 8 9 10 10 13 16 16 18 19 21 23 20 19 17 16 17 22 24 27 35 45 48 48 47 52 55 62 65 65 67 66 66 66 65 67 68 68 67 66 64 65 63 62 62 61 60 56 56
8 7 6 8 6 8 11 13 15 16 17 20 18 18 15 14 16 21 27 35 41 46 49 49 50 55 51 54 59 63 65 66 64 65 66 67 67 67 66 65 64 63 62 61 61 60 58 57 57
8 9 8 7 3 5 10 11 11 11 13 15 15 12 12 16 20 24 33 40 44 47 50 53 52 54 54 53 58 62 65 62 62 63 65 65 65 65 65 64 63 63 62 60 60 60 58 55 59
4 8 10 7 5 6 8 8 9 5 4 7 11 11 13 19 23 31 37 41 46 48 55 54 53 54 57 57 59 63 63 62 62 62 62 63 63 64 65 64 63 62 61 60 60 60 58 54 57
13 12 9 9 10 8 10 2 5 5 5 8 11 16 21 26 34 35 35 38 43 49 55 57 56 55 57 60 61 62 61 60 60 61 62 62 62 62 62 63 63 61 61 60 60 60 59 56 55
13 15 14 13 14 12 6 3 5 9 10 11 15 20 28 35 36 34 35 38 41 49 52 57 58 57 58 60 61 61 61 61 62 62 62 62 62 62 63 64 63 61 61 60 60 60 59 57 56
17 18 14 16 17 12 13 8 5 9 13 12 17 28 34 35 35 35 37 39 41 51 54 53 56 57 59 61 62 62 62 61 61 60 61 61 63 63 62 62 62 62 60 60 59 60 58 58 57
14 16 17 13 16 18 12 8 9 11 10 13 23 33 34 36 37 36 37 40 43 48 52 53 51 55 58 60 61 62 62 62 61 60 60 62 61 60 60 61 60 60 60 59 59 59 58 57 56
16 17 16 14 15 14 13 11 10 11 27 30 32 33 35 35 37 36 36 40 42 46 48 53 52 52 56 59 60 61 62 62 60 60 60 61 61 60 60 59 59 58 58 59 59 59 59 58 58
20 23 20 19 18 16 14 15 25 27 29 30 29 30 34 35 35 34 35 39 41 41 45 51 55 53 55 57 59 60 61 62 60 59 61 60 62 61 60 59 57 57 57 57 58 58 58 59 59
32 26 24 26 22 16 11 12 18 25 24 24 21 19 20 23 26 30 34 37 38 41 45 50 52 54 55 57 58 59 60 61 60 60 61 62 61 62 60 59 58 56 56 56 57 57 58 58 59
28 29 22 24 25 15 12 9 18 26 21 16 14 14 14 14 14 25 33 37 39 42 45 48 50 52 56 57 58 59 60 61 61 60 61 61 62 61 61 59 58 56 55 55 56 56 57 57 57
26 28 34 31 20 20 17 16 28 26 20 21 18 15 14 15 14 17 31 35 39 43 45 46 49 50 53 57 57 58 59 61 59 59 59 61 60 61 61 60 59 57 56 55 55 55 56 56 56